<?xml version="1.0" encoding="UTF-8" standalone="no" ?>
<gpx xmlns="http://www.topografix.com/GPX/1/1" xmlns:xsi="http://www.w3.org/2001/XMLSchema-instance" xsi:schemaLocation="http://www.topografix.com/GPX/1/1 http://www.topografix.com/GPX/1/1/gpx.xsd" version="1.1" creator="VisuGPX - https://www.visugpx.com">
  <metadata>
    <name>Gravel J1</name>
  </metadata>
  <trk>
    <name><![CDATA[Gravel J1 - Trail Running Portes du Soleil]]></name>
    <extensions>
      <line xmlns="http://www.topografix.com/GPX/gpx_style/0/2">
        <color>0000FF</color>
        <width>4</width>
      </line>
    </extensions>
    <trkseg>
      <trkpt lat="46.26797" lon="6.84082">
        <ele>1182</ele>
        <time>2000-01-01T02:04:17.000Z</time>
      </trkpt>
      <trkpt lat="46.26797" lon="6.84089">
        <ele>1182.7</ele>
        <time>2000-01-01T02:04:27.000Z</time>
      </trkpt>
      <trkpt lat="46.26762" lon="6.84097">
        <ele>1184</ele>
        <time>2000-01-01T02:04:37.000Z</time>
      </trkpt>
      <trkpt lat="46.26759" lon="6.84096">
        <ele>1184.6</ele>
        <time>2000-01-01T02:04:47.000Z</time>
      </trkpt>
      <trkpt lat="46.26751" lon="6.84097">
        <ele>1184.9</ele>
        <time>2000-01-01T02:04:57.000Z</time>
      </trkpt>
      <trkpt lat="46.26736" lon="6.84096">
        <ele>1182</ele>
        <time>2000-01-01T02:05:07.000Z</time>
      </trkpt>
      <trkpt lat="46.26735" lon="6.84087">
        <ele>1184.8</ele>
        <time>2000-01-01T02:05:17.000Z</time>
      </trkpt>
      <trkpt lat="46.26731" lon="6.84078">
        <ele>1184.2</ele>
        <time>2000-01-01T02:05:27.000Z</time>
      </trkpt>
      <trkpt lat="46.26725" lon="6.84073">
        <ele>1181</ele>
        <time>2000-01-01T02:05:37.000Z</time>
      </trkpt>
      <trkpt lat="46.26694" lon="6.84068">
        <ele>1177</ele>
        <time>2000-01-01T02:05:47.000Z</time>
      </trkpt>
      <trkpt lat="46.26672" lon="6.84044">
        <ele>1174</ele>
        <time>2000-01-01T02:05:57.000Z</time>
      </trkpt>
      <trkpt lat="46.26679" lon="6.84031">
        <ele>1174</ele>
        <time>2000-01-01T02:06:07.000Z</time>
      </trkpt>
      <trkpt lat="46.26686" lon="6.84025">
        <ele>1173</ele>
        <time>2000-01-01T02:06:17.000Z</time>
      </trkpt>
      <trkpt lat="46.26714" lon="6.84014">
        <ele>1169</ele>
        <time>2000-01-01T02:06:27.000Z</time>
      </trkpt>
      <trkpt lat="46.26737" lon="6.84004">
        <ele>1169</ele>
        <time>2000-01-01T02:06:37.000Z</time>
      </trkpt>
      <trkpt lat="46.2676" lon="6.83994">
        <ele>1168</ele>
        <time>2000-01-01T02:06:47.000Z</time>
      </trkpt>
      <trkpt lat="46.26794" lon="6.8399">
        <ele>1164</ele>
        <time>2000-01-01T02:06:57.000Z</time>
      </trkpt>
      <trkpt lat="46.26794" lon="6.83986">
        <ele>1163.9</ele>
        <time>2000-01-01T02:07:07.000Z</time>
      </trkpt>
      <trkpt lat="46.26799" lon="6.83982">
        <ele>1162.9</ele>
        <time>2000-01-01T02:07:17.000Z</time>
      </trkpt>
      <trkpt lat="46.26857" lon="6.83972">
        <ele>1159</ele>
        <time>2000-01-01T02:07:27.000Z</time>
      </trkpt>
      <trkpt lat="46.26885" lon="6.83958">
        <ele>1157</ele>
        <time>2000-01-01T02:07:37.000Z</time>
      </trkpt>
      <trkpt lat="46.2691" lon="6.83941">
        <ele>1155</ele>
        <time>2000-01-01T02:07:47.000Z</time>
      </trkpt>
      <trkpt lat="46.26945" lon="6.83916">
        <ele>1149</ele>
        <time>2000-01-01T02:07:57.000Z</time>
      </trkpt>
      <trkpt lat="46.26967" lon="6.83901">
        <ele>1148</ele>
        <time>2000-01-01T02:08:07.000Z</time>
      </trkpt>
      <trkpt lat="46.26992" lon="6.83884">
        <ele>1144</ele>
        <time>2000-01-01T02:08:17.000Z</time>
      </trkpt>
      <trkpt lat="46.27015" lon="6.83872">
        <ele>1142</ele>
        <time>2000-01-01T02:08:27.000Z</time>
      </trkpt>
      <trkpt lat="46.27053" lon="6.83857">
        <ele>1137</ele>
        <time>2000-01-01T02:08:37.000Z</time>
      </trkpt>
      <trkpt lat="46.27069" lon="6.83842">
        <ele>1135</ele>
        <time>2000-01-01T02:08:47.000Z</time>
      </trkpt>
      <trkpt lat="46.27105" lon="6.83805">
        <ele>1133</ele>
        <time>2000-01-01T02:08:57.000Z</time>
      </trkpt>
      <trkpt lat="46.27108" lon="6.83799">
        <ele>1133.3</ele>
        <time>2000-01-01T02:09:07.000Z</time>
      </trkpt>
      <trkpt lat="46.27108" lon="6.83789">
        <ele>1132.5</ele>
        <time>2000-01-01T02:09:17.000Z</time>
      </trkpt>
      <trkpt lat="46.27105" lon="6.83784">
        <ele>1131.8</ele>
        <time>2000-01-01T02:09:27.000Z</time>
      </trkpt>
      <trkpt lat="46.271" lon="6.83783">
        <ele>1131</ele>
        <time>2000-01-01T02:09:37.000Z</time>
      </trkpt>
      <trkpt lat="46.27066" lon="6.83793">
        <ele>1128</ele>
        <time>2000-01-01T02:09:47.000Z</time>
      </trkpt>
      <trkpt lat="46.27061" lon="6.83793">
        <ele>1127.1</ele>
        <time>2000-01-01T02:09:57.000Z</time>
      </trkpt>
      <trkpt lat="46.27027" lon="6.83785">
        <ele>1125</ele>
        <time>2000-01-01T02:10:07.000Z</time>
      </trkpt>
      <trkpt lat="46.27" lon="6.83778">
        <ele>1123</ele>
        <time>2000-01-01T02:10:17.000Z</time>
      </trkpt>
      <trkpt lat="46.26963" lon="6.83768">
        <ele>1120</ele>
        <time>2000-01-01T02:10:27.000Z</time>
      </trkpt>
      <trkpt lat="46.26939" lon="6.83763">
        <ele>1118</ele>
        <time>2000-01-01T02:10:37.000Z</time>
      </trkpt>
      <trkpt lat="46.26911" lon="6.83763">
        <ele>1117</ele>
        <time>2000-01-01T02:10:47.000Z</time>
      </trkpt>
      <trkpt lat="46.26866" lon="6.83762">
        <ele>1112</ele>
        <time>2000-01-01T02:10:57.000Z</time>
      </trkpt>
      <trkpt lat="46.26832" lon="6.83769">
        <ele>1109</ele>
        <time>2000-01-01T02:11:07.000Z</time>
      </trkpt>
      <trkpt lat="46.26826" lon="6.83763">
        <ele>1109.7</ele>
        <time>2000-01-01T02:11:17.000Z</time>
      </trkpt>
      <trkpt lat="46.26826" lon="6.83751">
        <ele>1108.6</ele>
        <time>2000-01-01T02:11:27.000Z</time>
      </trkpt>
      <trkpt lat="46.26836" lon="6.83738">
        <ele>1106</ele>
        <time>2000-01-01T02:11:37.000Z</time>
      </trkpt>
      <trkpt lat="46.26859" lon="6.83701">
        <ele>1104</ele>
        <time>2000-01-01T02:11:47.000Z</time>
      </trkpt>
      <trkpt lat="46.26878" lon="6.83667">
        <ele>1099</ele>
        <time>2000-01-01T02:11:57.000Z</time>
      </trkpt>
      <trkpt lat="46.26894" lon="6.83639">
        <ele>1098</ele>
        <time>2000-01-01T02:12:07.000Z</time>
      </trkpt>
      <trkpt lat="46.26913" lon="6.83606">
        <ele>1096</ele>
        <time>2000-01-01T02:12:17.000Z</time>
      </trkpt>
      <trkpt lat="46.26927" lon="6.83584">
        <ele>1096</ele>
        <time>2000-01-01T02:12:27.000Z</time>
      </trkpt>
      <trkpt lat="46.26942" lon="6.8357">
        <ele>1095</ele>
        <time>2000-01-01T02:12:37.000Z</time>
      </trkpt>
      <trkpt lat="46.26945" lon="6.83562">
        <ele>1094</ele>
        <time>2000-01-01T02:12:47.000Z</time>
      </trkpt>
      <trkpt lat="46.26944" lon="6.83556">
        <ele>1094</ele>
        <time>2000-01-01T02:12:57.000Z</time>
      </trkpt>
      <trkpt lat="46.26938" lon="6.83551">
        <ele>1093.2</ele>
        <time>2000-01-01T02:13:07.000Z</time>
      </trkpt>
      <trkpt lat="46.26911" lon="6.83552">
        <ele>1092</ele>
        <time>2000-01-01T02:13:17.000Z</time>
      </trkpt>
      <trkpt lat="46.269" lon="6.83555">
        <ele>1091.1</ele>
        <time>2000-01-01T02:13:27.000Z</time>
      </trkpt>
      <trkpt lat="46.26859" lon="6.83582">
        <ele>1084</ele>
        <time>2000-01-01T02:13:37.000Z</time>
      </trkpt>
      <trkpt lat="46.26841" lon="6.83591">
        <ele>1084</ele>
        <time>2000-01-01T02:13:47.000Z</time>
      </trkpt>
      <trkpt lat="46.26823" lon="6.83594">
        <ele>1083.5</ele>
        <time>2000-01-01T02:13:57.000Z</time>
      </trkpt>
      <trkpt lat="46.26805" lon="6.83584">
        <ele>1079</ele>
        <time>2000-01-01T02:14:07.000Z</time>
      </trkpt>
      <trkpt lat="46.2679" lon="6.83571">
        <ele>1081.5</ele>
        <time>2000-01-01T02:14:17.000Z</time>
      </trkpt>
      <trkpt lat="46.26777" lon="6.83552">
        <ele>1076</ele>
        <time>2000-01-01T02:14:27.000Z</time>
      </trkpt>
      <trkpt lat="46.26764" lon="6.83526">
        <ele>1075</ele>
        <time>2000-01-01T02:14:37.000Z</time>
      </trkpt>
      <trkpt lat="46.26755" lon="6.8349">
        <ele>1075</ele>
        <time>2000-01-01T02:14:47.000Z</time>
      </trkpt>
      <trkpt lat="46.26742" lon="6.8344">
        <ele>1075</ele>
        <time>2000-01-01T02:14:57.000Z</time>
      </trkpt>
      <trkpt lat="46.26761" lon="6.83432">
        <ele>1075</ele>
        <time>2000-01-01T02:15:07.000Z</time>
      </trkpt>
      <trkpt lat="46.26784" lon="6.83418">
        <ele>1075</ele>
        <time>2000-01-01T02:15:17.000Z</time>
      </trkpt>
      <trkpt lat="46.26809" lon="6.83402">
        <ele>1080</ele>
        <time>2000-01-01T02:15:27.000Z</time>
      </trkpt>
      <trkpt lat="46.2681" lon="6.83391">
        <ele>1074.2</ele>
        <time>2000-01-01T02:15:37.000Z</time>
      </trkpt>
      <trkpt lat="46.26819" lon="6.83356">
        <ele>1085</ele>
        <time>2000-01-01T02:15:47.000Z</time>
      </trkpt>
      <trkpt lat="46.26843" lon="6.83331">
        <ele>1085</ele>
        <time>2000-01-01T02:15:57.000Z</time>
      </trkpt>
      <trkpt lat="46.26881" lon="6.83297">
        <ele>1085</ele>
        <time>2000-01-01T02:16:07.000Z</time>
      </trkpt>
      <trkpt lat="46.26883" lon="6.83287">
        <ele>1085.5</ele>
        <time>2000-01-01T02:16:17.000Z</time>
      </trkpt>
      <trkpt lat="46.26874" lon="6.83262">
        <ele>1089</ele>
        <time>2000-01-01T02:16:27.000Z</time>
      </trkpt>
      <trkpt lat="46.26873" lon="6.83251">
        <ele>1089.1</ele>
        <time>2000-01-01T02:16:37.000Z</time>
      </trkpt>
      <trkpt lat="46.26883" lon="6.8321">
        <ele>1093</ele>
        <time>2000-01-01T02:16:47.000Z</time>
      </trkpt>
      <trkpt lat="46.2689" lon="6.83195">
        <ele>1094.9</ele>
        <time>2000-01-01T02:16:57.000Z</time>
      </trkpt>
      <trkpt lat="46.26917" lon="6.83167">
        <ele>1100</ele>
        <time>2000-01-01T02:17:07.000Z</time>
      </trkpt>
      <trkpt lat="46.26901" lon="6.83174">
        <ele>1098</ele>
        <time>2000-01-01T02:17:17.000Z</time>
      </trkpt>
      <trkpt lat="46.26873" lon="6.83176">
        <ele>1102</ele>
        <time>2000-01-01T02:17:27.000Z</time>
      </trkpt>
      <trkpt lat="46.26848" lon="6.83183">
        <ele>1103</ele>
        <time>2000-01-01T02:17:37.000Z</time>
      </trkpt>
      <trkpt lat="46.26818" lon="6.83191">
        <ele>1104</ele>
        <time>2000-01-01T02:17:47.000Z</time>
      </trkpt>
      <trkpt lat="46.26793" lon="6.83205">
        <ele>1106</ele>
        <time>2000-01-01T02:17:57.000Z</time>
      </trkpt>
      <trkpt lat="46.26777" lon="6.83218">
        <ele>1107.8</ele>
        <time>2000-01-01T02:18:07.000Z</time>
      </trkpt>
      <trkpt lat="46.26793" lon="6.83205">
        <ele>1106</ele>
        <time>2000-01-01T02:18:17.000Z</time>
      </trkpt>
      <trkpt lat="46.26818" lon="6.83191">
        <ele>1104</ele>
        <time>2000-01-01T02:18:27.000Z</time>
      </trkpt>
      <trkpt lat="46.26843" lon="6.83184">
        <ele>1103</ele>
        <time>2000-01-01T02:18:37.000Z</time>
      </trkpt>
      <trkpt lat="46.26873" lon="6.83176">
        <ele>1102</ele>
        <time>2000-01-01T02:18:47.000Z</time>
      </trkpt>
      <trkpt lat="46.26901" lon="6.83174">
        <ele>1097</ele>
        <time>2000-01-01T02:18:57.000Z</time>
      </trkpt>
      <trkpt lat="46.26917" lon="6.83167">
        <ele>1096.9</ele>
        <time>2000-01-01T02:19:07.000Z</time>
      </trkpt>
      <trkpt lat="46.26933" lon="6.83154">
        <ele>1097</ele>
        <time>2000-01-01T02:19:17.000Z</time>
      </trkpt>
      <trkpt lat="46.26954" lon="6.8313">
        <ele>1094</ele>
        <time>2000-01-01T02:19:27.000Z</time>
      </trkpt>
      <trkpt lat="46.26983" lon="6.83098">
        <ele>1093</ele>
        <time>2000-01-01T02:19:37.000Z</time>
      </trkpt>
      <trkpt lat="46.27006" lon="6.83079">
        <ele>1093</ele>
        <time>2000-01-01T02:19:47.000Z</time>
      </trkpt>
      <trkpt lat="46.27036" lon="6.83055">
        <ele>1092</ele>
        <time>2000-01-01T02:19:57.000Z</time>
      </trkpt>
      <trkpt lat="46.27053" lon="6.8303">
        <ele>1091</ele>
        <time>2000-01-01T02:20:07.000Z</time>
      </trkpt>
      <trkpt lat="46.27071" lon="6.83005">
        <ele>1088</ele>
        <time>2000-01-01T02:20:17.000Z</time>
      </trkpt>
      <trkpt lat="46.27106" lon="6.82974">
        <ele>1087</ele>
        <time>2000-01-01T02:20:27.000Z</time>
      </trkpt>
      <trkpt lat="46.27124" lon="6.82954">
        <ele>1087</ele>
        <time>2000-01-01T02:20:37.000Z</time>
      </trkpt>
      <trkpt lat="46.27146" lon="6.82912">
        <ele>1086</ele>
        <time>2000-01-01T02:20:47.000Z</time>
      </trkpt>
      <trkpt lat="46.27174" lon="6.82884">
        <ele>1086</ele>
        <time>2000-01-01T02:20:57.000Z</time>
      </trkpt>
      <trkpt lat="46.27194" lon="6.82859">
        <ele>1086</ele>
        <time>2000-01-01T02:21:07.000Z</time>
      </trkpt>
      <trkpt lat="46.27222" lon="6.82825">
        <ele>1079</ele>
        <time>2000-01-01T02:21:17.000Z</time>
      </trkpt>
      <trkpt lat="46.27248" lon="6.82787">
        <ele>1079</ele>
        <time>2000-01-01T02:21:27.000Z</time>
      </trkpt>
      <trkpt lat="46.27272" lon="6.82741">
        <ele>1079</ele>
        <time>2000-01-01T02:21:37.000Z</time>
      </trkpt>
      <trkpt lat="46.27286" lon="6.8271">
        <ele>1079</ele>
        <time>2000-01-01T02:21:47.000Z</time>
      </trkpt>
      <trkpt lat="46.27299" lon="6.82676">
        <ele>1079</ele>
        <time>2000-01-01T02:21:57.000Z</time>
      </trkpt>
      <trkpt lat="46.27317" lon="6.8263">
        <ele>1078</ele>
        <time>2000-01-01T02:22:07.000Z</time>
      </trkpt>
      <trkpt lat="46.27323" lon="6.82603">
        <ele>1078</ele>
        <time>2000-01-01T02:22:17.000Z</time>
      </trkpt>
      <trkpt lat="46.27328" lon="6.82566">
        <ele>1079</ele>
        <time>2000-01-01T02:22:27.000Z</time>
      </trkpt>
      <trkpt lat="46.27334" lon="6.82518">
        <ele>1081</ele>
        <time>2000-01-01T02:22:37.000Z</time>
      </trkpt>
      <trkpt lat="46.27346" lon="6.82487">
        <ele>1083</ele>
        <time>2000-01-01T02:22:47.000Z</time>
      </trkpt>
      <trkpt lat="46.27361" lon="6.82452">
        <ele>1083</ele>
        <time>2000-01-01T02:22:57.000Z</time>
      </trkpt>
      <trkpt lat="46.27371" lon="6.82414">
        <ele>1086</ele>
        <time>2000-01-01T02:23:07.000Z</time>
      </trkpt>
      <trkpt lat="46.27387" lon="6.82357">
        <ele>1087</ele>
        <time>2000-01-01T02:23:17.000Z</time>
      </trkpt>
      <trkpt lat="46.27403" lon="6.82318">
        <ele>1088</ele>
        <time>2000-01-01T02:23:27.000Z</time>
      </trkpt>
      <trkpt lat="46.27416" lon="6.82284">
        <ele>1093</ele>
        <time>2000-01-01T02:23:37.000Z</time>
      </trkpt>
      <trkpt lat="46.27434" lon="6.82236">
        <ele>1096</ele>
        <time>2000-01-01T02:23:47.000Z</time>
      </trkpt>
      <trkpt lat="46.27444" lon="6.82202">
        <ele>1096</ele>
        <time>2000-01-01T02:23:57.000Z</time>
      </trkpt>
      <trkpt lat="46.27456" lon="6.82159">
        <ele>1096</ele>
        <time>2000-01-01T02:24:07.000Z</time>
      </trkpt>
      <trkpt lat="46.27468" lon="6.82135">
        <ele>1096</ele>
        <time>2000-01-01T02:24:17.000Z</time>
      </trkpt>
      <trkpt lat="46.2749" lon="6.82098">
        <ele>1096</ele>
        <time>2000-01-01T02:24:27.000Z</time>
      </trkpt>
      <trkpt lat="46.27499" lon="6.82098">
        <ele>1094.1</ele>
        <time>2000-01-01T02:24:37.000Z</time>
      </trkpt>
      <trkpt lat="46.27559" lon="6.82038">
        <ele>1090</ele>
        <time>2000-01-01T02:24:47.000Z</time>
      </trkpt>
      <trkpt lat="46.27584" lon="6.82017">
        <ele>1084</ele>
        <time>2000-01-01T02:24:57.000Z</time>
      </trkpt>
      <trkpt lat="46.27605" lon="6.82">
        <ele>1082</ele>
        <time>2000-01-01T02:25:07.000Z</time>
      </trkpt>
      <trkpt lat="46.27628" lon="6.81982">
        <ele>1081</ele>
        <time>2000-01-01T02:25:17.000Z</time>
      </trkpt>
      <trkpt lat="46.27635" lon="6.81973">
        <ele>1077.1</ele>
        <time>2000-01-01T02:25:27.000Z</time>
      </trkpt>
      <trkpt lat="46.27674" lon="6.81906">
        <ele>1071</ele>
        <time>2000-01-01T02:25:37.000Z</time>
      </trkpt>
      <trkpt lat="46.27686" lon="6.81894">
        <ele>1068.6</ele>
        <time>2000-01-01T02:25:47.000Z</time>
      </trkpt>
      <trkpt lat="46.27741" lon="6.81865">
        <ele>1062</ele>
        <time>2000-01-01T02:25:57.000Z</time>
      </trkpt>
      <trkpt lat="46.27762" lon="6.81862">
        <ele>1059</ele>
        <time>2000-01-01T02:26:07.000Z</time>
      </trkpt>
      <trkpt lat="46.27791" lon="6.81862">
        <ele>1056</ele>
        <time>2000-01-01T02:26:17.000Z</time>
      </trkpt>
      <trkpt lat="46.27816" lon="6.81863">
        <ele>1053</ele>
        <time>2000-01-01T02:26:27.000Z</time>
      </trkpt>
      <trkpt lat="46.27842" lon="6.81863">
        <ele>1050</ele>
        <time>2000-01-01T02:26:37.000Z</time>
      </trkpt>
      <trkpt lat="46.27873" lon="6.8186">
        <ele>1047</ele>
        <time>2000-01-01T02:26:47.000Z</time>
      </trkpt>
      <trkpt lat="46.27885" lon="6.81854">
        <ele>1044.6</ele>
        <time>2000-01-01T02:26:57.000Z</time>
      </trkpt>
      <trkpt lat="46.27915" lon="6.81828">
        <ele>1045</ele>
        <time>2000-01-01T02:27:07.000Z</time>
      </trkpt>
      <trkpt lat="46.27951" lon="6.81804">
        <ele>1038</ele>
        <time>2000-01-01T02:27:17.000Z</time>
      </trkpt>
      <trkpt lat="46.27962" lon="6.81803">
        <ele>1036.1</ele>
        <time>2000-01-01T02:27:27.000Z</time>
      </trkpt>
      <trkpt lat="46.27976" lon="6.81816">
        <ele>1034</ele>
        <time>2000-01-01T02:27:37.000Z</time>
      </trkpt>
      <trkpt lat="46.27991" lon="6.81778">
        <ele>1032</ele>
        <time>2000-01-01T02:27:47.000Z</time>
      </trkpt>
      <trkpt lat="46.28003" lon="6.81745">
        <ele>1032</ele>
        <time>2000-01-01T02:27:57.000Z</time>
      </trkpt>
      <trkpt lat="46.28018" lon="6.81706">
        <ele>1032</ele>
        <time>2000-01-01T02:28:07.000Z</time>
      </trkpt>
      <trkpt lat="46.28035" lon="6.81646">
        <ele>1031</ele>
        <time>2000-01-01T02:28:17.000Z</time>
      </trkpt>
      <trkpt lat="46.28046" lon="6.81636">
        <ele>1032.3</ele>
        <time>2000-01-01T02:28:27.000Z</time>
      </trkpt>
      <trkpt lat="46.28059" lon="6.81632">
        <ele>1031</ele>
        <time>2000-01-01T02:28:37.000Z</time>
      </trkpt>
      <trkpt lat="46.28086" lon="6.81617">
        <ele>1030</ele>
        <time>2000-01-01T02:28:47.000Z</time>
      </trkpt>
      <trkpt lat="46.28103" lon="6.81593">
        <ele>1030</ele>
        <time>2000-01-01T02:28:57.000Z</time>
      </trkpt>
      <trkpt lat="46.28121" lon="6.81568">
        <ele>1030</ele>
        <time>2000-01-01T02:29:07.000Z</time>
      </trkpt>
      <trkpt lat="46.28139" lon="6.81552">
        <ele>1029</ele>
        <time>2000-01-01T02:29:17.000Z</time>
      </trkpt>
      <trkpt lat="46.28152" lon="6.81548">
        <ele>1030.5</ele>
        <time>2000-01-01T02:29:27.000Z</time>
      </trkpt>
      <trkpt lat="46.28163" lon="6.81538">
        <ele>1029</ele>
        <time>2000-01-01T02:29:37.000Z</time>
      </trkpt>
      <trkpt lat="46.28171" lon="6.81507">
        <ele>1029</ele>
        <time>2000-01-01T02:29:47.000Z</time>
      </trkpt>
      <trkpt lat="46.28175" lon="6.81469">
        <ele>1028</ele>
        <time>2000-01-01T02:29:57.000Z</time>
      </trkpt>
      <trkpt lat="46.2818" lon="6.81418">
        <ele>1028</ele>
        <time>2000-01-01T02:30:07.000Z</time>
      </trkpt>
      <trkpt lat="46.28192" lon="6.81387">
        <ele>1028</ele>
        <time>2000-01-01T02:30:17.000Z</time>
      </trkpt>
      <trkpt lat="46.28204" lon="6.81354">
        <ele>1027</ele>
        <time>2000-01-01T02:30:27.000Z</time>
      </trkpt>
      <trkpt lat="46.28224" lon="6.81335">
        <ele>1027</ele>
        <time>2000-01-01T02:30:37.000Z</time>
      </trkpt>
      <trkpt lat="46.2825" lon="6.81335">
        <ele>1027</ele>
        <time>2000-01-01T02:30:47.000Z</time>
      </trkpt>
      <trkpt lat="46.28281" lon="6.81334">
        <ele>1027</ele>
        <time>2000-01-01T02:30:57.000Z</time>
      </trkpt>
      <trkpt lat="46.28295" lon="6.81318">
        <ele>1026.2</ele>
        <time>2000-01-01T02:31:07.000Z</time>
      </trkpt>
      <trkpt lat="46.28304" lon="6.81296">
        <ele>1025</ele>
        <time>2000-01-01T02:31:17.000Z</time>
      </trkpt>
      <trkpt lat="46.28315" lon="6.8126">
        <ele>1025</ele>
        <time>2000-01-01T02:31:27.000Z</time>
      </trkpt>
      <trkpt lat="46.28332" lon="6.81208">
        <ele>1025</ele>
        <time>2000-01-01T02:31:37.000Z</time>
      </trkpt>
      <trkpt lat="46.28342" lon="6.81176">
        <ele>1024</ele>
        <time>2000-01-01T02:31:47.000Z</time>
      </trkpt>
      <trkpt lat="46.28353" lon="6.8114">
        <ele>1024</ele>
        <time>2000-01-01T02:31:57.000Z</time>
      </trkpt>
      <trkpt lat="46.28355" lon="6.81112">
        <ele>1024</ele>
        <time>2000-01-01T02:32:07.000Z</time>
      </trkpt>
      <trkpt lat="46.28361" lon="6.81087">
        <ele>1024.1</ele>
        <time>2000-01-01T02:32:17.000Z</time>
      </trkpt>
      <trkpt lat="46.28371" lon="6.8107">
        <ele>1024</ele>
        <time>2000-01-01T02:32:27.000Z</time>
      </trkpt>
      <trkpt lat="46.28386" lon="6.81061">
        <ele>1024.4</ele>
        <time>2000-01-01T02:32:37.000Z</time>
      </trkpt>
      <trkpt lat="46.28429" lon="6.81062">
        <ele>1024</ele>
        <time>2000-01-01T02:32:47.000Z</time>
      </trkpt>
      <trkpt lat="46.28447" lon="6.81052">
        <ele>1023</ele>
        <time>2000-01-01T02:32:57.000Z</time>
      </trkpt>
      <trkpt lat="46.28461" lon="6.81033">
        <ele>1023</ele>
        <time>2000-01-01T02:33:07.000Z</time>
      </trkpt>
      <trkpt lat="46.28476" lon="6.81001">
        <ele>1021</ele>
        <time>2000-01-01T02:33:17.000Z</time>
      </trkpt>
      <trkpt lat="46.28495" lon="6.80958">
        <ele>1021</ele>
        <time>2000-01-01T02:33:27.000Z</time>
      </trkpt>
      <trkpt lat="46.28517" lon="6.80941">
        <ele>1021</ele>
        <time>2000-01-01T02:33:37.000Z</time>
      </trkpt>
      <trkpt lat="46.28542" lon="6.80922">
        <ele>1020</ele>
        <time>2000-01-01T02:33:47.000Z</time>
      </trkpt>
      <trkpt lat="46.28554" lon="6.80905">
        <ele>1023.2</ele>
        <time>2000-01-01T02:33:57.000Z</time>
      </trkpt>
      <trkpt lat="46.28562" lon="6.80878">
        <ele>1020</ele>
        <time>2000-01-01T02:34:07.000Z</time>
      </trkpt>
      <trkpt lat="46.28565" lon="6.8084">
        <ele>1019</ele>
        <time>2000-01-01T02:34:17.000Z</time>
      </trkpt>
      <trkpt lat="46.28575" lon="6.80789">
        <ele>1018</ele>
        <time>2000-01-01T02:34:27.000Z</time>
      </trkpt>
      <trkpt lat="46.28587" lon="6.8076">
        <ele>1018</ele>
        <time>2000-01-01T02:34:37.000Z</time>
      </trkpt>
      <trkpt lat="46.28609" lon="6.80728">
        <ele>1018</ele>
        <time>2000-01-01T02:34:47.000Z</time>
      </trkpt>
      <trkpt lat="46.28625" lon="6.8072">
        <ele>1018.2</ele>
        <time>2000-01-01T02:34:57.000Z</time>
      </trkpt>
      <trkpt lat="46.28653" lon="6.80728">
        <ele>1018</ele>
        <time>2000-01-01T02:35:07.000Z</time>
      </trkpt>
      <trkpt lat="46.28678" lon="6.80727">
        <ele>1018</ele>
        <time>2000-01-01T02:35:17.000Z</time>
      </trkpt>
      <trkpt lat="46.28716" lon="6.80701">
        <ele>1017</ele>
        <time>2000-01-01T02:35:27.000Z</time>
      </trkpt>
      <trkpt lat="46.2873" lon="6.80708">
        <ele>1017.8</ele>
        <time>2000-01-01T02:35:37.000Z</time>
      </trkpt>
      <trkpt lat="46.28765" lon="6.80656">
        <ele>1016</ele>
        <time>2000-01-01T02:35:47.000Z</time>
      </trkpt>
      <trkpt lat="46.28769" lon="6.80648">
        <ele>1018.4</ele>
        <time>2000-01-01T02:35:57.000Z</time>
      </trkpt>
      <trkpt lat="46.28779" lon="6.80621">
        <ele>1016</ele>
        <time>2000-01-01T02:36:07.000Z</time>
      </trkpt>
      <trkpt lat="46.28772" lon="6.80582">
        <ele>1015</ele>
        <time>2000-01-01T02:36:17.000Z</time>
      </trkpt>
      <trkpt lat="46.28762" lon="6.80522">
        <ele>1015</ele>
        <time>2000-01-01T02:36:27.000Z</time>
      </trkpt>
      <trkpt lat="46.28766" lon="6.80474">
        <ele>1014</ele>
        <time>2000-01-01T02:36:37.000Z</time>
      </trkpt>
      <trkpt lat="46.28806" lon="6.80457">
        <ele>1013</ele>
        <time>2000-01-01T02:36:47.000Z</time>
      </trkpt>
      <trkpt lat="46.28838" lon="6.80448">
        <ele>1012</ele>
        <time>2000-01-01T02:36:57.000Z</time>
      </trkpt>
      <trkpt lat="46.28849" lon="6.80441">
        <ele>1014.9</ele>
        <time>2000-01-01T02:37:07.000Z</time>
      </trkpt>
      <trkpt lat="46.28851" lon="6.80436">
        <ele>1014.9</ele>
        <time>2000-01-01T02:37:17.000Z</time>
      </trkpt>
      <trkpt lat="46.28855" lon="6.80357">
        <ele>1012</ele>
        <time>2000-01-01T02:37:27.000Z</time>
      </trkpt>
      <trkpt lat="46.2885" lon="6.80317">
        <ele>1011</ele>
        <time>2000-01-01T02:37:37.000Z</time>
      </trkpt>
      <trkpt lat="46.28849" lon="6.80272">
        <ele>1011</ele>
        <time>2000-01-01T02:37:47.000Z</time>
      </trkpt>
      <trkpt lat="46.28848" lon="6.80234">
        <ele>1010</ele>
        <time>2000-01-01T02:37:57.000Z</time>
      </trkpt>
      <trkpt lat="46.28847" lon="6.80185">
        <ele>1010</ele>
        <time>2000-01-01T02:38:07.000Z</time>
      </trkpt>
      <trkpt lat="46.28847" lon="6.80147">
        <ele>1010</ele>
        <time>2000-01-01T02:38:17.000Z</time>
      </trkpt>
      <trkpt lat="46.28853" lon="6.80105">
        <ele>1009</ele>
        <time>2000-01-01T02:38:27.000Z</time>
      </trkpt>
      <trkpt lat="46.28867" lon="6.80041">
        <ele>1009</ele>
        <time>2000-01-01T02:38:37.000Z</time>
      </trkpt>
      <trkpt lat="46.28868" lon="6.80001">
        <ele>1009</ele>
        <time>2000-01-01T02:38:47.000Z</time>
      </trkpt>
      <trkpt lat="46.28862" lon="6.79973">
        <ele>1009</ele>
        <time>2000-01-01T02:38:57.000Z</time>
      </trkpt>
      <trkpt lat="46.28842" lon="6.79919">
        <ele>1008</ele>
        <time>2000-01-01T02:39:07.000Z</time>
      </trkpt>
      <trkpt lat="46.28837" lon="6.79897">
        <ele>1008</ele>
        <time>2000-01-01T02:39:17.000Z</time>
      </trkpt>
      <trkpt lat="46.28823" lon="6.79855">
        <ele>1007</ele>
        <time>2000-01-01T02:39:27.000Z</time>
      </trkpt>
      <trkpt lat="46.28827" lon="6.79839">
        <ele>1009.6</ele>
        <time>2000-01-01T02:39:37.000Z</time>
      </trkpt>
      <trkpt lat="46.28837" lon="6.79825">
        <ele>1006</ele>
        <time>2000-01-01T02:39:47.000Z</time>
      </trkpt>
      <trkpt lat="46.28853" lon="6.79817">
        <ele>1007</ele>
        <time>2000-01-01T02:39:57.000Z</time>
      </trkpt>
      <trkpt lat="46.28882" lon="6.79808">
        <ele>1006</ele>
        <time>2000-01-01T02:40:07.000Z</time>
      </trkpt>
      <trkpt lat="46.28911" lon="6.79791">
        <ele>1006</ele>
        <time>2000-01-01T02:40:17.000Z</time>
      </trkpt>
      <trkpt lat="46.28882" lon="6.79808">
        <ele>1006</ele>
        <time>2000-01-01T02:40:27.000Z</time>
      </trkpt>
      <trkpt lat="46.28888" lon="6.79817">
        <ele>1007.4</ele>
        <time>2000-01-01T02:40:37.000Z</time>
      </trkpt>
      <trkpt lat="46.28897" lon="6.79824">
        <ele>1007</ele>
        <time>2000-01-01T02:40:47.000Z</time>
      </trkpt>
      <trkpt lat="46.28904" lon="6.79834">
        <ele>1007.5</ele>
        <time>2000-01-01T02:40:57.000Z</time>
      </trkpt>
      <trkpt lat="46.28958" lon="6.79878">
        <ele>1007</ele>
        <time>2000-01-01T02:41:07.000Z</time>
      </trkpt>
      <trkpt lat="46.28986" lon="6.799">
        <ele>1007</ele>
        <time>2000-01-01T02:41:17.000Z</time>
      </trkpt>
      <trkpt lat="46.28999" lon="6.79901">
        <ele>1008</ele>
        <time>2000-01-01T02:41:27.000Z</time>
      </trkpt>
      <trkpt lat="46.29093" lon="6.79979">
        <ele>1008</ele>
        <time>2000-01-01T02:41:37.000Z</time>
      </trkpt>
      <trkpt lat="46.29113" lon="6.79997">
        <ele>1009</ele>
        <time>2000-01-01T02:41:47.000Z</time>
      </trkpt>
      <trkpt lat="46.29134" lon="6.80016">
        <ele>1010</ele>
        <time>2000-01-01T02:41:57.000Z</time>
      </trkpt>
      <trkpt lat="46.29144" lon="6.80019">
        <ele>1010.9</ele>
        <time>2000-01-01T02:42:07.000Z</time>
      </trkpt>
      <trkpt lat="46.29155" lon="6.80012">
        <ele>1010</ele>
        <time>2000-01-01T02:42:17.000Z</time>
      </trkpt>
      <trkpt lat="46.29176" lon="6.79965">
        <ele>1010</ele>
        <time>2000-01-01T02:42:27.000Z</time>
      </trkpt>
      <trkpt lat="46.29187" lon="6.79961">
        <ele>1011.6</ele>
        <time>2000-01-01T02:42:37.000Z</time>
      </trkpt>
      <trkpt lat="46.29198" lon="6.79965">
        <ele>1011</ele>
        <time>2000-01-01T02:42:47.000Z</time>
      </trkpt>
      <trkpt lat="46.29212" lon="6.79935">
        <ele>1011</ele>
        <time>2000-01-01T02:42:57.000Z</time>
      </trkpt>
      <trkpt lat="46.29228" lon="6.79906">
        <ele>1011</ele>
        <time>2000-01-01T02:43:07.000Z</time>
      </trkpt>
      <trkpt lat="46.29249" lon="6.7987">
        <ele>1011</ele>
        <time>2000-01-01T02:43:17.000Z</time>
      </trkpt>
      <trkpt lat="46.29229" lon="6.7985">
        <ele>1011</ele>
        <time>2000-01-01T02:43:27.000Z</time>
      </trkpt>
      <trkpt lat="46.29223" lon="6.79847">
        <ele>1012</ele>
        <time>2000-01-01T02:43:37.000Z</time>
      </trkpt>
      <trkpt lat="46.29229" lon="6.7985">
        <ele>1012</ele>
        <time>2000-01-01T02:43:47.000Z</time>
      </trkpt>
      <trkpt lat="46.29249" lon="6.7987">
        <ele>1011</ele>
        <time>2000-01-01T02:43:57.000Z</time>
      </trkpt>
      <trkpt lat="46.29265" lon="6.79836">
        <ele>1012</ele>
        <time>2000-01-01T02:44:07.000Z</time>
      </trkpt>
      <trkpt lat="46.29277" lon="6.79792">
        <ele>1012</ele>
        <time>2000-01-01T02:44:17.000Z</time>
      </trkpt>
      <trkpt lat="46.29289" lon="6.79748">
        <ele>1013</ele>
        <time>2000-01-01T02:44:27.000Z</time>
      </trkpt>
      <trkpt lat="46.29305" lon="6.79688">
        <ele>1013</ele>
        <time>2000-01-01T02:44:37.000Z</time>
      </trkpt>
      <trkpt lat="46.29315" lon="6.79652">
        <ele>1013</ele>
        <time>2000-01-01T02:44:47.000Z</time>
      </trkpt>
      <trkpt lat="46.29328" lon="6.79605">
        <ele>1014</ele>
        <time>2000-01-01T02:44:57.000Z</time>
      </trkpt>
      <trkpt lat="46.2934" lon="6.79548">
        <ele>1018</ele>
        <time>2000-01-01T02:45:07.000Z</time>
      </trkpt>
      <trkpt lat="46.29345" lon="6.79547">
        <ele>1020</ele>
        <time>2000-01-01T02:45:17.000Z</time>
      </trkpt>
      <trkpt lat="46.29398" lon="6.79441">
        <ele>1025</ele>
        <time>2000-01-01T02:45:27.000Z</time>
      </trkpt>
      <trkpt lat="46.29409" lon="6.79429">
        <ele>1026.6</ele>
        <time>2000-01-01T02:45:37.000Z</time>
      </trkpt>
      <trkpt lat="46.2944" lon="6.79468">
        <ele>1030</ele>
        <time>2000-01-01T02:45:47.000Z</time>
      </trkpt>
      <trkpt lat="46.29454" lon="6.7948">
        <ele>1034.8</ele>
        <time>2000-01-01T02:45:57.000Z</time>
      </trkpt>
      <trkpt lat="46.29459" lon="6.79483">
        <ele>1034</ele>
        <time>2000-01-01T02:46:07.000Z</time>
      </trkpt>
      <trkpt lat="46.29497" lon="6.79499">
        <ele>1041</ele>
        <time>2000-01-01T02:46:17.000Z</time>
      </trkpt>
      <trkpt lat="46.29499" lon="6.79528">
        <ele>1043</ele>
        <time>2000-01-01T02:46:27.000Z</time>
      </trkpt>
      <trkpt lat="46.29499" lon="6.79531">
        <ele>1044.3</ele>
        <time>2000-01-01T02:46:37.000Z</time>
      </trkpt>
      <trkpt lat="46.29497" lon="6.79541">
        <ele>1045.6</ele>
        <time>2000-01-01T02:46:47.000Z</time>
      </trkpt>
      <trkpt lat="46.29492" lon="6.79549">
        <ele>1046.6</ele>
        <time>2000-01-01T02:46:57.000Z</time>
      </trkpt>
      <trkpt lat="46.29455" lon="6.79564">
        <ele>1045</ele>
        <time>2000-01-01T02:47:07.000Z</time>
      </trkpt>
      <trkpt lat="46.29448" lon="6.79575">
        <ele>1050.7</ele>
        <time>2000-01-01T02:47:17.000Z</time>
      </trkpt>
      <trkpt lat="46.29445" lon="6.79587">
        <ele>1048</ele>
        <time>2000-01-01T02:47:27.000Z</time>
      </trkpt>
      <trkpt lat="46.29445" lon="6.79638">
        <ele>1054</ele>
        <time>2000-01-01T02:47:37.000Z</time>
      </trkpt>
      <trkpt lat="46.29445" lon="6.7969">
        <ele>1057</ele>
        <time>2000-01-01T02:47:47.000Z</time>
      </trkpt>
      <trkpt lat="46.29445" lon="6.79741">
        <ele>1063</ele>
        <time>2000-01-01T02:47:57.000Z</time>
      </trkpt>
      <trkpt lat="46.29445" lon="6.79805">
        <ele>1068</ele>
        <time>2000-01-01T02:48:07.000Z</time>
      </trkpt>
      <trkpt lat="46.29444" lon="6.79869">
        <ele>1072</ele>
        <time>2000-01-01T02:48:17.000Z</time>
      </trkpt>
      <trkpt lat="46.29441" lon="6.79879">
        <ele>1076.2</ele>
        <time>2000-01-01T02:48:27.000Z</time>
      </trkpt>
      <trkpt lat="46.29418" lon="6.79924">
        <ele>1079</ele>
        <time>2000-01-01T02:48:37.000Z</time>
      </trkpt>
      <trkpt lat="46.29412" lon="6.79948">
        <ele>1082.4</ele>
        <time>2000-01-01T02:48:47.000Z</time>
      </trkpt>
      <trkpt lat="46.29412" lon="6.79961">
        <ele>1083</ele>
        <time>2000-01-01T02:48:57.000Z</time>
      </trkpt>
      <trkpt lat="46.29414" lon="6.79973">
        <ele>1084.5</ele>
        <time>2000-01-01T02:49:07.000Z</time>
      </trkpt>
      <trkpt lat="46.29416" lon="6.79976">
        <ele>1085.1</ele>
        <time>2000-01-01T02:49:17.000Z</time>
      </trkpt>
      <trkpt lat="46.29422" lon="6.7998">
        <ele>1086.6</ele>
        <time>2000-01-01T02:49:27.000Z</time>
      </trkpt>
      <trkpt lat="46.29432" lon="6.79975">
        <ele>1086</ele>
        <time>2000-01-01T02:49:37.000Z</time>
      </trkpt>
      <trkpt lat="46.29455" lon="6.79937">
        <ele>1087</ele>
        <time>2000-01-01T02:49:47.000Z</time>
      </trkpt>
      <trkpt lat="46.29466" lon="6.79925">
        <ele>1091.5</ele>
        <time>2000-01-01T02:49:57.000Z</time>
      </trkpt>
      <trkpt lat="46.29497" lon="6.799">
        <ele>1090</ele>
        <time>2000-01-01T02:50:07.000Z</time>
      </trkpt>
      <trkpt lat="46.29506" lon="6.79902">
        <ele>1096</ele>
        <time>2000-01-01T02:50:17.000Z</time>
      </trkpt>
      <trkpt lat="46.29511" lon="6.79908">
        <ele>1097.7</ele>
        <time>2000-01-01T02:50:27.000Z</time>
      </trkpt>
      <trkpt lat="46.29513" lon="6.79918">
        <ele>1097</ele>
        <time>2000-01-01T02:50:37.000Z</time>
      </trkpt>
      <trkpt lat="46.29511" lon="6.79928">
        <ele>1101.2</ele>
        <time>2000-01-01T02:50:47.000Z</time>
      </trkpt>
      <trkpt lat="46.29492" lon="6.79958">
        <ele>1101</ele>
        <time>2000-01-01T02:50:57.000Z</time>
      </trkpt>
      <trkpt lat="46.29489" lon="6.7998">
        <ele>1104</ele>
        <time>2000-01-01T02:51:07.000Z</time>
      </trkpt>
      <trkpt lat="46.29484" lon="6.80058">
        <ele>1110</ele>
        <time>2000-01-01T02:51:17.000Z</time>
      </trkpt>
      <trkpt lat="46.29481" lon="6.8009">
        <ele>1113</ele>
        <time>2000-01-01T02:51:27.000Z</time>
      </trkpt>
      <trkpt lat="46.29476" lon="6.80116">
        <ele>1116</ele>
        <time>2000-01-01T02:51:37.000Z</time>
      </trkpt>
      <trkpt lat="46.29458" lon="6.8017">
        <ele>1119</ele>
        <time>2000-01-01T02:51:47.000Z</time>
      </trkpt>
      <trkpt lat="46.29442" lon="6.80222">
        <ele>1127</ele>
        <time>2000-01-01T02:51:57.000Z</time>
      </trkpt>
      <trkpt lat="46.29439" lon="6.80257">
        <ele>1128</ele>
        <time>2000-01-01T02:52:07.000Z</time>
      </trkpt>
      <trkpt lat="46.29436" lon="6.80294">
        <ele>1135</ele>
        <time>2000-01-01T02:52:17.000Z</time>
      </trkpt>
      <trkpt lat="46.29433" lon="6.8034">
        <ele>1139</ele>
        <time>2000-01-01T02:52:27.000Z</time>
      </trkpt>
      <trkpt lat="46.2943" lon="6.80391">
        <ele>1143</ele>
        <time>2000-01-01T02:52:37.000Z</time>
      </trkpt>
      <trkpt lat="46.29429" lon="6.80435">
        <ele>1146</ele>
        <time>2000-01-01T02:52:47.000Z</time>
      </trkpt>
      <trkpt lat="46.29429" lon="6.80473">
        <ele>1150</ele>
        <time>2000-01-01T02:52:57.000Z</time>
      </trkpt>
      <trkpt lat="46.29428" lon="6.80521">
        <ele>1156</ele>
        <time>2000-01-01T02:53:07.000Z</time>
      </trkpt>
      <trkpt lat="46.29429" lon="6.8055">
        <ele>1156</ele>
        <time>2000-01-01T02:53:17.000Z</time>
      </trkpt>
      <trkpt lat="46.29429" lon="6.80586">
        <ele>1159</ele>
        <time>2000-01-01T02:53:27.000Z</time>
      </trkpt>
      <trkpt lat="46.29424" lon="6.8062">
        <ele>1163</ele>
        <time>2000-01-01T02:53:37.000Z</time>
      </trkpt>
      <trkpt lat="46.2941" lon="6.80675">
        <ele>1165</ele>
        <time>2000-01-01T02:53:47.000Z</time>
      </trkpt>
      <trkpt lat="46.29414" lon="6.80681">
        <ele>1170.1</ele>
        <time>2000-01-01T02:53:57.000Z</time>
      </trkpt>
      <trkpt lat="46.2942" lon="6.80679">
        <ele>1172.3</ele>
        <time>2000-01-01T02:54:07.000Z</time>
      </trkpt>
      <trkpt lat="46.29433" lon="6.80646">
        <ele>1172</ele>
        <time>2000-01-01T02:54:17.000Z</time>
      </trkpt>
      <trkpt lat="46.29463" lon="6.80599">
        <ele>1175</ele>
        <time>2000-01-01T02:54:27.000Z</time>
      </trkpt>
      <trkpt lat="46.29481" lon="6.80574">
        <ele>1180</ele>
        <time>2000-01-01T02:54:37.000Z</time>
      </trkpt>
      <trkpt lat="46.29501" lon="6.80545">
        <ele>1183</ele>
        <time>2000-01-01T02:54:47.000Z</time>
      </trkpt>
      <trkpt lat="46.2952" lon="6.80525">
        <ele>1184</ele>
        <time>2000-01-01T02:54:57.000Z</time>
      </trkpt>
      <trkpt lat="46.29551" lon="6.8051">
        <ele>1186</ele>
        <time>2000-01-01T02:55:07.000Z</time>
      </trkpt>
      <trkpt lat="46.29573" lon="6.80494">
        <ele>1190</ele>
        <time>2000-01-01T02:55:17.000Z</time>
      </trkpt>
      <trkpt lat="46.2959" lon="6.80461">
        <ele>1196</ele>
        <time>2000-01-01T02:55:27.000Z</time>
      </trkpt>
      <trkpt lat="46.29617" lon="6.80409">
        <ele>1196</ele>
        <time>2000-01-01T02:55:37.000Z</time>
      </trkpt>
      <trkpt lat="46.29634" lon="6.80379">
        <ele>1198</ele>
        <time>2000-01-01T02:55:47.000Z</time>
      </trkpt>
      <trkpt lat="46.29655" lon="6.80339">
        <ele>1202</ele>
        <time>2000-01-01T02:55:57.000Z</time>
      </trkpt>
      <trkpt lat="46.29668" lon="6.80306">
        <ele>1202</ele>
        <time>2000-01-01T02:56:07.000Z</time>
      </trkpt>
      <trkpt lat="46.29686" lon="6.80264">
        <ele>1210</ele>
        <time>2000-01-01T02:56:17.000Z</time>
      </trkpt>
      <trkpt lat="46.29703" lon="6.80229">
        <ele>1211</ele>
        <time>2000-01-01T02:56:27.000Z</time>
      </trkpt>
      <trkpt lat="46.29719" lon="6.802">
        <ele>1212</ele>
        <time>2000-01-01T02:56:37.000Z</time>
      </trkpt>
      <trkpt lat="46.2973" lon="6.80172">
        <ele>1214</ele>
        <time>2000-01-01T02:56:47.000Z</time>
      </trkpt>
      <trkpt lat="46.29739" lon="6.80127">
        <ele>1220</ele>
        <time>2000-01-01T02:56:57.000Z</time>
      </trkpt>
      <trkpt lat="46.29748" lon="6.80088">
        <ele>1223</ele>
        <time>2000-01-01T02:57:07.000Z</time>
      </trkpt>
      <trkpt lat="46.29761" lon="6.80028">
        <ele>1233</ele>
        <time>2000-01-01T02:57:17.000Z</time>
      </trkpt>
      <trkpt lat="46.29774" lon="6.79998">
        <ele>1233</ele>
        <time>2000-01-01T02:57:27.000Z</time>
      </trkpt>
      <trkpt lat="46.29788" lon="6.79966">
        <ele>1233</ele>
        <time>2000-01-01T02:57:37.000Z</time>
      </trkpt>
      <trkpt lat="46.29798" lon="6.79927">
        <ele>1236</ele>
        <time>2000-01-01T02:57:47.000Z</time>
      </trkpt>
      <trkpt lat="46.29802" lon="6.7992">
        <ele>1239.8</ele>
        <time>2000-01-01T02:57:57.000Z</time>
      </trkpt>
      <trkpt lat="46.29809" lon="6.79917">
        <ele>1242.1</ele>
        <time>2000-01-01T02:58:07.000Z</time>
      </trkpt>
      <trkpt lat="46.29815" lon="6.79922">
        <ele>1238</ele>
        <time>2000-01-01T02:58:17.000Z</time>
      </trkpt>
      <trkpt lat="46.29817" lon="6.79936">
        <ele>1245.4</ele>
        <time>2000-01-01T02:58:27.000Z</time>
      </trkpt>
      <trkpt lat="46.298" lon="6.79989">
        <ele>1240</ele>
        <time>2000-01-01T02:58:37.000Z</time>
      </trkpt>
      <trkpt lat="46.29793" lon="6.80028">
        <ele>1246</ele>
        <time>2000-01-01T02:58:47.000Z</time>
      </trkpt>
      <trkpt lat="46.29784" lon="6.80087">
        <ele>1249</ele>
        <time>2000-01-01T02:58:57.000Z</time>
      </trkpt>
      <trkpt lat="46.29783" lon="6.80125">
        <ele>1252</ele>
        <time>2000-01-01T02:59:07.000Z</time>
      </trkpt>
      <trkpt lat="46.29782" lon="6.80176">
        <ele>1258</ele>
        <time>2000-01-01T02:59:17.000Z</time>
      </trkpt>
      <trkpt lat="46.29784" lon="6.80211">
        <ele>1259</ele>
        <time>2000-01-01T02:59:27.000Z</time>
      </trkpt>
      <trkpt lat="46.29787" lon="6.80251">
        <ele>1261</ele>
        <time>2000-01-01T02:59:37.000Z</time>
      </trkpt>
      <trkpt lat="46.29786" lon="6.80272">
        <ele>1268.4</ele>
        <time>2000-01-01T02:59:47.000Z</time>
      </trkpt>
      <trkpt lat="46.2978" lon="6.80309">
        <ele>1266</ele>
        <time>2000-01-01T02:59:57.000Z</time>
      </trkpt>
      <trkpt lat="46.29768" lon="6.80357">
        <ele>1269</ele>
        <time>2000-01-01T03:00:07.000Z</time>
      </trkpt>
      <trkpt lat="46.29756" lon="6.80406">
        <ele>1273</ele>
        <time>2000-01-01T03:00:17.000Z</time>
      </trkpt>
      <trkpt lat="46.29743" lon="6.80454">
        <ele>1282</ele>
        <time>2000-01-01T03:00:27.000Z</time>
      </trkpt>
      <trkpt lat="46.29728" lon="6.80516">
        <ele>1285</ele>
        <time>2000-01-01T03:00:37.000Z</time>
      </trkpt>
      <trkpt lat="46.29719" lon="6.8055">
        <ele>1289</ele>
        <time>2000-01-01T03:00:47.000Z</time>
      </trkpt>
      <trkpt lat="46.29708" lon="6.80592">
        <ele>1292</ele>
        <time>2000-01-01T03:00:57.000Z</time>
      </trkpt>
      <trkpt lat="46.29696" lon="6.80622">
        <ele>1294</ele>
        <time>2000-01-01T03:01:07.000Z</time>
      </trkpt>
      <trkpt lat="46.29682" lon="6.80655">
        <ele>1298</ele>
        <time>2000-01-01T03:01:17.000Z</time>
      </trkpt>
      <trkpt lat="46.29671" lon="6.80713">
        <ele>1304</ele>
        <time>2000-01-01T03:01:27.000Z</time>
      </trkpt>
      <trkpt lat="46.29656" lon="6.80745">
        <ele>1304</ele>
        <time>2000-01-01T03:01:37.000Z</time>
      </trkpt>
      <trkpt lat="46.29638" lon="6.80786">
        <ele>1306</ele>
        <time>2000-01-01T03:01:47.000Z</time>
      </trkpt>
      <trkpt lat="46.29635" lon="6.80802">
        <ele>1309</ele>
        <time>2000-01-01T03:01:57.000Z</time>
      </trkpt>
      <trkpt lat="46.29638" lon="6.80818">
        <ele>1310</ele>
        <time>2000-01-01T03:02:07.000Z</time>
      </trkpt>
      <trkpt lat="46.29643" lon="6.8083">
        <ele>1313.5</ele>
        <time>2000-01-01T03:02:17.000Z</time>
      </trkpt>
      <trkpt lat="46.2969" lon="6.80891">
        <ele>1317</ele>
        <time>2000-01-01T03:02:27.000Z</time>
      </trkpt>
      <trkpt lat="46.29709" lon="6.80923">
        <ele>1322</ele>
        <time>2000-01-01T03:02:37.000Z</time>
      </trkpt>
      <trkpt lat="46.29725" lon="6.80957">
        <ele>1326</ele>
        <time>2000-01-01T03:02:47.000Z</time>
      </trkpt>
      <trkpt lat="46.29734" lon="6.80987">
        <ele>1327</ele>
        <time>2000-01-01T03:02:57.000Z</time>
      </trkpt>
      <trkpt lat="46.2974" lon="6.81039">
        <ele>1329</ele>
        <time>2000-01-01T03:03:07.000Z</time>
      </trkpt>
      <trkpt lat="46.29749" lon="6.81046">
        <ele>1334.8</ele>
        <time>2000-01-01T03:03:17.000Z</time>
      </trkpt>
      <trkpt lat="46.29756" lon="6.81041">
        <ele>1337.1</ele>
        <time>2000-01-01T03:03:27.000Z</time>
      </trkpt>
      <trkpt lat="46.29759" lon="6.8103">
        <ele>1336</ele>
        <time>2000-01-01T03:03:37.000Z</time>
      </trkpt>
      <trkpt lat="46.29753" lon="6.80998">
        <ele>1338</ele>
        <time>2000-01-01T03:03:47.000Z</time>
      </trkpt>
      <trkpt lat="46.29752" lon="6.80977">
        <ele>1339.5</ele>
        <time>2000-01-01T03:03:57.000Z</time>
      </trkpt>
      <trkpt lat="46.29757" lon="6.80921">
        <ele>1340</ele>
        <time>2000-01-01T03:04:07.000Z</time>
      </trkpt>
      <trkpt lat="46.29757" lon="6.80901">
        <ele>1346.3</ele>
        <time>2000-01-01T03:04:17.000Z</time>
      </trkpt>
      <trkpt lat="46.29755" lon="6.80878">
        <ele>1347</ele>
        <time>2000-01-01T03:04:27.000Z</time>
      </trkpt>
      <trkpt lat="46.29747" lon="6.80853">
        <ele>1347</ele>
        <time>2000-01-01T03:04:37.000Z</time>
      </trkpt>
      <trkpt lat="46.29734" lon="6.80822">
        <ele>1348</ele>
        <time>2000-01-01T03:04:47.000Z</time>
      </trkpt>
      <trkpt lat="46.2972" lon="6.80795">
        <ele>1350</ele>
        <time>2000-01-01T03:04:57.000Z</time>
      </trkpt>
      <trkpt lat="46.29717" lon="6.80785">
        <ele>1353.4</ele>
        <time>2000-01-01T03:05:07.000Z</time>
      </trkpt>
      <trkpt lat="46.29717" lon="6.80776">
        <ele>1354.2</ele>
        <time>2000-01-01T03:05:17.000Z</time>
      </trkpt>
      <trkpt lat="46.29719" lon="6.8077">
        <ele>1354.9</ele>
        <time>2000-01-01T03:05:27.000Z</time>
      </trkpt>
      <trkpt lat="46.29723" lon="6.80766">
        <ele>1356</ele>
        <time>2000-01-01T03:05:37.000Z</time>
      </trkpt>
      <trkpt lat="46.2973" lon="6.80768">
        <ele>1359.3</ele>
        <time>2000-01-01T03:05:47.000Z</time>
      </trkpt>
      <trkpt lat="46.29742" lon="6.80806">
        <ele>1360</ele>
        <time>2000-01-01T03:05:57.000Z</time>
      </trkpt>
      <trkpt lat="46.29764" lon="6.80834">
        <ele>1364</ele>
        <time>2000-01-01T03:06:07.000Z</time>
      </trkpt>
      <trkpt lat="46.29781" lon="6.80856">
        <ele>1366</ele>
        <time>2000-01-01T03:06:17.000Z</time>
      </trkpt>
      <trkpt lat="46.298" lon="6.8088">
        <ele>1369</ele>
        <time>2000-01-01T03:06:27.000Z</time>
      </trkpt>
      <trkpt lat="46.29816" lon="6.80908">
        <ele>1371</ele>
        <time>2000-01-01T03:06:37.000Z</time>
      </trkpt>
      <trkpt lat="46.2983" lon="6.80945">
        <ele>1378</ele>
        <time>2000-01-01T03:06:47.000Z</time>
      </trkpt>
      <trkpt lat="46.29843" lon="6.80976">
        <ele>1381</ele>
        <time>2000-01-01T03:06:57.000Z</time>
      </trkpt>
      <trkpt lat="46.29856" lon="6.81011">
        <ele>1384</ele>
        <time>2000-01-01T03:07:07.000Z</time>
      </trkpt>
      <trkpt lat="46.29874" lon="6.81048">
        <ele>1388</ele>
        <time>2000-01-01T03:07:17.000Z</time>
      </trkpt>
      <trkpt lat="46.29892" lon="6.81085">
        <ele>1394</ele>
        <time>2000-01-01T03:07:27.000Z</time>
      </trkpt>
      <trkpt lat="46.2991" lon="6.81122">
        <ele>1395</ele>
        <time>2000-01-01T03:07:37.000Z</time>
      </trkpt>
      <trkpt lat="46.29924" lon="6.81153">
        <ele>1401</ele>
        <time>2000-01-01T03:07:47.000Z</time>
      </trkpt>
      <trkpt lat="46.29939" lon="6.81188">
        <ele>1404</ele>
        <time>2000-01-01T03:07:57.000Z</time>
      </trkpt>
      <trkpt lat="46.29954" lon="6.8122">
        <ele>1410</ele>
        <time>2000-01-01T03:08:07.000Z</time>
      </trkpt>
      <trkpt lat="46.29974" lon="6.81262">
        <ele>1416</ele>
        <time>2000-01-01T03:08:17.000Z</time>
      </trkpt>
      <trkpt lat="46.29996" lon="6.81279">
        <ele>1419</ele>
        <time>2000-01-01T03:08:27.000Z</time>
      </trkpt>
      <trkpt lat="46.30023" lon="6.81299">
        <ele>1424</ele>
        <time>2000-01-01T03:08:37.000Z</time>
      </trkpt>
      <trkpt lat="46.30038" lon="6.81321">
        <ele>1425</ele>
        <time>2000-01-01T03:08:47.000Z</time>
      </trkpt>
      <trkpt lat="46.30056" lon="6.81346">
        <ele>1430</ele>
        <time>2000-01-01T03:08:57.000Z</time>
      </trkpt>
      <trkpt lat="46.3008" lon="6.81403">
        <ele>1434</ele>
        <time>2000-01-01T03:09:07.000Z</time>
      </trkpt>
      <trkpt lat="46.30089" lon="6.81452">
        <ele>1434</ele>
        <time>2000-01-01T03:09:17.000Z</time>
      </trkpt>
      <trkpt lat="46.30095" lon="6.81459">
        <ele>1436.4</ele>
        <time>2000-01-01T03:09:27.000Z</time>
      </trkpt>
      <trkpt lat="46.30101" lon="6.81458">
        <ele>1437.9</ele>
        <time>2000-01-01T03:09:37.000Z</time>
      </trkpt>
      <trkpt lat="46.30106" lon="6.81452">
        <ele>1440</ele>
        <time>2000-01-01T03:09:47.000Z</time>
      </trkpt>
      <trkpt lat="46.30109" lon="6.81443">
        <ele>1442.6</ele>
        <time>2000-01-01T03:09:57.000Z</time>
      </trkpt>
      <trkpt lat="46.30111" lon="6.814">
        <ele>1445</ele>
        <time>2000-01-01T03:10:07.000Z</time>
      </trkpt>
      <trkpt lat="46.30122" lon="6.81335">
        <ele>1450</ele>
        <time>2000-01-01T03:10:17.000Z</time>
      </trkpt>
      <trkpt lat="46.3012" lon="6.81303">
        <ele>1451</ele>
        <time>2000-01-01T03:10:27.000Z</time>
      </trkpt>
      <trkpt lat="46.30117" lon="6.8129">
        <ele>1454.5</ele>
        <time>2000-01-01T03:10:37.000Z</time>
      </trkpt>
      <trkpt lat="46.30106" lon="6.81272">
        <ele>1456</ele>
        <time>2000-01-01T03:10:47.000Z</time>
      </trkpt>
      <trkpt lat="46.30098" lon="6.81262">
        <ele>1456.3</ele>
        <time>2000-01-01T03:10:57.000Z</time>
      </trkpt>
      <trkpt lat="46.30093" lon="6.81247">
        <ele>1457</ele>
        <time>2000-01-01T03:11:07.000Z</time>
      </trkpt>
      <trkpt lat="46.30089" lon="6.81209">
        <ele>1458</ele>
        <time>2000-01-01T03:11:17.000Z</time>
      </trkpt>
      <trkpt lat="46.30084" lon="6.81181">
        <ele>1462</ele>
        <time>2000-01-01T03:11:27.000Z</time>
      </trkpt>
      <trkpt lat="46.30088" lon="6.81169">
        <ele>1465.2</ele>
        <time>2000-01-01T03:11:37.000Z</time>
      </trkpt>
      <trkpt lat="46.30097" lon="6.81166">
        <ele>1466.5</ele>
        <time>2000-01-01T03:11:47.000Z</time>
      </trkpt>
      <trkpt lat="46.30102" lon="6.8117">
        <ele>1463</ele>
        <time>2000-01-01T03:11:57.000Z</time>
      </trkpt>
      <trkpt lat="46.30109" lon="6.81207">
        <ele>1465</ele>
        <time>2000-01-01T03:12:07.000Z</time>
      </trkpt>
      <trkpt lat="46.30121" lon="6.81227">
        <ele>1468.5</ele>
        <time>2000-01-01T03:12:17.000Z</time>
      </trkpt>
      <trkpt lat="46.30132" lon="6.81233">
        <ele>1471</ele>
        <time>2000-01-01T03:12:27.000Z</time>
      </trkpt>
      <trkpt lat="46.30156" lon="6.81228">
        <ele>1473</ele>
        <time>2000-01-01T03:12:37.000Z</time>
      </trkpt>
      <trkpt lat="46.3016" lon="6.81229">
        <ele>1475.5</ele>
        <time>2000-01-01T03:12:47.000Z</time>
      </trkpt>
      <trkpt lat="46.30169" lon="6.81239">
        <ele>1477.6</ele>
        <time>2000-01-01T03:12:57.000Z</time>
      </trkpt>
      <trkpt lat="46.30185" lon="6.81265">
        <ele>1479</ele>
        <time>2000-01-01T03:13:07.000Z</time>
      </trkpt>
      <trkpt lat="46.30204" lon="6.8129">
        <ele>1481</ele>
        <time>2000-01-01T03:13:17.000Z</time>
      </trkpt>
      <trkpt lat="46.30228" lon="6.81319">
        <ele>1484</ele>
        <time>2000-01-01T03:13:27.000Z</time>
      </trkpt>
      <trkpt lat="46.30261" lon="6.8134">
        <ele>1489</ele>
        <time>2000-01-01T03:13:37.000Z</time>
      </trkpt>
      <trkpt lat="46.30276" lon="6.81374">
        <ele>1492</ele>
        <time>2000-01-01T03:13:47.000Z</time>
      </trkpt>
      <trkpt lat="46.30284" lon="6.81384">
        <ele>1494.5</ele>
        <time>2000-01-01T03:13:57.000Z</time>
      </trkpt>
      <trkpt lat="46.30335" lon="6.81424">
        <ele>1500</ele>
        <time>2000-01-01T03:14:07.000Z</time>
      </trkpt>
      <trkpt lat="46.30347" lon="6.81438">
        <ele>1499.7</ele>
        <time>2000-01-01T03:14:17.000Z</time>
      </trkpt>
      <trkpt lat="46.30366" lon="6.81479">
        <ele>1505</ele>
        <time>2000-01-01T03:14:27.000Z</time>
      </trkpt>
      <trkpt lat="46.30373" lon="6.81504">
        <ele>1508.4</ele>
        <time>2000-01-01T03:14:37.000Z</time>
      </trkpt>
      <trkpt lat="46.3038" lon="6.81544">
        <ele>1508</ele>
        <time>2000-01-01T03:14:47.000Z</time>
      </trkpt>
      <trkpt lat="46.30388" lon="6.81546">
        <ele>1512.7</ele>
        <time>2000-01-01T03:14:57.000Z</time>
      </trkpt>
      <trkpt lat="46.30392" lon="6.81543">
        <ele>1514.7</ele>
        <time>2000-01-01T03:15:07.000Z</time>
      </trkpt>
      <trkpt lat="46.30395" lon="6.81537">
        <ele>1516.4</ele>
        <time>2000-01-01T03:15:17.000Z</time>
      </trkpt>
      <trkpt lat="46.30389" lon="6.81497">
        <ele>1510</ele>
        <time>2000-01-01T03:15:27.000Z</time>
      </trkpt>
      <trkpt lat="46.30387" lon="6.81451">
        <ele>1516</ele>
        <time>2000-01-01T03:15:37.000Z</time>
      </trkpt>
      <trkpt lat="46.30394" lon="6.81441">
        <ele>1521.3</ele>
        <time>2000-01-01T03:15:47.000Z</time>
      </trkpt>
      <trkpt lat="46.30402" lon="6.81445">
        <ele>1524.3</ele>
        <time>2000-01-01T03:15:57.000Z</time>
      </trkpt>
      <trkpt lat="46.30404" lon="6.81454">
        <ele>1521</ele>
        <time>2000-01-01T03:16:07.000Z</time>
      </trkpt>
      <trkpt lat="46.30403" lon="6.81484">
        <ele>1523</ele>
        <time>2000-01-01T03:16:17.000Z</time>
      </trkpt>
      <trkpt lat="46.30412" lon="6.81521">
        <ele>1525</ele>
        <time>2000-01-01T03:16:27.000Z</time>
      </trkpt>
      <trkpt lat="46.30425" lon="6.8157">
        <ele>1530</ele>
        <time>2000-01-01T03:16:37.000Z</time>
      </trkpt>
      <trkpt lat="46.30429" lon="6.81617">
        <ele>1532</ele>
        <time>2000-01-01T03:16:47.000Z</time>
      </trkpt>
      <trkpt lat="46.30432" lon="6.81626">
        <ele>1534.2</ele>
        <time>2000-01-01T03:16:57.000Z</time>
      </trkpt>
      <trkpt lat="46.3044" lon="6.81627">
        <ele>1536.6</ele>
        <time>2000-01-01T03:17:07.000Z</time>
      </trkpt>
      <trkpt lat="46.30446" lon="6.81617">
        <ele>1537</ele>
        <time>2000-01-01T03:17:17.000Z</time>
      </trkpt>
      <trkpt lat="46.30445" lon="6.81578">
        <ele>1538</ele>
        <time>2000-01-01T03:17:27.000Z</time>
      </trkpt>
      <trkpt lat="46.30457" lon="6.81531">
        <ele>1543</ele>
        <time>2000-01-01T03:17:37.000Z</time>
      </trkpt>
      <trkpt lat="46.30458" lon="6.81516">
        <ele>1545.2</ele>
        <time>2000-01-01T03:17:47.000Z</time>
      </trkpt>
      <trkpt lat="46.30451" lon="6.81429">
        <ele>1552</ele>
        <time>2000-01-01T03:17:57.000Z</time>
      </trkpt>
      <trkpt lat="46.30454" lon="6.81414">
        <ele>1550.3</ele>
        <time>2000-01-01T03:18:07.000Z</time>
      </trkpt>
      <trkpt lat="46.30463" lon="6.81412">
        <ele>1551</ele>
        <time>2000-01-01T03:18:17.000Z</time>
      </trkpt>
      <trkpt lat="46.30468" lon="6.81418">
        <ele>1554</ele>
        <time>2000-01-01T03:18:27.000Z</time>
      </trkpt>
      <trkpt lat="46.3047" lon="6.81458">
        <ele>1554</ele>
        <time>2000-01-01T03:18:37.000Z</time>
      </trkpt>
      <trkpt lat="46.30476" lon="6.8148">
        <ele>1556.3</ele>
        <time>2000-01-01T03:18:47.000Z</time>
      </trkpt>
      <trkpt lat="46.30488" lon="6.81508">
        <ele>1557</ele>
        <time>2000-01-01T03:18:57.000Z</time>
      </trkpt>
      <trkpt lat="46.30512" lon="6.81542">
        <ele>1563</ele>
        <time>2000-01-01T03:19:07.000Z</time>
      </trkpt>
      <trkpt lat="46.30514" lon="6.81554">
        <ele>1565.1</ele>
        <time>2000-01-01T03:19:17.000Z</time>
      </trkpt>
      <trkpt lat="46.30516" lon="6.81583">
        <ele>1565</ele>
        <time>2000-01-01T03:19:27.000Z</time>
      </trkpt>
      <trkpt lat="46.30525" lon="6.81639">
        <ele>1568</ele>
        <time>2000-01-01T03:19:37.000Z</time>
      </trkpt>
      <trkpt lat="46.30527" lon="6.81701">
        <ele>1571</ele>
        <time>2000-01-01T03:19:47.000Z</time>
      </trkpt>
      <trkpt lat="46.3053" lon="6.81726">
        <ele>1576.9</ele>
        <time>2000-01-01T03:19:57.000Z</time>
      </trkpt>
      <trkpt lat="46.30536" lon="6.81752">
        <ele>1576</ele>
        <time>2000-01-01T03:20:07.000Z</time>
      </trkpt>
      <trkpt lat="46.30555" lon="6.81798">
        <ele>1583</ele>
        <time>2000-01-01T03:20:17.000Z</time>
      </trkpt>
      <trkpt lat="46.30566" lon="6.81837">
        <ele>1585</ele>
        <time>2000-01-01T03:20:27.000Z</time>
      </trkpt>
      <trkpt lat="46.30579" lon="6.81872">
        <ele>1588</ele>
        <time>2000-01-01T03:20:37.000Z</time>
      </trkpt>
      <trkpt lat="46.30599" lon="6.81922">
        <ele>1588</ele>
        <time>2000-01-01T03:20:47.000Z</time>
      </trkpt>
      <trkpt lat="46.30616" lon="6.81959">
        <ele>1595</ele>
        <time>2000-01-01T03:20:57.000Z</time>
      </trkpt>
      <trkpt lat="46.30631" lon="6.81991">
        <ele>1597</ele>
        <time>2000-01-01T03:21:07.000Z</time>
      </trkpt>
      <trkpt lat="46.30652" lon="6.82034">
        <ele>1601</ele>
        <time>2000-01-01T03:21:17.000Z</time>
      </trkpt>
      <trkpt lat="46.30661" lon="6.8206">
        <ele>1603</ele>
        <time>2000-01-01T03:21:27.000Z</time>
      </trkpt>
      <trkpt lat="46.30663" lon="6.82075">
        <ele>1605.6</ele>
        <time>2000-01-01T03:21:37.000Z</time>
      </trkpt>
      <trkpt lat="46.3066" lon="6.82088">
        <ele>1603</ele>
        <time>2000-01-01T03:21:47.000Z</time>
      </trkpt>
      <trkpt lat="46.30653" lon="6.82099">
        <ele>1608.2</ele>
        <time>2000-01-01T03:21:57.000Z</time>
      </trkpt>
      <trkpt lat="46.3062" lon="6.82113">
        <ele>1612</ele>
        <time>2000-01-01T03:22:07.000Z</time>
      </trkpt>
      <trkpt lat="46.30612" lon="6.82119">
        <ele>1613.5</ele>
        <time>2000-01-01T03:22:17.000Z</time>
      </trkpt>
      <trkpt lat="46.30598" lon="6.82151">
        <ele>1613</ele>
        <time>2000-01-01T03:22:27.000Z</time>
      </trkpt>
      <trkpt lat="46.30591" lon="6.82189">
        <ele>1618</ele>
        <time>2000-01-01T03:22:37.000Z</time>
      </trkpt>
      <trkpt lat="46.30591" lon="6.82228">
        <ele>1622</ele>
        <time>2000-01-01T03:22:47.000Z</time>
      </trkpt>
      <trkpt lat="46.30598" lon="6.82271">
        <ele>1624</ele>
        <time>2000-01-01T03:22:57.000Z</time>
      </trkpt>
      <trkpt lat="46.30609" lon="6.82306">
        <ele>1631</ele>
        <time>2000-01-01T03:23:07.000Z</time>
      </trkpt>
      <trkpt lat="46.30624" lon="6.82352">
        <ele>1639</ele>
        <time>2000-01-01T03:23:17.000Z</time>
      </trkpt>
      <trkpt lat="46.30642" lon="6.82387">
        <ele>1644</ele>
        <time>2000-01-01T03:23:27.000Z</time>
      </trkpt>
      <trkpt lat="46.30645" lon="6.82401">
        <ele>1647.2</ele>
        <time>2000-01-01T03:23:37.000Z</time>
      </trkpt>
      <trkpt lat="46.30641" lon="6.82417">
        <ele>1644</ele>
        <time>2000-01-01T03:23:47.000Z</time>
      </trkpt>
      <trkpt lat="46.30619" lon="6.82434">
        <ele>1645</ele>
        <time>2000-01-01T03:23:57.000Z</time>
      </trkpt>
      <trkpt lat="46.30594" lon="6.82454">
        <ele>1651</ele>
        <time>2000-01-01T03:24:07.000Z</time>
      </trkpt>
      <trkpt lat="46.30585" lon="6.82466">
        <ele>1653</ele>
        <time>2000-01-01T03:24:17.000Z</time>
      </trkpt>
      <trkpt lat="46.30579" lon="6.82482">
        <ele>1651</ele>
        <time>2000-01-01T03:24:27.000Z</time>
      </trkpt>
      <trkpt lat="46.30571" lon="6.82521">
        <ele>1656</ele>
        <time>2000-01-01T03:24:37.000Z</time>
      </trkpt>
      <trkpt lat="46.30559" lon="6.82583">
        <ele>1658</ele>
        <time>2000-01-01T03:24:47.000Z</time>
      </trkpt>
      <trkpt lat="46.30549" lon="6.82597">
        <ele>1666.2</ele>
        <time>2000-01-01T03:24:57.000Z</time>
      </trkpt>
      <trkpt lat="46.30473" lon="6.82629">
        <ele>1666</ele>
        <time>2000-01-01T03:25:07.000Z</time>
      </trkpt>
      <trkpt lat="46.30443" lon="6.82638">
        <ele>1671</ele>
        <time>2000-01-01T03:25:17.000Z</time>
      </trkpt>
      <trkpt lat="46.30402" lon="6.82666">
        <ele>1676</ele>
        <time>2000-01-01T03:25:27.000Z</time>
      </trkpt>
      <trkpt lat="46.30379" lon="6.8267">
        <ele>1679</ele>
        <time>2000-01-01T03:25:37.000Z</time>
      </trkpt>
      <trkpt lat="46.30335" lon="6.82672">
        <ele>1687</ele>
        <time>2000-01-01T03:25:47.000Z</time>
      </trkpt>
      <trkpt lat="46.30325" lon="6.8267">
        <ele>1688.3</ele>
        <time>2000-01-01T03:25:57.000Z</time>
      </trkpt>
      <trkpt lat="46.30269" lon="6.82631">
        <ele>1693</ele>
        <time>2000-01-01T03:26:07.000Z</time>
      </trkpt>
      <trkpt lat="46.30237" lon="6.82619">
        <ele>1693</ele>
        <time>2000-01-01T03:26:17.000Z</time>
      </trkpt>
      <trkpt lat="46.30194" lon="6.82629">
        <ele>1696</ele>
        <time>2000-01-01T03:26:27.000Z</time>
      </trkpt>
      <trkpt lat="46.30163" lon="6.82638">
        <ele>1700</ele>
        <time>2000-01-01T03:26:37.000Z</time>
      </trkpt>
      <trkpt lat="46.30154" lon="6.82644">
        <ele>1703.7</ele>
        <time>2000-01-01T03:26:47.000Z</time>
      </trkpt>
      <trkpt lat="46.30126" lon="6.82675">
        <ele>1708</ele>
        <time>2000-01-01T03:26:57.000Z</time>
      </trkpt>
      <trkpt lat="46.30124" lon="6.82686">
        <ele>1715</ele>
        <time>2000-01-01T03:27:07.000Z</time>
      </trkpt>
      <trkpt lat="46.30128" lon="6.82693">
        <ele>1716.6</ele>
        <time>2000-01-01T03:27:17.000Z</time>
      </trkpt>
      <trkpt lat="46.30131" lon="6.82694">
        <ele>1716.1</ele>
        <time>2000-01-01T03:27:27.000Z</time>
      </trkpt>
      <trkpt lat="46.30159" lon="6.82675">
        <ele>1712</ele>
        <time>2000-01-01T03:27:37.000Z</time>
      </trkpt>
      <trkpt lat="46.3017" lon="6.82672">
        <ele>1715.4</ele>
        <time>2000-01-01T03:27:47.000Z</time>
      </trkpt>
      <trkpt lat="46.30194" lon="6.82674">
        <ele>1717</ele>
        <time>2000-01-01T03:27:57.000Z</time>
      </trkpt>
      <trkpt lat="46.30212" lon="6.82684">
        <ele>1719</ele>
        <time>2000-01-01T03:28:07.000Z</time>
      </trkpt>
      <trkpt lat="46.30241" lon="6.82708">
        <ele>1719</ele>
        <time>2000-01-01T03:28:17.000Z</time>
      </trkpt>
      <trkpt lat="46.30265" lon="6.82736">
        <ele>1725</ele>
        <time>2000-01-01T03:28:27.000Z</time>
      </trkpt>
      <trkpt lat="46.30286" lon="6.82767">
        <ele>1728</ele>
        <time>2000-01-01T03:28:37.000Z</time>
      </trkpt>
      <trkpt lat="46.30304" lon="6.82792">
        <ele>1730</ele>
        <time>2000-01-01T03:28:47.000Z</time>
      </trkpt>
      <trkpt lat="46.30324" lon="6.82821">
        <ele>1733</ele>
        <time>2000-01-01T03:28:57.000Z</time>
      </trkpt>
      <trkpt lat="46.30337" lon="6.82834">
        <ele>1733.1</ele>
        <time>2000-01-01T03:29:07.000Z</time>
      </trkpt>
      <trkpt lat="46.30334" lon="6.82847">
        <ele>1733</ele>
        <time>2000-01-01T03:29:17.000Z</time>
      </trkpt>
      <trkpt lat="46.3033" lon="6.8287">
        <ele>1726.5</ele>
        <time>2000-01-01T03:29:27.000Z</time>
      </trkpt>
      <trkpt lat="46.30333" lon="6.82927">
        <ele>1715</ele>
        <time>2000-01-01T03:29:37.000Z</time>
      </trkpt>
      <trkpt lat="46.30342" lon="6.82965">
        <ele>1705</ele>
        <time>2000-01-01T03:29:47.000Z</time>
      </trkpt>
      <trkpt lat="46.30353" lon="6.83019">
        <ele>1693</ele>
        <time>2000-01-01T03:29:57.000Z</time>
      </trkpt>
      <trkpt lat="46.30354" lon="6.83074">
        <ele>1686</ele>
        <time>2000-01-01T03:30:07.000Z</time>
      </trkpt>
      <trkpt lat="46.30361" lon="6.83107">
        <ele>1681</ele>
        <time>2000-01-01T03:30:17.000Z</time>
      </trkpt>
      <trkpt lat="46.30369" lon="6.83141">
        <ele>1673</ele>
        <time>2000-01-01T03:30:27.000Z</time>
      </trkpt>
      <trkpt lat="46.30385" lon="6.83197">
        <ele>1666</ele>
        <time>2000-01-01T03:30:37.000Z</time>
      </trkpt>
      <trkpt lat="46.30408" lon="6.83241">
        <ele>1655</ele>
        <time>2000-01-01T03:30:47.000Z</time>
      </trkpt>
      <trkpt lat="46.30418" lon="6.83274">
        <ele>1648</ele>
        <time>2000-01-01T03:30:57.000Z</time>
      </trkpt>
      <trkpt lat="46.30435" lon="6.8331">
        <ele>1645</ele>
        <time>2000-01-01T03:31:07.000Z</time>
      </trkpt>
      <trkpt lat="46.30449" lon="6.83341">
        <ele>1638</ele>
        <time>2000-01-01T03:31:17.000Z</time>
      </trkpt>
      <trkpt lat="46.30466" lon="6.83378">
        <ele>1635</ele>
        <time>2000-01-01T03:31:27.000Z</time>
      </trkpt>
      <trkpt lat="46.30484" lon="6.83412">
        <ele>1625</ele>
        <time>2000-01-01T03:31:37.000Z</time>
      </trkpt>
      <trkpt lat="46.30488" lon="6.83435">
        <ele>1620.6</ele>
        <time>2000-01-01T03:31:47.000Z</time>
      </trkpt>
      <trkpt lat="46.305" lon="6.83459">
        <ele>1618</ele>
        <time>2000-01-01T03:31:57.000Z</time>
      </trkpt>
      <trkpt lat="46.30509" lon="6.83522">
        <ele>1607</ele>
        <time>2000-01-01T03:32:07.000Z</time>
      </trkpt>
      <trkpt lat="46.3052" lon="6.83541">
        <ele>1605.6</ele>
        <time>2000-01-01T03:32:17.000Z</time>
      </trkpt>
      <trkpt lat="46.30524" lon="6.83554">
        <ele>1604</ele>
        <time>2000-01-01T03:32:27.000Z</time>
      </trkpt>
      <trkpt lat="46.30527" lon="6.83617">
        <ele>1593</ele>
        <time>2000-01-01T03:32:37.000Z</time>
      </trkpt>
      <trkpt lat="46.30532" lon="6.8364">
        <ele>1590.6</ele>
        <time>2000-01-01T03:32:47.000Z</time>
      </trkpt>
      <trkpt lat="46.3054" lon="6.83654">
        <ele>1589</ele>
        <time>2000-01-01T03:32:57.000Z</time>
      </trkpt>
      <trkpt lat="46.3056" lon="6.83696">
        <ele>794</ele>
        <time>2000-01-01T03:33:07.000Z</time>
      </trkpt>
      <trkpt lat="46.30575" lon="6.8373">
        <ele>1585.3</ele>
        <time>2000-01-01T03:33:17.000Z</time>
      </trkpt>
      <trkpt lat="46.30598" lon="6.83781">
        <ele>1580</ele>
        <time>2000-01-01T03:33:27.000Z</time>
      </trkpt>
      <trkpt lat="46.3062" lon="6.83827">
        <ele>1578.5</ele>
        <time>2000-01-01T03:33:37.000Z</time>
      </trkpt>
      <trkpt lat="46.30625" lon="6.83874">
        <ele>1572.9</ele>
        <time>2000-01-01T03:33:47.000Z</time>
      </trkpt>
      <trkpt lat="46.30633" lon="6.83917">
        <ele>1571</ele>
        <time>2000-01-01T03:33:57.000Z</time>
      </trkpt>
      <trkpt lat="46.3064" lon="6.83954">
        <ele>1568.7</ele>
        <time>2000-01-01T03:34:07.000Z</time>
      </trkpt>
      <trkpt lat="46.30649" lon="6.84004">
        <ele>1563.6</ele>
        <time>2000-01-01T03:34:17.000Z</time>
      </trkpt>
      <trkpt lat="46.30662" lon="6.84059">
        <ele>1560.2</ele>
        <time>2000-01-01T03:34:27.000Z</time>
      </trkpt>
      <trkpt lat="46.3067" lon="6.84071">
        <ele>1560.4</ele>
        <time>2000-01-01T03:34:37.000Z</time>
      </trkpt>
      <trkpt lat="46.30679" lon="6.84072">
        <ele>1559.3</ele>
        <time>2000-01-01T03:34:47.000Z</time>
      </trkpt>
      <trkpt lat="46.30701" lon="6.84058">
        <ele>1558.5</ele>
        <time>2000-01-01T03:34:57.000Z</time>
      </trkpt>
      <trkpt lat="46.30726" lon="6.84043">
        <ele>1557.4</ele>
        <time>2000-01-01T03:35:07.000Z</time>
      </trkpt>
      <trkpt lat="46.30741" lon="6.84048">
        <ele>1557</ele>
        <time>2000-01-01T03:35:17.000Z</time>
      </trkpt>
      <trkpt lat="46.30749" lon="6.8406">
        <ele>1555.3</ele>
        <time>2000-01-01T03:35:27.000Z</time>
      </trkpt>
      <trkpt lat="46.30761" lon="6.8409">
        <ele>1553.9</ele>
        <time>2000-01-01T03:35:37.000Z</time>
      </trkpt>
      <trkpt lat="46.30776" lon="6.84121">
        <ele>1550.9</ele>
        <time>2000-01-01T03:35:47.000Z</time>
      </trkpt>
      <trkpt lat="46.30797" lon="6.84163">
        <ele>1549.1</ele>
        <time>2000-01-01T03:35:57.000Z</time>
      </trkpt>
      <trkpt lat="46.30808" lon="6.84196">
        <ele>1547</ele>
        <time>2000-01-01T03:36:07.000Z</time>
      </trkpt>
      <trkpt lat="46.30821" lon="6.84235">
        <ele>1545.8</ele>
        <time>2000-01-01T03:36:17.000Z</time>
      </trkpt>
      <trkpt lat="46.30833" lon="6.84274">
        <ele>1540.9</ele>
        <time>2000-01-01T03:36:27.000Z</time>
      </trkpt>
      <trkpt lat="46.3085" lon="6.84316">
        <ele>1538.4</ele>
        <time>2000-01-01T03:36:37.000Z</time>
      </trkpt>
      <trkpt lat="46.30867" lon="6.84358">
        <ele>1535.6</ele>
        <time>2000-01-01T03:36:47.000Z</time>
      </trkpt>
      <trkpt lat="46.3088" lon="6.84389">
        <ele>1533.1</ele>
        <time>2000-01-01T03:36:57.000Z</time>
      </trkpt>
      <trkpt lat="46.30895" lon="6.84426">
        <ele>1529.1</ele>
        <time>2000-01-01T03:37:07.000Z</time>
      </trkpt>
      <trkpt lat="46.30904" lon="6.84443">
        <ele>1526.3</ele>
        <time>2000-01-01T03:37:17.000Z</time>
      </trkpt>
      <trkpt lat="46.30933" lon="6.84468">
        <ele>1523.6</ele>
        <time>2000-01-01T03:37:27.000Z</time>
      </trkpt>
      <trkpt lat="46.30961" lon="6.84478">
        <ele>1520.4</ele>
        <time>2000-01-01T03:37:37.000Z</time>
      </trkpt>
      <trkpt lat="46.30988" lon="6.84468">
        <ele>1519.6</ele>
        <time>2000-01-01T03:37:47.000Z</time>
      </trkpt>
      <trkpt lat="46.31006" lon="6.84444">
        <ele>1519.8</ele>
        <time>2000-01-01T03:37:57.000Z</time>
      </trkpt>
      <trkpt lat="46.31011" lon="6.84445">
        <ele>1515.9</ele>
        <time>2000-01-01T03:38:07.000Z</time>
      </trkpt>
      <trkpt lat="46.31011" lon="6.84454">
        <ele>1513.5</ele>
        <time>2000-01-01T03:38:17.000Z</time>
      </trkpt>
      <trkpt lat="46.31002" lon="6.84469">
        <ele>1514.1</ele>
        <time>2000-01-01T03:38:27.000Z</time>
      </trkpt>
      <trkpt lat="46.30965" lon="6.84502">
        <ele>1509</ele>
        <time>2000-01-01T03:38:37.000Z</time>
      </trkpt>
      <trkpt lat="46.30922" lon="6.84513">
        <ele>1505.1</ele>
        <time>2000-01-01T03:38:47.000Z</time>
      </trkpt>
      <trkpt lat="46.30914" lon="6.84513">
        <ele>1504.4</ele>
        <time>2000-01-01T03:38:57.000Z</time>
      </trkpt>
      <trkpt lat="46.30899" lon="6.84509">
        <ele>1502.9</ele>
        <time>2000-01-01T03:39:07.000Z</time>
      </trkpt>
      <trkpt lat="46.30876" lon="6.84493">
        <ele>1501</ele>
        <time>2000-01-01T03:39:17.000Z</time>
      </trkpt>
      <trkpt lat="46.30852" lon="6.84471">
        <ele>1497.7</ele>
        <time>2000-01-01T03:39:27.000Z</time>
      </trkpt>
      <trkpt lat="46.30826" lon="6.84443">
        <ele>1496.3</ele>
        <time>2000-01-01T03:39:37.000Z</time>
      </trkpt>
      <trkpt lat="46.30805" lon="6.84429">
        <ele>1493.8</ele>
        <time>2000-01-01T03:39:47.000Z</time>
      </trkpt>
      <trkpt lat="46.30781" lon="6.84424">
        <ele>1491</ele>
        <time>2000-01-01T03:39:57.000Z</time>
      </trkpt>
      <trkpt lat="46.30753" lon="6.84417">
        <ele>1488.3</ele>
        <time>2000-01-01T03:40:07.000Z</time>
      </trkpt>
      <trkpt lat="46.30725" lon="6.84398">
        <ele>1486.9</ele>
        <time>2000-01-01T03:40:17.000Z</time>
      </trkpt>
      <trkpt lat="46.30707" lon="6.84409">
        <ele>1484.1</ele>
        <time>2000-01-01T03:40:27.000Z</time>
      </trkpt>
      <trkpt lat="46.30669" lon="6.84405">
        <ele>1481.4</ele>
        <time>2000-01-01T03:40:37.000Z</time>
      </trkpt>
      <trkpt lat="46.3065" lon="6.84384">
        <ele>1479.2</ele>
        <time>2000-01-01T03:40:47.000Z</time>
      </trkpt>
      <trkpt lat="46.3063" lon="6.84361">
        <ele>1478.1</ele>
        <time>2000-01-01T03:40:57.000Z</time>
      </trkpt>
      <trkpt lat="46.30612" lon="6.84348">
        <ele>1476.6</ele>
        <time>2000-01-01T03:41:07.000Z</time>
      </trkpt>
      <trkpt lat="46.30598" lon="6.84336">
        <ele>1473.7</ele>
        <time>2000-01-01T03:41:17.000Z</time>
      </trkpt>
      <trkpt lat="46.30562" lon="6.8429">
        <ele>1472.1</ele>
        <time>2000-01-01T03:41:27.000Z</time>
      </trkpt>
      <trkpt lat="46.30546" lon="6.84276">
        <ele>1471.4</ele>
        <time>2000-01-01T03:41:37.000Z</time>
      </trkpt>
      <trkpt lat="46.30537" lon="6.84273">
        <ele>1471</ele>
        <time>2000-01-01T03:41:47.000Z</time>
      </trkpt>
      <trkpt lat="46.30529" lon="6.84273">
        <ele>1470</ele>
        <time>2000-01-01T03:41:57.000Z</time>
      </trkpt>
      <trkpt lat="46.30517" lon="6.84279">
        <ele>1467.6</ele>
        <time>2000-01-01T03:42:07.000Z</time>
      </trkpt>
      <trkpt lat="46.30495" lon="6.84276">
        <ele>1466.3</ele>
        <time>2000-01-01T03:42:17.000Z</time>
      </trkpt>
      <trkpt lat="46.30477" lon="6.84286">
        <ele>1464.5</ele>
        <time>2000-01-01T03:42:27.000Z</time>
      </trkpt>
      <trkpt lat="46.30459" lon="6.84291">
        <ele>1463.6</ele>
        <time>2000-01-01T03:42:37.000Z</time>
      </trkpt>
      <trkpt lat="46.3045" lon="6.84297">
        <ele>1463.2</ele>
        <time>2000-01-01T03:42:47.000Z</time>
      </trkpt>
      <trkpt lat="46.30444" lon="6.84318">
        <ele>1461.8</ele>
        <time>2000-01-01T03:42:57.000Z</time>
      </trkpt>
      <trkpt lat="46.30444" lon="6.84356">
        <ele>1459.4</ele>
        <time>2000-01-01T03:43:07.000Z</time>
      </trkpt>
      <trkpt lat="46.30449" lon="6.84378">
        <ele>1457.4</ele>
        <time>2000-01-01T03:43:17.000Z</time>
      </trkpt>
      <trkpt lat="46.3046" lon="6.84412">
        <ele>1454.1</ele>
        <time>2000-01-01T03:43:27.000Z</time>
      </trkpt>
      <trkpt lat="46.30465" lon="6.8445">
        <ele>1451.7</ele>
        <time>2000-01-01T03:43:37.000Z</time>
      </trkpt>
      <trkpt lat="46.30463" lon="6.8449">
        <ele>1448.9</ele>
        <time>2000-01-01T03:43:47.000Z</time>
      </trkpt>
      <trkpt lat="46.3046" lon="6.8455">
        <ele>1443.4</ele>
        <time>2000-01-01T03:43:57.000Z</time>
      </trkpt>
      <trkpt lat="46.30456" lon="6.84572">
        <ele>1441.4</ele>
        <time>2000-01-01T03:44:07.000Z</time>
      </trkpt>
      <trkpt lat="46.30432" lon="6.84634">
        <ele>1438.8</ele>
        <time>2000-01-01T03:44:17.000Z</time>
      </trkpt>
      <trkpt lat="46.30417" lon="6.84661">
        <ele>1434.6</ele>
        <time>2000-01-01T03:44:27.000Z</time>
      </trkpt>
      <trkpt lat="46.30401" lon="6.84691">
        <ele>1431.6</ele>
        <time>2000-01-01T03:44:37.000Z</time>
      </trkpt>
      <trkpt lat="46.30379" lon="6.84739">
        <ele>713</ele>
        <time>2000-01-01T03:44:47.000Z</time>
      </trkpt>
      <trkpt lat="46.30361" lon="6.84757">
        <ele>1427</ele>
        <time>2000-01-01T03:44:57.000Z</time>
      </trkpt>
      <trkpt lat="46.30345" lon="6.8479">
        <ele>1425</ele>
        <time>2000-01-01T03:45:07.000Z</time>
      </trkpt>
      <trkpt lat="46.3034" lon="6.84806">
        <ele>1422.8</ele>
        <time>2000-01-01T03:45:17.000Z</time>
      </trkpt>
      <trkpt lat="46.30338" lon="6.84849">
        <ele>1424</ele>
        <time>2000-01-01T03:45:27.000Z</time>
      </trkpt>
      <trkpt lat="46.30335" lon="6.84859">
        <ele>1420.5</ele>
        <time>2000-01-01T03:45:37.000Z</time>
      </trkpt>
      <trkpt lat="46.30304" lon="6.84895">
        <ele>1424</ele>
        <time>2000-01-01T03:45:47.000Z</time>
      </trkpt>
      <trkpt lat="46.30298" lon="6.84909">
        <ele>1419.3</ele>
        <time>2000-01-01T03:45:57.000Z</time>
      </trkpt>
      <trkpt lat="46.30302" lon="6.8492">
        <ele>1419</ele>
        <time>2000-01-01T03:46:07.000Z</time>
      </trkpt>
      <trkpt lat="46.30312" lon="6.84924">
        <ele>1414.8</ele>
        <time>2000-01-01T03:46:17.000Z</time>
      </trkpt>
      <trkpt lat="46.30321" lon="6.84921">
        <ele>1417</ele>
        <time>2000-01-01T03:46:27.000Z</time>
      </trkpt>
      <trkpt lat="46.3034" lon="6.84907">
        <ele>1417</ele>
        <time>2000-01-01T03:46:37.000Z</time>
      </trkpt>
      <trkpt lat="46.30361" lon="6.84883">
        <ele>1409</ele>
        <time>2000-01-01T03:46:47.000Z</time>
      </trkpt>
      <trkpt lat="46.30367" lon="6.84887">
        <ele>1406.5</ele>
        <time>2000-01-01T03:46:57.000Z</time>
      </trkpt>
      <trkpt lat="46.30368" lon="6.84898">
        <ele>1404.9</ele>
        <time>2000-01-01T03:47:07.000Z</time>
      </trkpt>
      <trkpt lat="46.3035" lon="6.84935">
        <ele>1406</ele>
        <time>2000-01-01T03:47:17.000Z</time>
      </trkpt>
      <trkpt lat="46.30343" lon="6.84943">
        <ele>1402</ele>
        <time>2000-01-01T03:47:27.000Z</time>
      </trkpt>
      <trkpt lat="46.30319" lon="6.84963">
        <ele>1400</ele>
        <time>2000-01-01T03:47:37.000Z</time>
      </trkpt>
      <trkpt lat="46.30289" lon="6.84977">
        <ele>1397</ele>
        <time>2000-01-01T03:47:47.000Z</time>
      </trkpt>
      <trkpt lat="46.30283" lon="6.85005">
        <ele>1395</ele>
        <time>2000-01-01T03:47:57.000Z</time>
      </trkpt>
      <trkpt lat="46.30274" lon="6.85018">
        <ele>1390.1</ele>
        <time>2000-01-01T03:48:07.000Z</time>
      </trkpt>
      <trkpt lat="46.30259" lon="6.8503">
        <ele>1395</ele>
        <time>2000-01-01T03:48:17.000Z</time>
      </trkpt>
      <trkpt lat="46.30226" lon="6.85048">
        <ele>1392</ele>
        <time>2000-01-01T03:48:27.000Z</time>
      </trkpt>
      <trkpt lat="46.30214" lon="6.85059">
        <ele>1385.2</ele>
        <time>2000-01-01T03:48:37.000Z</time>
      </trkpt>
      <trkpt lat="46.30207" lon="6.85078">
        <ele>1385</ele>
        <time>2000-01-01T03:48:47.000Z</time>
      </trkpt>
      <trkpt lat="46.3021" lon="6.851">
        <ele>1381.9</ele>
        <time>2000-01-01T03:48:57.000Z</time>
      </trkpt>
      <trkpt lat="46.30225" lon="6.85129">
        <ele>1380</ele>
        <time>2000-01-01T03:49:07.000Z</time>
      </trkpt>
      <trkpt lat="46.30239" lon="6.85137">
        <ele>1378.8</ele>
        <time>2000-01-01T03:49:17.000Z</time>
      </trkpt>
      <trkpt lat="46.30275" lon="6.85137">
        <ele>1373</ele>
        <time>2000-01-01T03:49:27.000Z</time>
      </trkpt>
      <trkpt lat="46.30319" lon="6.85123">
        <ele>1367</ele>
        <time>2000-01-01T03:49:37.000Z</time>
      </trkpt>
      <trkpt lat="46.30346" lon="6.85117">
        <ele>1364</ele>
        <time>2000-01-01T03:49:47.000Z</time>
      </trkpt>
      <trkpt lat="46.30382" lon="6.85108">
        <ele>1360</ele>
        <time>2000-01-01T03:49:57.000Z</time>
      </trkpt>
      <trkpt lat="46.30407" lon="6.85107">
        <ele>1356.3</ele>
        <time>2000-01-01T03:50:07.000Z</time>
      </trkpt>
      <trkpt lat="46.30436" lon="6.85105">
        <ele>1351.6</ele>
        <time>2000-01-01T03:50:17.000Z</time>
      </trkpt>
      <trkpt lat="46.3046" lon="6.85094">
        <ele>1347.9</ele>
        <time>2000-01-01T03:50:27.000Z</time>
      </trkpt>
      <trkpt lat="46.30487" lon="6.85081">
        <ele>1345.2</ele>
        <time>2000-01-01T03:50:37.000Z</time>
      </trkpt>
      <trkpt lat="46.30519" lon="6.85078">
        <ele>1341.7</ele>
        <time>2000-01-01T03:50:47.000Z</time>
      </trkpt>
      <trkpt lat="46.30551" lon="6.85075">
        <ele>1339</ele>
        <time>2000-01-01T03:50:57.000Z</time>
      </trkpt>
      <trkpt lat="46.30591" lon="6.85071">
        <ele>1335.2</ele>
        <time>2000-01-01T03:51:07.000Z</time>
      </trkpt>
      <trkpt lat="46.30624" lon="6.85078">
        <ele>1332.1</ele>
        <time>2000-01-01T03:51:17.000Z</time>
      </trkpt>
      <trkpt lat="46.30655" lon="6.85094">
        <ele>1330.7</ele>
        <time>2000-01-01T03:51:27.000Z</time>
      </trkpt>
      <trkpt lat="46.30686" lon="6.85111">
        <ele>1328.3</ele>
        <time>2000-01-01T03:51:37.000Z</time>
      </trkpt>
      <trkpt lat="46.30729" lon="6.85133">
        <ele>1324.2</ele>
        <time>2000-01-01T03:51:47.000Z</time>
      </trkpt>
      <trkpt lat="46.30759" lon="6.8514">
        <ele>1321.7</ele>
        <time>2000-01-01T03:51:57.000Z</time>
      </trkpt>
      <trkpt lat="46.30772" lon="6.85147">
        <ele>1320.7</ele>
        <time>2000-01-01T03:52:07.000Z</time>
      </trkpt>
      <trkpt lat="46.30832" lon="6.852">
        <ele>1315.9</ele>
        <time>2000-01-01T03:52:17.000Z</time>
      </trkpt>
      <trkpt lat="46.30856" lon="6.85213">
        <ele>1312.3</ele>
        <time>2000-01-01T03:52:27.000Z</time>
      </trkpt>
      <trkpt lat="46.30885" lon="6.85228">
        <ele>1311.4</ele>
        <time>2000-01-01T03:52:37.000Z</time>
      </trkpt>
      <trkpt lat="46.309" lon="6.85229">
        <ele>1308.5</ele>
        <time>2000-01-01T03:52:47.000Z</time>
      </trkpt>
      <trkpt lat="46.30983" lon="6.85268">
        <ele>1299.3</ele>
        <time>2000-01-01T03:52:57.000Z</time>
      </trkpt>
      <trkpt lat="46.31004" lon="6.85287">
        <ele>1297.2</ele>
        <time>2000-01-01T03:53:07.000Z</time>
      </trkpt>
      <trkpt lat="46.31021" lon="6.85309">
        <ele>1294.7</ele>
        <time>2000-01-01T03:53:17.000Z</time>
      </trkpt>
      <trkpt lat="46.31051" lon="6.8536">
        <ele>1296</ele>
        <time>2000-01-01T03:53:27.000Z</time>
      </trkpt>
      <trkpt lat="46.31054" lon="6.85371">
        <ele>1290.7</ele>
        <time>2000-01-01T03:53:37.000Z</time>
      </trkpt>
      <trkpt lat="46.31057" lon="6.85411">
        <ele>1298</ele>
        <time>2000-01-01T03:53:47.000Z</time>
      </trkpt>
      <trkpt lat="46.31063" lon="6.85422">
        <ele>1286.1</ele>
        <time>2000-01-01T03:53:57.000Z</time>
      </trkpt>
      <trkpt lat="46.31068" lon="6.85418">
        <ele>1284.1</ele>
        <time>2000-01-01T03:54:07.000Z</time>
      </trkpt>
      <trkpt lat="46.3107" lon="6.85411">
        <ele>1293</ele>
        <time>2000-01-01T03:54:17.000Z</time>
      </trkpt>
      <trkpt lat="46.31064" lon="6.85357">
        <ele>1291</ele>
        <time>2000-01-01T03:54:27.000Z</time>
      </trkpt>
      <trkpt lat="46.3106" lon="6.85339">
        <ele>1282.1</ele>
        <time>2000-01-01T03:54:37.000Z</time>
      </trkpt>
      <trkpt lat="46.31042" lon="6.85297">
        <ele>1289</ele>
        <time>2000-01-01T03:54:47.000Z</time>
      </trkpt>
      <trkpt lat="46.31035" lon="6.85259">
        <ele>1281</ele>
        <time>2000-01-01T03:54:57.000Z</time>
      </trkpt>
      <trkpt lat="46.31024" lon="6.85242">
        <ele>1275.5</ele>
        <time>2000-01-01T03:55:07.000Z</time>
      </trkpt>
      <trkpt lat="46.30982" lon="6.85197">
        <ele>1280</ele>
        <time>2000-01-01T03:55:17.000Z</time>
      </trkpt>
      <trkpt lat="46.30954" lon="6.85169">
        <ele>1279</ele>
        <time>2000-01-01T03:55:27.000Z</time>
      </trkpt>
      <trkpt lat="46.30927" lon="6.85146">
        <ele>1278</ele>
        <time>2000-01-01T03:55:37.000Z</time>
      </trkpt>
      <trkpt lat="46.30911" lon="6.85121">
        <ele>1275</ele>
        <time>2000-01-01T03:55:47.000Z</time>
      </trkpt>
      <trkpt lat="46.30894" lon="6.85094">
        <ele>1274</ele>
        <time>2000-01-01T03:55:57.000Z</time>
      </trkpt>
      <trkpt lat="46.30879" lon="6.85043">
        <ele>1261</ele>
        <time>2000-01-01T03:56:07.000Z</time>
      </trkpt>
      <trkpt lat="46.30879" lon="6.85025">
        <ele>1259.5</ele>
        <time>2000-01-01T03:56:17.000Z</time>
      </trkpt>
      <trkpt lat="46.30888" lon="6.85019">
        <ele>1260.5</ele>
        <time>2000-01-01T03:56:27.000Z</time>
      </trkpt>
      <trkpt lat="46.30905" lon="6.85028">
        <ele>1257.1</ele>
        <time>2000-01-01T03:56:37.000Z</time>
      </trkpt>
      <trkpt lat="46.30936" lon="6.85052">
        <ele>633</ele>
        <time>2000-01-01T03:56:47.000Z</time>
      </trkpt>
      <trkpt lat="46.30979" lon="6.85053">
        <ele>949</ele>
        <time>2000-01-01T03:56:57.000Z</time>
      </trkpt>
      <trkpt lat="46.31002" lon="6.85055">
        <ele>1106</ele>
        <time>2000-01-01T03:57:07.000Z</time>
      </trkpt>
      <trkpt lat="46.31026" lon="6.85057">
        <ele>1182</ele>
        <time>2000-01-01T03:57:17.000Z</time>
      </trkpt>
      <trkpt lat="46.31057" lon="6.85063">
        <ele>1214</ele>
        <time>2000-01-01T03:57:27.000Z</time>
      </trkpt>
      <trkpt lat="46.31085" lon="6.85086">
        <ele>1246</ele>
        <time>2000-01-01T03:57:37.000Z</time>
      </trkpt>
      <trkpt lat="46.31096" lon="6.85088">
        <ele>1236</ele>
        <time>2000-01-01T03:57:47.000Z</time>
      </trkpt>
      <trkpt lat="46.3113" lon="6.85057">
        <ele>1252</ele>
        <time>2000-01-01T03:57:57.000Z</time>
      </trkpt>
      <trkpt lat="46.31146" lon="6.8504">
        <ele>1254</ele>
        <time>2000-01-01T03:58:07.000Z</time>
      </trkpt>
      <trkpt lat="46.31166" lon="6.85026">
        <ele>1254</ele>
        <time>2000-01-01T03:58:17.000Z</time>
      </trkpt>
      <trkpt lat="46.31189" lon="6.85019">
        <ele>1252</ele>
        <time>2000-01-01T03:58:27.000Z</time>
      </trkpt>
      <trkpt lat="46.31212" lon="6.85011">
        <ele>1250</ele>
        <time>2000-01-01T03:58:37.000Z</time>
      </trkpt>
      <trkpt lat="46.31254" lon="6.85008">
        <ele>1240</ele>
        <time>2000-01-01T03:58:47.000Z</time>
      </trkpt>
      <trkpt lat="46.31286" lon="6.85009">
        <ele>1238</ele>
        <time>2000-01-01T03:58:57.000Z</time>
      </trkpt>
      <trkpt lat="46.31297" lon="6.85001">
        <ele>1218</ele>
        <time>2000-01-01T03:59:07.000Z</time>
      </trkpt>
      <trkpt lat="46.3132" lon="6.8498">
        <ele>1237</ele>
        <time>2000-01-01T03:59:17.000Z</time>
      </trkpt>
      <trkpt lat="46.31317" lon="6.85003">
        <ele>1214.9</ele>
        <time>2000-01-01T03:59:27.000Z</time>
      </trkpt>
      <trkpt lat="46.31288" lon="6.85041">
        <ele>1228</ele>
        <time>2000-01-01T03:59:37.000Z</time>
      </trkpt>
      <trkpt lat="46.31269" lon="6.85064">
        <ele>1226</ele>
        <time>2000-01-01T03:59:47.000Z</time>
      </trkpt>
      <trkpt lat="46.31248" lon="6.8509">
        <ele>1225</ele>
        <time>2000-01-01T03:59:57.000Z</time>
      </trkpt>
      <trkpt lat="46.31225" lon="6.85121">
        <ele>1221</ele>
        <time>2000-01-01T04:00:07.000Z</time>
      </trkpt>
      <trkpt lat="46.312" lon="6.85159">
        <ele>1218</ele>
        <time>2000-01-01T04:00:17.000Z</time>
      </trkpt>
      <trkpt lat="46.312" lon="6.8518">
        <ele>1199.9</ele>
        <time>2000-01-01T04:00:27.000Z</time>
      </trkpt>
      <trkpt lat="46.31212" lon="6.85229">
        <ele>1213</ele>
        <time>2000-01-01T04:00:37.000Z</time>
      </trkpt>
      <trkpt lat="46.31218" lon="6.85232">
        <ele>1198.4</ele>
        <time>2000-01-01T04:00:47.000Z</time>
      </trkpt>
      <trkpt lat="46.31262" lon="6.85316">
        <ele>1204</ele>
        <time>2000-01-01T04:00:57.000Z</time>
      </trkpt>
      <trkpt lat="46.31289" lon="6.8534">
        <ele>1201</ele>
        <time>2000-01-01T04:01:07.000Z</time>
      </trkpt>
      <trkpt lat="46.31311" lon="6.85384">
        <ele>1197</ele>
        <time>2000-01-01T04:01:17.000Z</time>
      </trkpt>
      <trkpt lat="46.31314" lon="6.85394">
        <ele>1182.8</ele>
        <time>2000-01-01T04:01:27.000Z</time>
      </trkpt>
      <trkpt lat="46.31316" lon="6.85417">
        <ele>1196</ele>
        <time>2000-01-01T04:01:37.000Z</time>
      </trkpt>
      <trkpt lat="46.31312" lon="6.85478">
        <ele>1191</ele>
        <time>2000-01-01T04:01:47.000Z</time>
      </trkpt>
      <trkpt lat="46.3132" lon="6.85526">
        <ele>1188</ele>
        <time>2000-01-01T04:01:57.000Z</time>
      </trkpt>
      <trkpt lat="46.31326" lon="6.85569">
        <ele>1183</ele>
        <time>2000-01-01T04:02:07.000Z</time>
      </trkpt>
      <trkpt lat="46.31331" lon="6.85605">
        <ele>1178</ele>
        <time>2000-01-01T04:02:17.000Z</time>
      </trkpt>
      <trkpt lat="46.31338" lon="6.85649">
        <ele>1178</ele>
        <time>2000-01-01T04:02:27.000Z</time>
      </trkpt>
      <trkpt lat="46.31337" lon="6.85686">
        <ele>1178</ele>
        <time>2000-01-01T04:02:37.000Z</time>
      </trkpt>
      <trkpt lat="46.31336" lon="6.85731">
        <ele>1176</ele>
        <time>2000-01-01T04:02:47.000Z</time>
      </trkpt>
      <trkpt lat="46.31338" lon="6.85746">
        <ele>1170.2</ele>
        <time>2000-01-01T04:02:57.000Z</time>
      </trkpt>
      <trkpt lat="46.31349" lon="6.85789">
        <ele>1175</ele>
        <time>2000-01-01T04:03:07.000Z</time>
      </trkpt>
      <trkpt lat="46.31339" lon="6.85848">
        <ele>1175</ele>
        <time>2000-01-01T04:03:17.000Z</time>
      </trkpt>
      <trkpt lat="46.31337" lon="6.85885">
        <ele>1175</ele>
        <time>2000-01-01T04:03:27.000Z</time>
      </trkpt>
      <trkpt lat="46.3134" lon="6.85931">
        <ele>1176</ele>
        <time>2000-01-01T04:03:37.000Z</time>
      </trkpt>
      <trkpt lat="46.3133" lon="6.85967">
        <ele>1183</ele>
        <time>2000-01-01T04:03:47.000Z</time>
      </trkpt>
      <trkpt lat="46.31329" lon="6.85994">
        <ele>1181</ele>
        <time>2000-01-01T04:03:57.000Z</time>
      </trkpt>
      <trkpt lat="46.3134" lon="6.86039">
        <ele>1180</ele>
        <time>2000-01-01T04:04:07.000Z</time>
      </trkpt>
      <trkpt lat="46.31357" lon="6.86085">
        <ele>1179</ele>
        <time>2000-01-01T04:04:17.000Z</time>
      </trkpt>
      <trkpt lat="46.31357" lon="6.861">
        <ele>1154.9</ele>
        <time>2000-01-01T04:04:27.000Z</time>
      </trkpt>
      <trkpt lat="46.3135" lon="6.86128">
        <ele>1179</ele>
        <time>2000-01-01T04:04:37.000Z</time>
      </trkpt>
      <trkpt lat="46.31354" lon="6.86137">
        <ele>1154.8</ele>
        <time>2000-01-01T04:04:47.000Z</time>
      </trkpt>
      <trkpt lat="46.31366" lon="6.86147">
        <ele>1169</ele>
        <time>2000-01-01T04:04:57.000Z</time>
      </trkpt>
      <trkpt lat="46.3137" lon="6.86153">
        <ele>1152</ele>
        <time>2000-01-01T04:05:07.000Z</time>
      </trkpt>
      <trkpt lat="46.31378" lon="6.86183">
        <ele>1166</ele>
        <time>2000-01-01T04:05:17.000Z</time>
      </trkpt>
      <trkpt lat="46.31385" lon="6.86221">
        <ele>1164</ele>
        <time>2000-01-01T04:05:27.000Z</time>
      </trkpt>
      <trkpt lat="46.31393" lon="6.86274">
        <ele>1160</ele>
        <time>2000-01-01T04:05:37.000Z</time>
      </trkpt>
      <trkpt lat="46.31403" lon="6.86311">
        <ele>1160</ele>
        <time>2000-01-01T04:05:47.000Z</time>
      </trkpt>
      <trkpt lat="46.31416" lon="6.86364">
        <ele>1159</ele>
        <time>2000-01-01T04:05:57.000Z</time>
      </trkpt>
      <trkpt lat="46.31424" lon="6.8643">
        <ele>1150</ele>
        <time>2000-01-01T04:06:07.000Z</time>
      </trkpt>
      <trkpt lat="46.31433" lon="6.86462">
        <ele>1145</ele>
        <time>2000-01-01T04:06:17.000Z</time>
      </trkpt>
      <trkpt lat="46.31441" lon="6.86493">
        <ele>1141</ele>
        <time>2000-01-01T04:06:27.000Z</time>
      </trkpt>
      <trkpt lat="46.31444" lon="6.86536">
        <ele>1141</ele>
        <time>2000-01-01T04:06:37.000Z</time>
      </trkpt>
      <trkpt lat="46.31449" lon="6.86558">
        <ele>1135.9</ele>
        <time>2000-01-01T04:06:47.000Z</time>
      </trkpt>
      <trkpt lat="46.31451" lon="6.86542">
        <ele>1137</ele>
        <time>2000-01-01T04:06:57.000Z</time>
      </trkpt>
      <trkpt lat="46.31466" lon="6.86602">
        <ele>1135</ele>
        <time>2000-01-01T04:07:07.000Z</time>
      </trkpt>
      <trkpt lat="46.31471" lon="6.86639">
        <ele>1134</ele>
        <time>2000-01-01T04:07:17.000Z</time>
      </trkpt>
      <trkpt lat="46.3147" lon="6.86657">
        <ele>1128.1</ele>
        <time>2000-01-01T04:07:27.000Z</time>
      </trkpt>
      <trkpt lat="46.31464" lon="6.86682">
        <ele>1133</ele>
        <time>2000-01-01T04:07:37.000Z</time>
      </trkpt>
      <trkpt lat="46.31466" lon="6.86693">
        <ele>1127.7</ele>
        <time>2000-01-01T04:07:47.000Z</time>
      </trkpt>
      <trkpt lat="46.31501" lon="6.86759">
        <ele>1122</ele>
        <time>2000-01-01T04:07:57.000Z</time>
      </trkpt>
      <trkpt lat="46.31522" lon="6.86772">
        <ele>1115</ele>
        <time>2000-01-01T04:08:07.000Z</time>
      </trkpt>
      <trkpt lat="46.31532" lon="6.86786">
        <ele>1114.7</ele>
        <time>2000-01-01T04:08:17.000Z</time>
      </trkpt>
      <trkpt lat="46.31549" lon="6.8683">
        <ele>1115</ele>
        <time>2000-01-01T04:08:27.000Z</time>
      </trkpt>
      <trkpt lat="46.31549" lon="6.86862">
        <ele>1112</ele>
        <time>2000-01-01T04:08:37.000Z</time>
      </trkpt>
      <trkpt lat="46.31552" lon="6.86871">
        <ele>1108</ele>
        <time>2000-01-01T04:08:47.000Z</time>
      </trkpt>
      <trkpt lat="46.31563" lon="6.86889">
        <ele>1109</ele>
        <time>2000-01-01T04:08:57.000Z</time>
      </trkpt>
      <trkpt lat="46.31581" lon="6.86898">
        <ele>1099</ele>
        <time>2000-01-01T04:09:07.000Z</time>
      </trkpt>
      <trkpt lat="46.31588" lon="6.86908">
        <ele>1099</ele>
        <time>2000-01-01T04:09:17.000Z</time>
      </trkpt>
      <trkpt lat="46.31594" lon="6.86942">
        <ele>1099</ele>
        <time>2000-01-01T04:09:27.000Z</time>
      </trkpt>
      <trkpt lat="46.31612" lon="6.86976">
        <ele>1096</ele>
        <time>2000-01-01T04:09:37.000Z</time>
      </trkpt>
      <trkpt lat="46.31615" lon="6.86987">
        <ele>1092.4</ele>
        <time>2000-01-01T04:09:47.000Z</time>
      </trkpt>
      <trkpt lat="46.31617" lon="6.87004">
        <ele>1093</ele>
        <time>2000-01-01T04:09:57.000Z</time>
      </trkpt>
      <trkpt lat="46.31616" lon="6.87029">
        <ele>1089.4</ele>
        <time>2000-01-01T04:10:07.000Z</time>
      </trkpt>
      <trkpt lat="46.31634" lon="6.87081">
        <ele>1081</ele>
        <time>2000-01-01T04:10:17.000Z</time>
      </trkpt>
      <trkpt lat="46.31636" lon="6.87109">
        <ele>1080</ele>
        <time>2000-01-01T04:10:27.000Z</time>
      </trkpt>
      <trkpt lat="46.31642" lon="6.87142">
        <ele>1076</ele>
        <time>2000-01-01T04:10:37.000Z</time>
      </trkpt>
      <trkpt lat="46.31642" lon="6.87157">
        <ele>1076.4</ele>
        <time>2000-01-01T04:10:47.000Z</time>
      </trkpt>
      <trkpt lat="46.31633" lon="6.87176">
        <ele>1079</ele>
        <time>2000-01-01T04:10:57.000Z</time>
      </trkpt>
      <trkpt lat="46.31616" lon="6.87191">
        <ele>1082</ele>
        <time>2000-01-01T04:11:07.000Z</time>
      </trkpt>
      <trkpt lat="46.31606" lon="6.87208">
        <ele>1072.5</ele>
        <time>2000-01-01T04:11:17.000Z</time>
      </trkpt>
      <trkpt lat="46.31592" lon="6.87224">
        <ele>1082</ele>
        <time>2000-01-01T04:11:27.000Z</time>
      </trkpt>
      <trkpt lat="46.31576" lon="6.8727">
        <ele>1079</ele>
        <time>2000-01-01T04:11:37.000Z</time>
      </trkpt>
      <trkpt lat="46.31569" lon="6.87277">
        <ele>1062.9</ele>
        <time>2000-01-01T04:11:47.000Z</time>
      </trkpt>
      <trkpt lat="46.31552" lon="6.87285">
        <ele>1076</ele>
        <time>2000-01-01T04:11:57.000Z</time>
      </trkpt>
      <trkpt lat="46.31542" lon="6.87306">
        <ele>1061.7</ele>
        <time>2000-01-01T04:12:07.000Z</time>
      </trkpt>
      <trkpt lat="46.31541" lon="6.87337">
        <ele>1065</ele>
        <time>2000-01-01T04:12:17.000Z</time>
      </trkpt>
      <trkpt lat="46.31533" lon="6.87372">
        <ele>1062</ele>
        <time>2000-01-01T04:12:27.000Z</time>
      </trkpt>
      <trkpt lat="46.31531" lon="6.87394">
        <ele>1050.2</ele>
        <time>2000-01-01T04:12:37.000Z</time>
      </trkpt>
      <trkpt lat="46.31527" lon="6.87407">
        <ele>1058</ele>
        <time>2000-01-01T04:12:47.000Z</time>
      </trkpt>
      <trkpt lat="46.31516" lon="6.87426">
        <ele>1050.2</ele>
        <time>2000-01-01T04:12:57.000Z</time>
      </trkpt>
      <trkpt lat="46.31513" lon="6.87466">
        <ele>1044</ele>
        <time>2000-01-01T04:13:07.000Z</time>
      </trkpt>
      <trkpt lat="46.31508" lon="6.87486">
        <ele>1040.7</ele>
        <time>2000-01-01T04:13:17.000Z</time>
      </trkpt>
      <trkpt lat="46.31494" lon="6.87521">
        <ele>1029</ele>
        <time>2000-01-01T04:13:27.000Z</time>
      </trkpt>
      <trkpt lat="46.31494" lon="6.8753">
        <ele>1034.4</ele>
        <time>2000-01-01T04:13:37.000Z</time>
      </trkpt>
      <trkpt lat="46.31498" lon="6.87547">
        <ele>1025</ele>
        <time>2000-01-01T04:13:47.000Z</time>
      </trkpt>
      <trkpt lat="46.31498" lon="6.87574">
        <ele>1030.5</ele>
        <time>2000-01-01T04:13:57.000Z</time>
      </trkpt>
      <trkpt lat="46.31492" lon="6.87593">
        <ele>1021</ele>
        <time>2000-01-01T04:14:07.000Z</time>
      </trkpt>
      <trkpt lat="46.31485" lon="6.87598">
        <ele>1025.1</ele>
        <time>2000-01-01T04:14:17.000Z</time>
      </trkpt>
      <trkpt lat="46.3148" lon="6.87592">
        <ele>1026</ele>
        <time>2000-01-01T04:14:27.000Z</time>
      </trkpt>
      <trkpt lat="46.31469" lon="6.87553">
        <ele>1017</ele>
        <time>2000-01-01T04:14:37.000Z</time>
      </trkpt>
      <trkpt lat="46.31459" lon="6.87532">
        <ele>1029.3</ele>
        <time>2000-01-01T04:14:47.000Z</time>
      </trkpt>
      <trkpt lat="46.31435" lon="6.87492">
        <ele>1018</ele>
        <time>2000-01-01T04:14:57.000Z</time>
      </trkpt>
      <trkpt lat="46.3143" lon="6.87461">
        <ele>1019</ele>
        <time>2000-01-01T04:15:07.000Z</time>
      </trkpt>
      <trkpt lat="46.31422" lon="6.87459">
        <ele>1021.8</ele>
        <time>2000-01-01T04:15:17.000Z</time>
      </trkpt>
      <trkpt lat="46.31411" lon="6.87368">
        <ele>1046</ele>
        <time>2000-01-01T04:15:27.000Z</time>
      </trkpt>
      <trkpt lat="46.31404" lon="6.8735">
        <ele>1026.5</ele>
        <time>2000-01-01T04:15:37.000Z</time>
      </trkpt>
      <trkpt lat="46.31391" lon="6.87338">
        <ele>1040</ele>
        <time>2000-01-01T04:15:47.000Z</time>
      </trkpt>
      <trkpt lat="46.31376" lon="6.87337">
        <ele>1028.6</ele>
        <time>2000-01-01T04:15:57.000Z</time>
      </trkpt>
      <trkpt lat="46.31353" lon="6.87342">
        <ele>1035</ele>
        <time>2000-01-01T04:16:07.000Z</time>
      </trkpt>
      <trkpt lat="46.31334" lon="6.87337">
        <ele>1035</ele>
        <time>2000-01-01T04:16:17.000Z</time>
      </trkpt>
      <trkpt lat="46.31328" lon="6.87331">
        <ele>1030.7</ele>
        <time>2000-01-01T04:16:27.000Z</time>
      </trkpt>
      <trkpt lat="46.31317" lon="6.87304">
        <ele>1036</ele>
        <time>2000-01-01T04:16:37.000Z</time>
      </trkpt>
      <trkpt lat="46.31309" lon="6.8729">
        <ele>1034.8</ele>
        <time>2000-01-01T04:16:47.000Z</time>
      </trkpt>
      <trkpt lat="46.31275" lon="6.87264">
        <ele>1035</ele>
        <time>2000-01-01T04:16:57.000Z</time>
      </trkpt>
      <trkpt lat="46.31258" lon="6.87241">
        <ele>1035</ele>
        <time>2000-01-01T04:17:07.000Z</time>
      </trkpt>
      <trkpt lat="46.31245" lon="6.87233">
        <ele>1027.6</ele>
        <time>2000-01-01T04:17:17.000Z</time>
      </trkpt>
      <trkpt lat="46.31238" lon="6.87218">
        <ele>1038</ele>
        <time>2000-01-01T04:17:27.000Z</time>
      </trkpt>
      <trkpt lat="46.31225" lon="6.87177">
        <ele>1041</ele>
        <time>2000-01-01T04:17:37.000Z</time>
      </trkpt>
      <trkpt lat="46.31211" lon="6.87156">
        <ele>1044</ele>
        <time>2000-01-01T04:17:47.000Z</time>
      </trkpt>
      <trkpt lat="46.31185" lon="6.87108">
        <ele>1050</ele>
        <time>2000-01-01T04:17:57.000Z</time>
      </trkpt>
      <trkpt lat="46.31175" lon="6.87098">
        <ele>1025.4</ele>
        <time>2000-01-01T04:18:07.000Z</time>
      </trkpt>
      <trkpt lat="46.31162" lon="6.87098">
        <ele>1052</ele>
        <time>2000-01-01T04:18:17.000Z</time>
      </trkpt>
      <trkpt lat="46.31155" lon="6.87101">
        <ele>1026.2</ele>
        <time>2000-01-01T04:18:27.000Z</time>
      </trkpt>
      <trkpt lat="46.31141" lon="6.87116">
        <ele>1048</ele>
        <time>2000-01-01T04:18:37.000Z</time>
      </trkpt>
      <trkpt lat="46.31128" lon="6.87166">
        <ele>1045</ele>
        <time>2000-01-01T04:18:47.000Z</time>
      </trkpt>
      <trkpt lat="46.31119" lon="6.8718">
        <ele>1027.9</ele>
        <time>2000-01-01T04:18:57.000Z</time>
      </trkpt>
      <trkpt lat="46.31103" lon="6.87194">
        <ele>1044</ele>
        <time>2000-01-01T04:19:07.000Z</time>
      </trkpt>
      <trkpt lat="46.31085" lon="6.87219">
        <ele>1043</ele>
        <time>2000-01-01T04:19:17.000Z</time>
      </trkpt>
      <trkpt lat="46.31081" lon="6.87227">
        <ele>1031.5</ele>
        <time>2000-01-01T04:19:27.000Z</time>
      </trkpt>
      <trkpt lat="46.31078" lon="6.87255">
        <ele>1032</ele>
        <time>2000-01-01T04:19:37.000Z</time>
      </trkpt>
      <trkpt lat="46.31074" lon="6.87264">
        <ele>1030</ele>
        <time>2000-01-01T04:19:47.000Z</time>
      </trkpt>
      <trkpt lat="46.3107" lon="6.87269">
        <ele>1029.6</ele>
        <time>2000-01-01T04:19:57.000Z</time>
      </trkpt>
      <trkpt lat="46.31061" lon="6.87275">
        <ele>1030</ele>
        <time>2000-01-01T04:20:07.000Z</time>
      </trkpt>
      <trkpt lat="46.31035" lon="6.87278">
        <ele>1029</ele>
        <time>2000-01-01T04:20:17.000Z</time>
      </trkpt>
      <trkpt lat="46.31016" lon="6.87271">
        <ele>1029</ele>
        <time>2000-01-01T04:20:27.000Z</time>
      </trkpt>
      <trkpt lat="46.30975" lon="6.87266">
        <ele>1030</ele>
        <time>2000-01-01T04:20:37.000Z</time>
      </trkpt>
      <trkpt lat="46.30965" lon="6.87258">
        <ele>1026</ele>
        <time>2000-01-01T04:20:47.000Z</time>
      </trkpt>
      <trkpt lat="46.30941" lon="6.87217">
        <ele>1043</ele>
        <time>2000-01-01T04:20:57.000Z</time>
      </trkpt>
      <trkpt lat="46.30929" lon="6.87201">
        <ele>1028.7</ele>
        <time>2000-01-01T04:21:07.000Z</time>
      </trkpt>
      <trkpt lat="46.30915" lon="6.8719">
        <ele>1052</ele>
        <time>2000-01-01T04:21:17.000Z</time>
      </trkpt>
      <trkpt lat="46.30898" lon="6.87182">
        <ele>1027.6</ele>
        <time>2000-01-01T04:21:27.000Z</time>
      </trkpt>
      <trkpt lat="46.30889" lon="6.87181">
        <ele>1053</ele>
        <time>2000-01-01T04:21:37.000Z</time>
      </trkpt>
      <trkpt lat="46.30879" lon="6.87186">
        <ele>1029</ele>
        <time>2000-01-01T04:21:47.000Z</time>
      </trkpt>
      <trkpt lat="46.30875" lon="6.87196">
        <ele>1029.3</ele>
        <time>2000-01-01T04:21:57.000Z</time>
      </trkpt>
      <trkpt lat="46.30857" lon="6.87264">
        <ele>1052</ele>
        <time>2000-01-01T04:22:07.000Z</time>
      </trkpt>
      <trkpt lat="46.30847" lon="6.87315">
        <ele>1052</ele>
        <time>2000-01-01T04:22:17.000Z</time>
      </trkpt>
      <trkpt lat="46.30843" lon="6.87325">
        <ele>1032.7</ele>
        <time>2000-01-01T04:22:27.000Z</time>
      </trkpt>
      <trkpt lat="46.30829" lon="6.87338">
        <ele>1058</ele>
        <time>2000-01-01T04:22:37.000Z</time>
      </trkpt>
      <trkpt lat="46.30822" lon="6.87354">
        <ele>1037.8</ele>
        <time>2000-01-01T04:22:47.000Z</time>
      </trkpt>
      <trkpt lat="46.3082" lon="6.87363">
        <ele>1065</ele>
        <time>2000-01-01T04:22:57.000Z</time>
      </trkpt>
      <trkpt lat="46.30822" lon="6.87383">
        <ele>1039.6</ele>
        <time>2000-01-01T04:23:07.000Z</time>
      </trkpt>
      <trkpt lat="46.30808" lon="6.87408">
        <ele>1067</ele>
        <time>2000-01-01T04:23:17.000Z</time>
      </trkpt>
      <trkpt lat="46.30803" lon="6.87432">
        <ele>1043.2</ele>
        <time>2000-01-01T04:23:27.000Z</time>
      </trkpt>
      <trkpt lat="46.30804" lon="6.87457">
        <ele>1065</ele>
        <time>2000-01-01T04:23:37.000Z</time>
      </trkpt>
      <trkpt lat="46.30819" lon="6.87502">
        <ele>1065</ele>
        <time>2000-01-01T04:23:47.000Z</time>
      </trkpt>
      <trkpt lat="46.30821" lon="6.87555">
        <ele>1065</ele>
        <time>2000-01-01T04:23:57.000Z</time>
      </trkpt>
      <trkpt lat="46.30817" lon="6.87615">
        <ele>1076</ele>
        <time>2000-01-01T04:24:07.000Z</time>
      </trkpt>
      <trkpt lat="46.3081" lon="6.87661">
        <ele>1075</ele>
        <time>2000-01-01T04:24:17.000Z</time>
      </trkpt>
      <trkpt lat="46.30812" lon="6.877">
        <ele>1075</ele>
        <time>2000-01-01T04:24:27.000Z</time>
      </trkpt>
      <trkpt lat="46.30802" lon="6.87747">
        <ele>1075</ele>
        <time>2000-01-01T04:24:37.000Z</time>
      </trkpt>
      <trkpt lat="46.3079" lon="6.87766">
        <ele>1064</ele>
        <time>2000-01-01T04:24:47.000Z</time>
      </trkpt>
      <trkpt lat="46.30768" lon="6.8778">
        <ele>1075</ele>
        <time>2000-01-01T04:24:57.000Z</time>
      </trkpt>
      <trkpt lat="46.30762" lon="6.87781">
        <ele>1067.1</ele>
        <time>2000-01-01T04:25:07.000Z</time>
      </trkpt>
      <trkpt lat="46.30706" lon="6.87777">
        <ele>1075</ele>
        <time>2000-01-01T04:25:17.000Z</time>
      </trkpt>
      <trkpt lat="46.30695" lon="6.87773">
        <ele>1075.4</ele>
        <time>2000-01-01T04:25:27.000Z</time>
      </trkpt>
      <trkpt lat="46.30681" lon="6.87762">
        <ele>1078</ele>
        <time>2000-01-01T04:25:37.000Z</time>
      </trkpt>
      <trkpt lat="46.30665" lon="6.87724">
        <ele>1084</ele>
        <time>2000-01-01T04:25:47.000Z</time>
      </trkpt>
      <trkpt lat="46.30661" lon="6.87687">
        <ele>1090</ele>
        <time>2000-01-01T04:25:57.000Z</time>
      </trkpt>
      <trkpt lat="46.30649" lon="6.87653">
        <ele>1093</ele>
        <time>2000-01-01T04:26:07.000Z</time>
      </trkpt>
      <trkpt lat="46.30635" lon="6.87634">
        <ele>1095</ele>
        <time>2000-01-01T04:26:17.000Z</time>
      </trkpt>
      <trkpt lat="46.30625" lon="6.87626">
        <ele>1089.9</ele>
        <time>2000-01-01T04:26:27.000Z</time>
      </trkpt>
      <trkpt lat="46.30575" lon="6.87603">
        <ele>1105</ele>
        <time>2000-01-01T04:26:37.000Z</time>
      </trkpt>
      <trkpt lat="46.30552" lon="6.87604">
        <ele>1116</ele>
        <time>2000-01-01T04:26:47.000Z</time>
      </trkpt>
      <trkpt lat="46.30539" lon="6.87608">
        <ele>1098.4</ele>
        <time>2000-01-01T04:26:57.000Z</time>
      </trkpt>
      <trkpt lat="46.30501" lon="6.87631">
        <ele>1126</ele>
        <time>2000-01-01T04:27:07.000Z</time>
      </trkpt>
      <trkpt lat="46.30476" lon="6.8764">
        <ele>1125</ele>
        <time>2000-01-01T04:27:17.000Z</time>
      </trkpt>
      <trkpt lat="46.30459" lon="6.87666">
        <ele>1125</ele>
        <time>2000-01-01T04:27:27.000Z</time>
      </trkpt>
      <trkpt lat="46.30431" lon="6.87679">
        <ele>1124</ele>
        <time>2000-01-01T04:27:37.000Z</time>
      </trkpt>
      <trkpt lat="46.304" lon="6.87707">
        <ele>1121</ele>
        <time>2000-01-01T04:27:47.000Z</time>
      </trkpt>
      <trkpt lat="46.30373" lon="6.8772">
        <ele>1121</ele>
        <time>2000-01-01T04:27:57.000Z</time>
      </trkpt>
      <trkpt lat="46.3036" lon="6.8773">
        <ele>1117.7</ele>
        <time>2000-01-01T04:28:07.000Z</time>
      </trkpt>
      <trkpt lat="46.30332" lon="6.87761">
        <ele>1112</ele>
        <time>2000-01-01T04:28:17.000Z</time>
      </trkpt>
      <trkpt lat="46.30319" lon="6.87763">
        <ele>1119.2</ele>
        <time>2000-01-01T04:28:27.000Z</time>
      </trkpt>
      <trkpt lat="46.30309" lon="6.87755">
        <ele>1118</ele>
        <time>2000-01-01T04:28:37.000Z</time>
      </trkpt>
      <trkpt lat="46.30304" lon="6.87748">
        <ele>1121.3</ele>
        <time>2000-01-01T04:28:47.000Z</time>
      </trkpt>
      <trkpt lat="46.303" lon="6.87733">
        <ele>1120.9</ele>
        <time>2000-01-01T04:28:57.000Z</time>
      </trkpt>
      <trkpt lat="46.30304" lon="6.87666">
        <ele>1125</ele>
        <time>2000-01-01T04:29:07.000Z</time>
      </trkpt>
      <trkpt lat="46.30303" lon="6.87636">
        <ele>1134</ele>
        <time>2000-01-01T04:29:17.000Z</time>
      </trkpt>
      <trkpt lat="46.30295" lon="6.87603">
        <ele>1136</ele>
        <time>2000-01-01T04:29:27.000Z</time>
      </trkpt>
      <trkpt lat="46.30286" lon="6.87569">
        <ele>1147</ele>
        <time>2000-01-01T04:29:37.000Z</time>
      </trkpt>
      <trkpt lat="46.30269" lon="6.87544">
        <ele>1147</ele>
        <time>2000-01-01T04:29:47.000Z</time>
      </trkpt>
      <trkpt lat="46.30246" lon="6.87527">
        <ele>1146</ele>
        <time>2000-01-01T04:29:57.000Z</time>
      </trkpt>
      <trkpt lat="46.30217" lon="6.87506">
        <ele>1146</ele>
        <time>2000-01-01T04:30:07.000Z</time>
      </trkpt>
      <trkpt lat="46.3019" lon="6.87496">
        <ele>1142</ele>
        <time>2000-01-01T04:30:17.000Z</time>
      </trkpt>
      <trkpt lat="46.30151" lon="6.8748">
        <ele>1142</ele>
        <time>2000-01-01T04:30:27.000Z</time>
      </trkpt>
      <trkpt lat="46.30142" lon="6.87466">
        <ele>1128.7</ele>
        <time>2000-01-01T04:30:37.000Z</time>
      </trkpt>
      <trkpt lat="46.30127" lon="6.8743">
        <ele>1155</ele>
        <time>2000-01-01T04:30:47.000Z</time>
      </trkpt>
      <trkpt lat="46.30117" lon="6.87418">
        <ele>1133.2</ele>
        <time>2000-01-01T04:30:57.000Z</time>
      </trkpt>
      <trkpt lat="46.30106" lon="6.87414">
        <ele>1156</ele>
        <time>2000-01-01T04:31:07.000Z</time>
      </trkpt>
      <trkpt lat="46.30092" lon="6.87419">
        <ele>1136.1</ele>
        <time>2000-01-01T04:31:17.000Z</time>
      </trkpt>
      <trkpt lat="46.3007" lon="6.8744">
        <ele>1159</ele>
        <time>2000-01-01T04:31:27.000Z</time>
      </trkpt>
      <trkpt lat="46.3003" lon="6.87461">
        <ele>1162</ele>
        <time>2000-01-01T04:31:37.000Z</time>
      </trkpt>
      <trkpt lat="46.29994" lon="6.8749">
        <ele>1165</ele>
        <time>2000-01-01T04:31:47.000Z</time>
      </trkpt>
      <trkpt lat="46.29989" lon="6.87493">
        <ele>1145</ele>
        <time>2000-01-01T04:31:57.000Z</time>
      </trkpt>
      <trkpt lat="46.29981" lon="6.87489">
        <ele>1148</ele>
        <time>2000-01-01T04:32:07.000Z</time>
      </trkpt>
      <trkpt lat="46.29981" lon="6.87482">
        <ele>1165</ele>
        <time>2000-01-01T04:32:17.000Z</time>
      </trkpt>
      <trkpt lat="46.29984" lon="6.87477">
        <ele>1151.8</ele>
        <time>2000-01-01T04:32:27.000Z</time>
      </trkpt>
      <trkpt lat="46.30008" lon="6.8746">
        <ele>1175</ele>
        <time>2000-01-01T04:32:37.000Z</time>
      </trkpt>
      <trkpt lat="46.30021" lon="6.87442">
        <ele>1153.4</ele>
        <time>2000-01-01T04:32:47.000Z</time>
      </trkpt>
      <trkpt lat="46.30026" lon="6.87429">
        <ele>1178</ele>
        <time>2000-01-01T04:32:57.000Z</time>
      </trkpt>
      <trkpt lat="46.3004" lon="6.87374">
        <ele>1186</ele>
        <time>2000-01-01T04:33:07.000Z</time>
      </trkpt>
      <trkpt lat="46.30054" lon="6.87349">
        <ele>1188</ele>
        <time>2000-01-01T04:33:17.000Z</time>
      </trkpt>
      <trkpt lat="46.30073" lon="6.87327">
        <ele>1189</ele>
        <time>2000-01-01T04:33:27.000Z</time>
      </trkpt>
      <trkpt lat="46.30098" lon="6.87315">
        <ele>1189</ele>
        <time>2000-01-01T04:33:37.000Z</time>
      </trkpt>
      <trkpt lat="46.30131" lon="6.87318">
        <ele>1191</ele>
        <time>2000-01-01T04:33:47.000Z</time>
      </trkpt>
      <trkpt lat="46.30159" lon="6.87313">
        <ele>1192</ele>
        <time>2000-01-01T04:33:57.000Z</time>
      </trkpt>
      <trkpt lat="46.30179" lon="6.87324">
        <ele>1193</ele>
        <time>2000-01-01T04:34:07.000Z</time>
      </trkpt>
      <trkpt lat="46.30184" lon="6.87321">
        <ele>1177.5</ele>
        <time>2000-01-01T04:34:17.000Z</time>
      </trkpt>
      <trkpt lat="46.30183" lon="6.87312">
        <ele>1179.1</ele>
        <time>2000-01-01T04:34:27.000Z</time>
      </trkpt>
      <trkpt lat="46.30176" lon="6.87305">
        <ele>1196</ele>
        <time>2000-01-01T04:34:37.000Z</time>
      </trkpt>
      <trkpt lat="46.30149" lon="6.87292">
        <ele>1199</ele>
        <time>2000-01-01T04:34:47.000Z</time>
      </trkpt>
      <trkpt lat="46.30124" lon="6.87269">
        <ele>1201</ele>
        <time>2000-01-01T04:34:57.000Z</time>
      </trkpt>
      <trkpt lat="46.301" lon="6.87261">
        <ele>1204</ele>
        <time>2000-01-01T04:35:07.000Z</time>
      </trkpt>
      <trkpt lat="46.30072" lon="6.87251">
        <ele>1212</ele>
        <time>2000-01-01T04:35:17.000Z</time>
      </trkpt>
      <trkpt lat="46.30056" lon="6.87251">
        <ele>1189.7</ele>
        <time>2000-01-01T04:35:27.000Z</time>
      </trkpt>
      <trkpt lat="46.3005" lon="6.87254">
        <ele>1212</ele>
        <time>2000-01-01T04:35:37.000Z</time>
      </trkpt>
      <trkpt lat="46.30017" lon="6.87293">
        <ele>1213</ele>
        <time>2000-01-01T04:35:47.000Z</time>
      </trkpt>
      <trkpt lat="46.29987" lon="6.87311">
        <ele>1216</ele>
        <time>2000-01-01T04:35:57.000Z</time>
      </trkpt>
      <trkpt lat="46.29972" lon="6.87314">
        <ele>1198.9</ele>
        <time>2000-01-01T04:36:07.000Z</time>
      </trkpt>
      <trkpt lat="46.2994" lon="6.8731">
        <ele>1228</ele>
        <time>2000-01-01T04:36:17.000Z</time>
      </trkpt>
      <trkpt lat="46.29916" lon="6.87318">
        <ele>1227</ele>
        <time>2000-01-01T04:36:27.000Z</time>
      </trkpt>
      <trkpt lat="46.29873" lon="6.87327">
        <ele>1230</ele>
        <time>2000-01-01T04:36:37.000Z</time>
      </trkpt>
      <trkpt lat="46.29836" lon="6.87313">
        <ele>1234</ele>
        <time>2000-01-01T04:36:47.000Z</time>
      </trkpt>
      <trkpt lat="46.29806" lon="6.8732">
        <ele>1235</ele>
        <time>2000-01-01T04:36:57.000Z</time>
      </trkpt>
      <trkpt lat="46.2978" lon="6.87325">
        <ele>1236</ele>
        <time>2000-01-01T04:37:07.000Z</time>
      </trkpt>
      <trkpt lat="46.29748" lon="6.87332">
        <ele>1242</ele>
        <time>2000-01-01T04:37:17.000Z</time>
      </trkpt>
      <trkpt lat="46.29734" lon="6.8734">
        <ele>1222.6</ele>
        <time>2000-01-01T04:37:27.000Z</time>
      </trkpt>
      <trkpt lat="46.29718" lon="6.87344">
        <ele>1244</ele>
        <time>2000-01-01T04:37:37.000Z</time>
      </trkpt>
      <trkpt lat="46.29675" lon="6.87345">
        <ele>1248</ele>
        <time>2000-01-01T04:37:47.000Z</time>
      </trkpt>
      <trkpt lat="46.29641" lon="6.87359">
        <ele>1252</ele>
        <time>2000-01-01T04:37:57.000Z</time>
      </trkpt>
      <trkpt lat="46.29618" lon="6.87365">
        <ele>1252</ele>
        <time>2000-01-01T04:38:07.000Z</time>
      </trkpt>
      <trkpt lat="46.2959" lon="6.87366">
        <ele>1257</ele>
        <time>2000-01-01T04:38:17.000Z</time>
      </trkpt>
      <trkpt lat="46.29578" lon="6.87372">
        <ele>1240.3</ele>
        <time>2000-01-01T04:38:27.000Z</time>
      </trkpt>
      <trkpt lat="46.29558" lon="6.87375">
        <ele>1266</ele>
        <time>2000-01-01T04:38:37.000Z</time>
      </trkpt>
      <trkpt lat="46.29543" lon="6.87373">
        <ele>1246.5</ele>
        <time>2000-01-01T04:38:47.000Z</time>
      </trkpt>
      <trkpt lat="46.29529" lon="6.87381">
        <ele>1265</ele>
        <time>2000-01-01T04:38:57.000Z</time>
      </trkpt>
      <trkpt lat="46.2952" lon="6.87393">
        <ele>1247.8</ele>
        <time>2000-01-01T04:39:07.000Z</time>
      </trkpt>
      <trkpt lat="46.29474" lon="6.87476">
        <ele>1266</ele>
        <time>2000-01-01T04:39:17.000Z</time>
      </trkpt>
      <trkpt lat="46.2946" lon="6.87485">
        <ele>1256.1</ele>
        <time>2000-01-01T04:39:27.000Z</time>
      </trkpt>
      <trkpt lat="46.29449" lon="6.87482">
        <ele>1268</ele>
        <time>2000-01-01T04:39:37.000Z</time>
      </trkpt>
      <trkpt lat="46.29417" lon="6.87463">
        <ele>1287</ele>
        <time>2000-01-01T04:39:47.000Z</time>
      </trkpt>
      <trkpt lat="46.29393" lon="6.87456">
        <ele>1295</ele>
        <time>2000-01-01T04:39:57.000Z</time>
      </trkpt>
      <trkpt lat="46.2937" lon="6.87465">
        <ele>1295</ele>
        <time>2000-01-01T04:40:07.000Z</time>
      </trkpt>
      <trkpt lat="46.29337" lon="6.87496">
        <ele>1295</ele>
        <time>2000-01-01T04:40:17.000Z</time>
      </trkpt>
      <trkpt lat="46.2931" lon="6.87501">
        <ele>1295</ele>
        <time>2000-01-01T04:40:27.000Z</time>
      </trkpt>
      <trkpt lat="46.29274" lon="6.87508">
        <ele>1296</ele>
        <time>2000-01-01T04:40:37.000Z</time>
      </trkpt>
      <trkpt lat="46.29249" lon="6.87515">
        <ele>1296</ele>
        <time>2000-01-01T04:40:47.000Z</time>
      </trkpt>
      <trkpt lat="46.29242" lon="6.87521">
        <ele>1281.8</ele>
        <time>2000-01-01T04:40:57.000Z</time>
      </trkpt>
      <trkpt lat="46.29237" lon="6.87534">
        <ele>1282.1</ele>
        <time>2000-01-01T04:41:07.000Z</time>
      </trkpt>
      <trkpt lat="46.29238" lon="6.87559">
        <ele>1295</ele>
        <time>2000-01-01T04:41:17.000Z</time>
      </trkpt>
      <trkpt lat="46.29235" lon="6.87593">
        <ele>1295</ele>
        <time>2000-01-01T04:41:27.000Z</time>
      </trkpt>
      <trkpt lat="46.29232" lon="6.87627">
        <ele>1296</ele>
        <time>2000-01-01T04:41:37.000Z</time>
      </trkpt>
      <trkpt lat="46.29223" lon="6.87689">
        <ele>1302</ele>
        <time>2000-01-01T04:41:47.000Z</time>
      </trkpt>
      <trkpt lat="46.2922" lon="6.8773">
        <ele>1311</ele>
        <time>2000-01-01T04:41:57.000Z</time>
      </trkpt>
      <trkpt lat="46.29222" lon="6.87766">
        <ele>1312</ele>
        <time>2000-01-01T04:42:07.000Z</time>
      </trkpt>
      <trkpt lat="46.29225" lon="6.8781">
        <ele>1317</ele>
        <time>2000-01-01T04:42:17.000Z</time>
      </trkpt>
      <trkpt lat="46.29232" lon="6.87851">
        <ele>1319</ele>
        <time>2000-01-01T04:42:27.000Z</time>
      </trkpt>
      <trkpt lat="46.29238" lon="6.87884">
        <ele>1319</ele>
        <time>2000-01-01T04:42:37.000Z</time>
      </trkpt>
      <trkpt lat="46.29244" lon="6.87918">
        <ele>1319</ele>
        <time>2000-01-01T04:42:47.000Z</time>
      </trkpt>
      <trkpt lat="46.2924" lon="6.87928">
        <ele>1313.6</ele>
        <time>2000-01-01T04:42:57.000Z</time>
      </trkpt>
      <trkpt lat="46.29233" lon="6.87938">
        <ele>1314.3</ele>
        <time>2000-01-01T04:43:07.000Z</time>
      </trkpt>
      <trkpt lat="46.29201" lon="6.87961">
        <ele>1321</ele>
        <time>2000-01-01T04:43:17.000Z</time>
      </trkpt>
      <trkpt lat="46.29184" lon="6.87965">
        <ele>1318.2</ele>
        <time>2000-01-01T04:43:27.000Z</time>
      </trkpt>
      <trkpt lat="46.29158" lon="6.8794">
        <ele>1336</ele>
        <time>2000-01-01T04:43:37.000Z</time>
      </trkpt>
      <trkpt lat="46.29131" lon="6.87929">
        <ele>1340</ele>
        <time>2000-01-01T04:43:47.000Z</time>
      </trkpt>
      <trkpt lat="46.29092" lon="6.87913">
        <ele>1343</ele>
        <time>2000-01-01T04:43:57.000Z</time>
      </trkpt>
      <trkpt lat="46.29081" lon="6.87905">
        <ele>1328.7</ele>
        <time>2000-01-01T04:44:07.000Z</time>
      </trkpt>
      <trkpt lat="46.29058" lon="6.87875">
        <ele>1358</ele>
        <time>2000-01-01T04:44:17.000Z</time>
      </trkpt>
      <trkpt lat="46.29026" lon="6.87856">
        <ele>1365</ele>
        <time>2000-01-01T04:44:27.000Z</time>
      </trkpt>
      <trkpt lat="46.29012" lon="6.87851">
        <ele>1336.8</ele>
        <time>2000-01-01T04:44:37.000Z</time>
      </trkpt>
      <trkpt lat="46.28993" lon="6.87854">
        <ele>1364</ele>
        <time>2000-01-01T04:44:47.000Z</time>
      </trkpt>
      <trkpt lat="46.28987" lon="6.8786">
        <ele>1337.9</ele>
        <time>2000-01-01T04:44:57.000Z</time>
      </trkpt>
      <trkpt lat="46.28985" lon="6.87872">
        <ele>1339.1</ele>
        <time>2000-01-01T04:45:07.000Z</time>
      </trkpt>
      <trkpt lat="46.28986" lon="6.8789">
        <ele>1364</ele>
        <time>2000-01-01T04:45:17.000Z</time>
      </trkpt>
      <trkpt lat="46.29004" lon="6.8795">
        <ele>1355</ele>
        <time>2000-01-01T04:45:27.000Z</time>
      </trkpt>
      <trkpt lat="46.29001" lon="6.87966">
        <ele>1340.8</ele>
        <time>2000-01-01T04:45:37.000Z</time>
      </trkpt>
      <trkpt lat="46.28991" lon="6.87978">
        <ele>1358</ele>
        <time>2000-01-01T04:45:47.000Z</time>
      </trkpt>
      <trkpt lat="46.28961" lon="6.87988">
        <ele>1361</ele>
        <time>2000-01-01T04:45:57.000Z</time>
      </trkpt>
      <trkpt lat="46.28937" lon="6.88008">
        <ele>1374</ele>
        <time>2000-01-01T04:46:07.000Z</time>
      </trkpt>
      <trkpt lat="46.28919" lon="6.88028">
        <ele>1379</ele>
        <time>2000-01-01T04:46:17.000Z</time>
      </trkpt>
      <trkpt lat="46.28911" lon="6.88042">
        <ele>1351.2</ele>
        <time>2000-01-01T04:46:27.000Z</time>
      </trkpt>
      <trkpt lat="46.28909" lon="6.88055">
        <ele>1375</ele>
        <time>2000-01-01T04:46:37.000Z</time>
      </trkpt>
      <trkpt lat="46.2891" lon="6.88071">
        <ele>1351.9</ele>
        <time>2000-01-01T04:46:47.000Z</time>
      </trkpt>
      <trkpt lat="46.28922" lon="6.88107">
        <ele>1371</ele>
        <time>2000-01-01T04:46:57.000Z</time>
      </trkpt>
      <trkpt lat="46.28945" lon="6.88152">
        <ele>1368</ele>
        <time>2000-01-01T04:47:07.000Z</time>
      </trkpt>
      <trkpt lat="46.28947" lon="6.88162">
        <ele>1353.4</ele>
        <time>2000-01-01T04:47:17.000Z</time>
      </trkpt>
      <trkpt lat="46.28946" lon="6.88171">
        <ele>1353.9</ele>
        <time>2000-01-01T04:47:27.000Z</time>
      </trkpt>
      <trkpt lat="46.28934" lon="6.88186">
        <ele>1369</ele>
        <time>2000-01-01T04:47:37.000Z</time>
      </trkpt>
      <trkpt lat="46.28915" lon="6.88195">
        <ele>1371</ele>
        <time>2000-01-01T04:47:47.000Z</time>
      </trkpt>
      <trkpt lat="46.28907" lon="6.88201">
        <ele>1358.7</ele>
        <time>2000-01-01T04:47:57.000Z</time>
      </trkpt>
      <trkpt lat="46.28894" lon="6.88224">
        <ele>1372</ele>
        <time>2000-01-01T04:48:07.000Z</time>
      </trkpt>
      <trkpt lat="46.28864" lon="6.88239">
        <ele>1370</ele>
        <time>2000-01-01T04:48:17.000Z</time>
      </trkpt>
      <trkpt lat="46.28858" lon="6.88245">
        <ele>1362.6</ele>
        <time>2000-01-01T04:48:27.000Z</time>
      </trkpt>
      <trkpt lat="46.28843" lon="6.88278">
        <ele>1368</ele>
        <time>2000-01-01T04:48:37.000Z</time>
      </trkpt>
      <trkpt lat="46.28853" lon="6.88299">
        <ele>1361.3</ele>
        <time>2000-01-01T04:48:47.000Z</time>
      </trkpt>
      <trkpt lat="46.2886" lon="6.88326">
        <ele>1359</ele>
        <time>2000-01-01T04:48:57.000Z</time>
      </trkpt>
      <trkpt lat="46.28859" lon="6.88341">
        <ele>1357.3</ele>
        <time>2000-01-01T04:49:07.000Z</time>
      </trkpt>
      <trkpt lat="46.28855" lon="6.88348">
        <ele>1355.8</ele>
        <time>2000-01-01T04:49:17.000Z</time>
      </trkpt>
      <trkpt lat="46.28844" lon="6.88353">
        <ele>1351</ele>
        <time>2000-01-01T04:49:27.000Z</time>
      </trkpt>
      <trkpt lat="46.28807" lon="6.88347">
        <ele>1347</ele>
        <time>2000-01-01T04:49:37.000Z</time>
      </trkpt>
      <trkpt lat="46.28784" lon="6.88333">
        <ele>1345</ele>
        <time>2000-01-01T04:49:47.000Z</time>
      </trkpt>
      <trkpt lat="46.28758" lon="6.88316">
        <ele>1345</ele>
        <time>2000-01-01T04:49:57.000Z</time>
      </trkpt>
      <trkpt lat="46.28736" lon="6.88293">
        <ele>1347</ele>
        <time>2000-01-01T04:50:07.000Z</time>
      </trkpt>
      <trkpt lat="46.28702" lon="6.88298">
        <ele>1347</ele>
        <time>2000-01-01T04:50:17.000Z</time>
      </trkpt>
      <trkpt lat="46.28692" lon="6.88304">
        <ele>1341.4</ele>
        <time>2000-01-01T04:50:27.000Z</time>
      </trkpt>
      <trkpt lat="46.28687" lon="6.88298">
        <ele>1343.2</ele>
        <time>2000-01-01T04:50:37.000Z</time>
      </trkpt>
      <trkpt lat="46.28663" lon="6.88295">
        <ele>1347</ele>
        <time>2000-01-01T04:50:47.000Z</time>
      </trkpt>
      <trkpt lat="46.28638" lon="6.88289">
        <ele>1350</ele>
        <time>2000-01-01T04:50:57.000Z</time>
      </trkpt>
      <trkpt lat="46.28609" lon="6.88281">
        <ele>1353</ele>
        <time>2000-01-01T04:51:07.000Z</time>
      </trkpt>
      <trkpt lat="46.28581" lon="6.88284">
        <ele>1354</ele>
        <time>2000-01-01T04:51:17.000Z</time>
      </trkpt>
      <trkpt lat="46.28542" lon="6.88287">
        <ele>1355</ele>
        <time>2000-01-01T04:51:27.000Z</time>
      </trkpt>
      <trkpt lat="46.28505" lon="6.88285">
        <ele>1355</ele>
        <time>2000-01-01T04:51:37.000Z</time>
      </trkpt>
      <trkpt lat="46.28471" lon="6.88276">
        <ele>1359</ele>
        <time>2000-01-01T04:51:47.000Z</time>
      </trkpt>
      <trkpt lat="46.28445" lon="6.88258">
        <ele>1364</ele>
        <time>2000-01-01T04:51:57.000Z</time>
      </trkpt>
      <trkpt lat="46.28421" lon="6.88249">
        <ele>1367</ele>
        <time>2000-01-01T04:52:07.000Z</time>
      </trkpt>
      <trkpt lat="46.284" lon="6.88245">
        <ele>1371</ele>
        <time>2000-01-01T04:52:17.000Z</time>
      </trkpt>
      <trkpt lat="46.28388" lon="6.88245">
        <ele>1355.4</ele>
        <time>2000-01-01T04:52:27.000Z</time>
      </trkpt>
      <trkpt lat="46.28309" lon="6.88273">
        <ele>1380</ele>
        <time>2000-01-01T04:52:37.000Z</time>
      </trkpt>
      <trkpt lat="46.28278" lon="6.8827">
        <ele>1382</ele>
        <time>2000-01-01T04:52:47.000Z</time>
      </trkpt>
      <trkpt lat="46.28252" lon="6.88267">
        <ele>1385</ele>
        <time>2000-01-01T04:52:57.000Z</time>
      </trkpt>
      <trkpt lat="46.28221" lon="6.88263">
        <ele>1388</ele>
        <time>2000-01-01T04:53:07.000Z</time>
      </trkpt>
      <trkpt lat="46.28199" lon="6.88253">
        <ele>1393</ele>
        <time>2000-01-01T04:53:17.000Z</time>
      </trkpt>
      <trkpt lat="46.28176" lon="6.88243">
        <ele>1394</ele>
        <time>2000-01-01T04:53:27.000Z</time>
      </trkpt>
      <trkpt lat="46.28143" lon="6.88233">
        <ele>1397</ele>
        <time>2000-01-01T04:53:37.000Z</time>
      </trkpt>
      <trkpt lat="46.28111" lon="6.88223">
        <ele>1400</ele>
        <time>2000-01-01T04:53:47.000Z</time>
      </trkpt>
      <trkpt lat="46.28087" lon="6.88216">
        <ele>1402</ele>
        <time>2000-01-01T04:53:57.000Z</time>
      </trkpt>
      <trkpt lat="46.28061" lon="6.88208">
        <ele>1402</ele>
        <time>2000-01-01T04:54:07.000Z</time>
      </trkpt>
      <trkpt lat="46.28029" lon="6.88204">
        <ele>1404</ele>
        <time>2000-01-01T04:54:17.000Z</time>
      </trkpt>
      <trkpt lat="46.28" lon="6.88196">
        <ele>1404</ele>
        <time>2000-01-01T04:54:27.000Z</time>
      </trkpt>
      <trkpt lat="46.27976" lon="6.8819">
        <ele>1404</ele>
        <time>2000-01-01T04:54:37.000Z</time>
      </trkpt>
      <trkpt lat="46.27949" lon="6.88183">
        <ele>1408</ele>
        <time>2000-01-01T04:54:47.000Z</time>
      </trkpt>
      <trkpt lat="46.2792" lon="6.88181">
        <ele>1411</ele>
        <time>2000-01-01T04:54:57.000Z</time>
      </trkpt>
      <trkpt lat="46.27905" lon="6.88175">
        <ele>1402.1</ele>
        <time>2000-01-01T04:55:07.000Z</time>
      </trkpt>
      <trkpt lat="46.27888" lon="6.88162">
        <ele>1413</ele>
        <time>2000-01-01T04:55:17.000Z</time>
      </trkpt>
      <trkpt lat="46.27865" lon="6.8815">
        <ele>1414</ele>
        <time>2000-01-01T04:55:27.000Z</time>
      </trkpt>
      <trkpt lat="46.27841" lon="6.88144">
        <ele>1416</ele>
        <time>2000-01-01T04:55:37.000Z</time>
      </trkpt>
      <trkpt lat="46.27818" lon="6.88133">
        <ele>1418</ele>
        <time>2000-01-01T04:55:47.000Z</time>
      </trkpt>
      <trkpt lat="46.27793" lon="6.88122">
        <ele>1420</ele>
        <time>2000-01-01T04:55:57.000Z</time>
      </trkpt>
      <trkpt lat="46.27755" lon="6.88112">
        <ele>1426</ele>
        <time>2000-01-01T04:56:07.000Z</time>
      </trkpt>
      <trkpt lat="46.27725" lon="6.88096">
        <ele>1428</ele>
        <time>2000-01-01T04:56:17.000Z</time>
      </trkpt>
      <trkpt lat="46.27695" lon="6.8808">
        <ele>1434</ele>
        <time>2000-01-01T04:56:27.000Z</time>
      </trkpt>
      <trkpt lat="46.27658" lon="6.88061">
        <ele>1436</ele>
        <time>2000-01-01T04:56:37.000Z</time>
      </trkpt>
      <trkpt lat="46.27631" lon="6.88052">
        <ele>1436</ele>
        <time>2000-01-01T04:56:47.000Z</time>
      </trkpt>
      <trkpt lat="46.27594" lon="6.88047">
        <ele>1438</ele>
        <time>2000-01-01T04:56:57.000Z</time>
      </trkpt>
      <trkpt lat="46.27572" lon="6.88039">
        <ele>1440</ele>
        <time>2000-01-01T04:57:07.000Z</time>
      </trkpt>
      <trkpt lat="46.2755" lon="6.8802">
        <ele>1441</ele>
        <time>2000-01-01T04:57:17.000Z</time>
      </trkpt>
      <trkpt lat="46.27522" lon="6.88004">
        <ele>1443</ele>
        <time>2000-01-01T04:57:27.000Z</time>
      </trkpt>
      <trkpt lat="46.27508" lon="6.87991">
        <ele>1435.6</ele>
        <time>2000-01-01T04:57:37.000Z</time>
      </trkpt>
      <trkpt lat="46.27479" lon="6.87981">
        <ele>1446</ele>
        <time>2000-01-01T04:57:47.000Z</time>
      </trkpt>
      <trkpt lat="46.27458" lon="6.87966">
        <ele>1450</ele>
        <time>2000-01-01T04:57:57.000Z</time>
      </trkpt>
      <trkpt lat="46.27436" lon="6.8795">
        <ele>1450</ele>
        <time>2000-01-01T04:58:07.000Z</time>
      </trkpt>
      <trkpt lat="46.27408" lon="6.87937">
        <ele>1455</ele>
        <time>2000-01-01T04:58:17.000Z</time>
      </trkpt>
      <trkpt lat="46.27385" lon="6.87926">
        <ele>1458</ele>
        <time>2000-01-01T04:58:27.000Z</time>
      </trkpt>
      <trkpt lat="46.27361" lon="6.87915">
        <ele>1461</ele>
        <time>2000-01-01T04:58:37.000Z</time>
      </trkpt>
      <trkpt lat="46.2734" lon="6.87909">
        <ele>1468</ele>
        <time>2000-01-01T04:58:47.000Z</time>
      </trkpt>
      <trkpt lat="46.27318" lon="6.87888">
        <ele>1469</ele>
        <time>2000-01-01T04:58:57.000Z</time>
      </trkpt>
      <trkpt lat="46.27288" lon="6.8786">
        <ele>1468</ele>
        <time>2000-01-01T04:59:07.000Z</time>
      </trkpt>
      <trkpt lat="46.2728" lon="6.87837">
        <ele>1457.8</ele>
        <time>2000-01-01T04:59:17.000Z</time>
      </trkpt>
      <trkpt lat="46.27273" lon="6.87742">
        <ele>1468</ele>
        <time>2000-01-01T04:59:27.000Z</time>
      </trkpt>
      <trkpt lat="46.27271" lon="6.87728">
        <ele>1462.7</ele>
        <time>2000-01-01T04:59:37.000Z</time>
      </trkpt>
      <trkpt lat="46.27259" lon="6.87708">
        <ele>1477</ele>
        <time>2000-01-01T04:59:47.000Z</time>
      </trkpt>
      <trkpt lat="46.2725" lon="6.877">
        <ele>1466</ele>
        <time>2000-01-01T04:59:57.000Z</time>
      </trkpt>
      <trkpt lat="46.27244" lon="6.87697">
        <ele>1466.6</ele>
        <time>2000-01-01T05:00:07.000Z</time>
      </trkpt>
      <trkpt lat="46.27234" lon="6.87699">
        <ele>1481</ele>
        <time>2000-01-01T05:00:17.000Z</time>
      </trkpt>
      <trkpt lat="46.27215" lon="6.87729">
        <ele>1482</ele>
        <time>2000-01-01T05:00:27.000Z</time>
      </trkpt>
      <trkpt lat="46.27188" lon="6.87774">
        <ele>1490</ele>
        <time>2000-01-01T05:00:37.000Z</time>
      </trkpt>
      <trkpt lat="46.27184" lon="6.87789">
        <ele>1474.7</ele>
        <time>2000-01-01T05:00:47.000Z</time>
      </trkpt>
      <trkpt lat="46.27187" lon="6.87822">
        <ele>1493</ele>
        <time>2000-01-01T05:00:57.000Z</time>
      </trkpt>
      <trkpt lat="46.27195" lon="6.87847">
        <ele>1493</ele>
        <time>2000-01-01T05:01:07.000Z</time>
      </trkpt>
      <trkpt lat="46.27228" lon="6.87891">
        <ele>1497</ele>
        <time>2000-01-01T05:01:17.000Z</time>
      </trkpt>
      <trkpt lat="46.27239" lon="6.87911">
        <ele>1486.8</ele>
        <time>2000-01-01T05:01:27.000Z</time>
      </trkpt>
      <trkpt lat="46.27316" lon="6.88">
        <ele>1500</ele>
        <time>2000-01-01T05:01:37.000Z</time>
      </trkpt>
      <trkpt lat="46.27324" lon="6.88015">
        <ele>1497.8</ele>
        <time>2000-01-01T05:01:47.000Z</time>
      </trkpt>
      <trkpt lat="46.2735" lon="6.88043">
        <ele>1505</ele>
        <time>2000-01-01T05:01:57.000Z</time>
      </trkpt>
      <trkpt lat="46.27379" lon="6.88085">
        <ele>1511</ele>
        <time>2000-01-01T05:02:07.000Z</time>
      </trkpt>
      <trkpt lat="46.27388" lon="6.88126">
        <ele>1514</ele>
        <time>2000-01-01T05:02:17.000Z</time>
      </trkpt>
      <trkpt lat="46.27395" lon="6.8816">
        <ele>1517</ele>
        <time>2000-01-01T05:02:27.000Z</time>
      </trkpt>
      <trkpt lat="46.27403" lon="6.88197">
        <ele>1520</ele>
        <time>2000-01-01T05:02:37.000Z</time>
      </trkpt>
      <trkpt lat="46.27395" lon="6.88237">
        <ele>1526</ele>
        <time>2000-01-01T05:02:47.000Z</time>
      </trkpt>
      <trkpt lat="46.27377" lon="6.88287">
        <ele>1530</ele>
        <time>2000-01-01T05:02:57.000Z</time>
      </trkpt>
      <trkpt lat="46.27372" lon="6.88294">
        <ele>1520.9</ele>
        <time>2000-01-01T05:03:07.000Z</time>
      </trkpt>
      <trkpt lat="46.27363" lon="6.88298">
        <ele>1522.2</ele>
        <time>2000-01-01T05:03:17.000Z</time>
      </trkpt>
      <trkpt lat="46.2735" lon="6.88299">
        <ele>1535</ele>
        <time>2000-01-01T05:03:27.000Z</time>
      </trkpt>
      <trkpt lat="46.27336" lon="6.88296">
        <ele>1524.4</ele>
        <time>2000-01-01T05:03:37.000Z</time>
      </trkpt>
      <trkpt lat="46.27331" lon="6.88292">
        <ele>1536</ele>
        <time>2000-01-01T05:03:47.000Z</time>
      </trkpt>
      <trkpt lat="46.27326" lon="6.88277">
        <ele>1523.6</ele>
        <time>2000-01-01T05:03:57.000Z</time>
      </trkpt>
      <trkpt lat="46.27326" lon="6.88265">
        <ele>1536</ele>
        <time>2000-01-01T05:04:07.000Z</time>
      </trkpt>
      <trkpt lat="46.27332" lon="6.8823">
        <ele>1536</ele>
        <time>2000-01-01T05:04:17.000Z</time>
      </trkpt>
      <trkpt lat="46.27339" lon="6.88189">
        <ele>1538</ele>
        <time>2000-01-01T05:04:27.000Z</time>
      </trkpt>
      <trkpt lat="46.27338" lon="6.88178">
        <ele>1528.4</ele>
        <time>2000-01-01T05:04:37.000Z</time>
      </trkpt>
      <trkpt lat="46.27333" lon="6.88165">
        <ele>1530</ele>
        <time>2000-01-01T05:04:47.000Z</time>
      </trkpt>
      <trkpt lat="46.2732" lon="6.88145">
        <ele>1539</ele>
        <time>2000-01-01T05:04:57.000Z</time>
      </trkpt>
      <trkpt lat="46.273" lon="6.88125">
        <ele>1541</ele>
        <time>2000-01-01T05:05:07.000Z</time>
      </trkpt>
      <trkpt lat="46.2728" lon="6.88105">
        <ele>1546</ele>
        <time>2000-01-01T05:05:17.000Z</time>
      </trkpt>
      <trkpt lat="46.27262" lon="6.88081">
        <ele>1545</ele>
        <time>2000-01-01T05:05:27.000Z</time>
      </trkpt>
      <trkpt lat="46.27241" lon="6.88054">
        <ele>1546</ele>
        <time>2000-01-01T05:05:37.000Z</time>
      </trkpt>
      <trkpt lat="46.27216" lon="6.88029">
        <ele>1548</ele>
        <time>2000-01-01T05:05:47.000Z</time>
      </trkpt>
      <trkpt lat="46.27196" lon="6.88008">
        <ele>1548</ele>
        <time>2000-01-01T05:05:57.000Z</time>
      </trkpt>
      <trkpt lat="46.27173" lon="6.87983">
        <ele>1549</ele>
        <time>2000-01-01T05:06:07.000Z</time>
      </trkpt>
      <trkpt lat="46.27155" lon="6.87975">
        <ele>1550</ele>
        <time>2000-01-01T05:06:17.000Z</time>
      </trkpt>
      <trkpt lat="46.27139" lon="6.87976">
        <ele>1551.3</ele>
        <time>2000-01-01T05:06:27.000Z</time>
      </trkpt>
      <trkpt lat="46.27109" lon="6.87986">
        <ele>1565</ele>
        <time>2000-01-01T05:06:37.000Z</time>
      </trkpt>
      <trkpt lat="46.27096" lon="6.87985">
        <ele>1555.8</ele>
        <time>2000-01-01T05:06:47.000Z</time>
      </trkpt>
      <trkpt lat="46.27084" lon="6.87977">
        <ele>1564</ele>
        <time>2000-01-01T05:06:57.000Z</time>
      </trkpt>
      <trkpt lat="46.27063" lon="6.87956">
        <ele>1564</ele>
        <time>2000-01-01T05:07:07.000Z</time>
      </trkpt>
      <trkpt lat="46.27037" lon="6.87931">
        <ele>1566</ele>
        <time>2000-01-01T05:07:17.000Z</time>
      </trkpt>
      <trkpt lat="46.26998" lon="6.87907">
        <ele>1572</ele>
        <time>2000-01-01T05:07:27.000Z</time>
      </trkpt>
      <trkpt lat="46.26977" lon="6.87882">
        <ele>1573</ele>
        <time>2000-01-01T05:07:37.000Z</time>
      </trkpt>
      <trkpt lat="46.26949" lon="6.87848">
        <ele>1575</ele>
        <time>2000-01-01T05:07:47.000Z</time>
      </trkpt>
      <trkpt lat="46.26924" lon="6.87835">
        <ele>1577</ele>
        <time>2000-01-01T05:07:57.000Z</time>
      </trkpt>
      <trkpt lat="46.2689" lon="6.87817">
        <ele>1578</ele>
        <time>2000-01-01T05:08:07.000Z</time>
      </trkpt>
      <trkpt lat="46.26876" lon="6.87798">
        <ele>1578</ele>
        <time>2000-01-01T05:08:17.000Z</time>
      </trkpt>
      <trkpt lat="46.26854" lon="6.87755">
        <ele>1578</ele>
        <time>2000-01-01T05:08:27.000Z</time>
      </trkpt>
      <trkpt lat="46.26848" lon="6.87747">
        <ele>1570.1</ele>
        <time>2000-01-01T05:08:37.000Z</time>
      </trkpt>
      <trkpt lat="46.26833" lon="6.87745">
        <ele>1581</ele>
        <time>2000-01-01T05:08:47.000Z</time>
      </trkpt>
      <trkpt lat="46.26814" lon="6.87751">
        <ele>1583</ele>
        <time>2000-01-01T05:08:57.000Z</time>
      </trkpt>
      <trkpt lat="46.26792" lon="6.87752">
        <ele>1585</ele>
        <time>2000-01-01T05:09:07.000Z</time>
      </trkpt>
      <trkpt lat="46.26783" lon="6.87749">
        <ele>1574.4</ele>
        <time>2000-01-01T05:09:17.000Z</time>
      </trkpt>
      <trkpt lat="46.26775" lon="6.87742">
        <ele>1574.8</ele>
        <time>2000-01-01T05:09:27.000Z</time>
      </trkpt>
      <trkpt lat="46.26764" lon="6.87725">
        <ele>1588</ele>
        <time>2000-01-01T05:09:37.000Z</time>
      </trkpt>
      <trkpt lat="46.26749" lon="6.87687">
        <ele>1589</ele>
        <time>2000-01-01T05:09:47.000Z</time>
      </trkpt>
      <trkpt lat="46.26734" lon="6.87625">
        <ele>1590</ele>
        <time>2000-01-01T05:09:57.000Z</time>
      </trkpt>
      <trkpt lat="46.26721" lon="6.8761">
        <ele>1578</ele>
        <time>2000-01-01T05:10:07.000Z</time>
      </trkpt>
      <trkpt lat="46.26696" lon="6.87601">
        <ele>1598</ele>
        <time>2000-01-01T05:10:17.000Z</time>
      </trkpt>
      <trkpt lat="46.26688" lon="6.87595">
        <ele>1581</ele>
        <time>2000-01-01T05:10:27.000Z</time>
      </trkpt>
      <trkpt lat="46.26679" lon="6.87582">
        <ele>1604</ele>
        <time>2000-01-01T05:10:37.000Z</time>
      </trkpt>
      <trkpt lat="46.26667" lon="6.87555">
        <ele>1609</ele>
        <time>2000-01-01T05:10:47.000Z</time>
      </trkpt>
      <trkpt lat="46.26662" lon="6.87529">
        <ele>1610</ele>
        <time>2000-01-01T05:10:57.000Z</time>
      </trkpt>
      <trkpt lat="46.26663" lon="6.87522">
        <ele>1584.4</ele>
        <time>2000-01-01T05:11:07.000Z</time>
      </trkpt>
      <trkpt lat="46.26673" lon="6.87508">
        <ele>1609</ele>
        <time>2000-01-01T05:11:17.000Z</time>
      </trkpt>
      <trkpt lat="46.26687" lon="6.87497">
        <ele>1587.7</ele>
        <time>2000-01-01T05:11:27.000Z</time>
      </trkpt>
      <trkpt lat="46.26719" lon="6.87498">
        <ele>1609</ele>
        <time>2000-01-01T05:11:37.000Z</time>
      </trkpt>
      <trkpt lat="46.26741" lon="6.87483">
        <ele>1608</ele>
        <time>2000-01-01T05:11:47.000Z</time>
      </trkpt>
      <trkpt lat="46.26763" lon="6.87467">
        <ele>1608</ele>
        <time>2000-01-01T05:11:57.000Z</time>
      </trkpt>
      <trkpt lat="46.26789" lon="6.87463">
        <ele>1611</ele>
        <time>2000-01-01T05:12:07.000Z</time>
      </trkpt>
      <trkpt lat="46.26792" lon="6.87459">
        <ele>1593.5</ele>
        <time>2000-01-01T05:12:17.000Z</time>
      </trkpt>
      <trkpt lat="46.26804" lon="6.87414">
        <ele>1615</ele>
        <time>2000-01-01T05:12:27.000Z</time>
      </trkpt>
      <trkpt lat="46.26818" lon="6.87351">
        <ele>1616</ele>
        <time>2000-01-01T05:12:37.000Z</time>
      </trkpt>
      <trkpt lat="46.26822" lon="6.87345">
        <ele>1606</ele>
        <time>2000-01-01T05:12:47.000Z</time>
      </trkpt>
      <trkpt lat="46.26826" lon="6.87344">
        <ele>1604.8</ele>
        <time>2000-01-01T05:12:57.000Z</time>
      </trkpt>
      <trkpt lat="46.26832" lon="6.87348">
        <ele>1602.3</ele>
        <time>2000-01-01T05:13:07.000Z</time>
      </trkpt>
      <trkpt lat="46.26846" lon="6.87377">
        <ele>1615</ele>
        <time>2000-01-01T05:13:17.000Z</time>
      </trkpt>
      <trkpt lat="46.26853" lon="6.87385">
        <ele>1602.3</ele>
        <time>2000-01-01T05:13:27.000Z</time>
      </trkpt>
      <trkpt lat="46.26887" lon="6.87388">
        <ele>1614</ele>
        <time>2000-01-01T05:13:37.000Z</time>
      </trkpt>
      <trkpt lat="46.26911" lon="6.87399">
        <ele>1615</ele>
        <time>2000-01-01T05:13:47.000Z</time>
      </trkpt>
      <trkpt lat="46.26924" lon="6.87396">
        <ele>1608.9</ele>
        <time>2000-01-01T05:13:57.000Z</time>
      </trkpt>
      <trkpt lat="46.26936" lon="6.87353">
        <ele>1617</ele>
        <time>2000-01-01T05:14:07.000Z</time>
      </trkpt>
      <trkpt lat="46.26953" lon="6.87319">
        <ele>1618</ele>
        <time>2000-01-01T05:14:17.000Z</time>
      </trkpt>
      <trkpt lat="46.26966" lon="6.87291">
        <ele>1620</ele>
        <time>2000-01-01T05:14:27.000Z</time>
      </trkpt>
      <trkpt lat="46.2698" lon="6.87263">
        <ele>1622</ele>
        <time>2000-01-01T05:14:37.000Z</time>
      </trkpt>
      <trkpt lat="46.26984" lon="6.87246">
        <ele>1611.9</ele>
        <time>2000-01-01T05:14:47.000Z</time>
      </trkpt>
      <trkpt lat="46.26984" lon="6.87236">
        <ele>1622</ele>
        <time>2000-01-01T05:14:57.000Z</time>
      </trkpt>
      <trkpt lat="46.26983" lon="6.87228">
        <ele>1611.3</ele>
        <time>2000-01-01T05:15:07.000Z</time>
      </trkpt>
      <trkpt lat="46.26972" lon="6.87211">
        <ele>1621</ele>
        <time>2000-01-01T05:15:17.000Z</time>
      </trkpt>
      <trkpt lat="46.26956" lon="6.87191">
        <ele>1621</ele>
        <time>2000-01-01T05:15:27.000Z</time>
      </trkpt>
      <trkpt lat="46.26926" lon="6.87162">
        <ele>1620</ele>
        <time>2000-01-01T05:15:37.000Z</time>
      </trkpt>
      <trkpt lat="46.26917" lon="6.87147">
        <ele>1610.8</ele>
        <time>2000-01-01T05:15:47.000Z</time>
      </trkpt>
      <trkpt lat="46.26914" lon="6.87138">
        <ele>1620</ele>
        <time>2000-01-01T05:15:57.000Z</time>
      </trkpt>
      <trkpt lat="46.26914" lon="6.87101">
        <ele>1619</ele>
        <time>2000-01-01T05:16:07.000Z</time>
      </trkpt>
      <trkpt lat="46.26915" lon="6.87055">
        <ele>1619</ele>
        <time>2000-01-01T05:16:17.000Z</time>
      </trkpt>
      <trkpt lat="46.2691" lon="6.8702">
        <ele>1623</ele>
        <time>2000-01-01T05:16:27.000Z</time>
      </trkpt>
      <trkpt lat="46.2691" lon="6.87006">
        <ele>1615.5</ele>
        <time>2000-01-01T05:16:37.000Z</time>
      </trkpt>
      <trkpt lat="46.26915" lon="6.86994">
        <ele>1627</ele>
        <time>2000-01-01T05:16:47.000Z</time>
      </trkpt>
      <trkpt lat="46.26923" lon="6.86989">
        <ele>1618.4</ele>
        <time>2000-01-01T05:16:57.000Z</time>
      </trkpt>
      <trkpt lat="46.26947" lon="6.86981">
        <ele>1631</ele>
        <time>2000-01-01T05:17:07.000Z</time>
      </trkpt>
      <trkpt lat="46.26977" lon="6.86978">
        <ele>1634</ele>
        <time>2000-01-01T05:17:17.000Z</time>
      </trkpt>
      <trkpt lat="46.27003" lon="6.86975">
        <ele>1634</ele>
        <time>2000-01-01T05:17:27.000Z</time>
      </trkpt>
      <trkpt lat="46.27035" lon="6.86972">
        <ele>1635</ele>
        <time>2000-01-01T05:17:37.000Z</time>
      </trkpt>
      <trkpt lat="46.27054" lon="6.86958">
        <ele>1640</ele>
        <time>2000-01-01T05:17:47.000Z</time>
      </trkpt>
      <trkpt lat="46.27069" lon="6.86933">
        <ele>1639</ele>
        <time>2000-01-01T05:17:57.000Z</time>
      </trkpt>
      <trkpt lat="46.27075" lon="6.86928">
        <ele>1628.2</ele>
        <time>2000-01-01T05:18:07.000Z</time>
      </trkpt>
      <trkpt lat="46.27081" lon="6.86927">
        <ele>1628.1</ele>
        <time>2000-01-01T05:18:17.000Z</time>
      </trkpt>
      <trkpt lat="46.27142" lon="6.86948">
        <ele>1639</ele>
        <time>2000-01-01T05:18:27.000Z</time>
      </trkpt>
      <trkpt lat="46.27151" lon="6.86948">
        <ele>1631.6</ele>
        <time>2000-01-01T05:18:37.000Z</time>
      </trkpt>
      <trkpt lat="46.27208" lon="6.86913">
        <ele>1641</ele>
        <time>2000-01-01T05:18:47.000Z</time>
      </trkpt>
      <trkpt lat="46.27213" lon="6.86903">
        <ele>1636</ele>
        <time>2000-01-01T05:18:57.000Z</time>
      </trkpt>
      <trkpt lat="46.27212" lon="6.86895">
        <ele>1636.2</ele>
        <time>2000-01-01T05:19:07.000Z</time>
      </trkpt>
      <trkpt lat="46.27204" lon="6.86886">
        <ele>1648</ele>
        <time>2000-01-01T05:19:17.000Z</time>
      </trkpt>
      <trkpt lat="46.27187" lon="6.86885">
        <ele>1638.1</ele>
        <time>2000-01-01T05:19:27.000Z</time>
      </trkpt>
      <trkpt lat="46.27144" lon="6.86899">
        <ele>1650</ele>
        <time>2000-01-01T05:19:37.000Z</time>
      </trkpt>
      <trkpt lat="46.2712" lon="6.86897">
        <ele>1653</ele>
        <time>2000-01-01T05:19:47.000Z</time>
      </trkpt>
      <trkpt lat="46.27097" lon="6.86885">
        <ele>1657</ele>
        <time>2000-01-01T05:19:57.000Z</time>
      </trkpt>
      <trkpt lat="46.2707" lon="6.8688">
        <ele>1660</ele>
        <time>2000-01-01T05:20:07.000Z</time>
      </trkpt>
      <trkpt lat="46.27032" lon="6.86873">
        <ele>1660</ele>
        <time>2000-01-01T05:20:17.000Z</time>
      </trkpt>
      <trkpt lat="46.26989" lon="6.86864">
        <ele>1663</ele>
        <time>2000-01-01T05:20:27.000Z</time>
      </trkpt>
      <trkpt lat="46.2695" lon="6.86851">
        <ele>1664</ele>
        <time>2000-01-01T05:20:37.000Z</time>
      </trkpt>
      <trkpt lat="46.26911" lon="6.86826">
        <ele>1665</ele>
        <time>2000-01-01T05:20:47.000Z</time>
      </trkpt>
      <trkpt lat="46.26878" lon="6.86816">
        <ele>1666</ele>
        <time>2000-01-01T05:20:57.000Z</time>
      </trkpt>
      <trkpt lat="46.26853" lon="6.86799">
        <ele>1669</ele>
        <time>2000-01-01T05:21:07.000Z</time>
      </trkpt>
      <trkpt lat="46.26816" lon="6.86773">
        <ele>1669</ele>
        <time>2000-01-01T05:21:17.000Z</time>
      </trkpt>
      <trkpt lat="46.26798" lon="6.86768">
        <ele>1659.8</ele>
        <time>2000-01-01T05:21:27.000Z</time>
      </trkpt>
      <trkpt lat="46.26769" lon="6.86772">
        <ele>1669</ele>
        <time>2000-01-01T05:21:37.000Z</time>
      </trkpt>
      <trkpt lat="46.26752" lon="6.86767">
        <ele>1662.5</ele>
        <time>2000-01-01T05:21:47.000Z</time>
      </trkpt>
      <trkpt lat="46.26718" lon="6.86734">
        <ele>1673</ele>
        <time>2000-01-01T05:21:57.000Z</time>
      </trkpt>
      <trkpt lat="46.26684" lon="6.86689">
        <ele>1680</ele>
        <time>2000-01-01T05:22:07.000Z</time>
      </trkpt>
      <trkpt lat="46.26665" lon="6.8667">
        <ele>1682</ele>
        <time>2000-01-01T05:22:17.000Z</time>
      </trkpt>
      <trkpt lat="46.26645" lon="6.86651">
        <ele>1683</ele>
        <time>2000-01-01T05:22:27.000Z</time>
      </trkpt>
      <trkpt lat="46.26638" lon="6.86647">
        <ele>1675.9</ele>
        <time>2000-01-01T05:22:37.000Z</time>
      </trkpt>
      <trkpt lat="46.26621" lon="6.86652">
        <ele>1683</ele>
        <time>2000-01-01T05:22:47.000Z</time>
      </trkpt>
      <trkpt lat="46.26598" lon="6.86677">
        <ele>1683</ele>
        <time>2000-01-01T05:22:57.000Z</time>
      </trkpt>
      <trkpt lat="46.26575" lon="6.86695">
        <ele>1685</ele>
        <time>2000-01-01T05:23:07.000Z</time>
      </trkpt>
      <trkpt lat="46.26547" lon="6.86718">
        <ele>1689</ele>
        <time>2000-01-01T05:23:17.000Z</time>
      </trkpt>
      <trkpt lat="46.26535" lon="6.86731">
        <ele>1683.5</ele>
        <time>2000-01-01T05:23:27.000Z</time>
      </trkpt>
      <trkpt lat="46.26516" lon="6.86766">
        <ele>1689</ele>
        <time>2000-01-01T05:23:37.000Z</time>
      </trkpt>
      <trkpt lat="46.26508" lon="6.86775">
        <ele>1682.8</ele>
        <time>2000-01-01T05:23:47.000Z</time>
      </trkpt>
      <trkpt lat="46.26496" lon="6.86781">
        <ele>1689</ele>
        <time>2000-01-01T05:23:57.000Z</time>
      </trkpt>
      <trkpt lat="46.26467" lon="6.86804">
        <ele>1690</ele>
        <time>2000-01-01T05:24:07.000Z</time>
      </trkpt>
      <trkpt lat="46.26439" lon="6.86826">
        <ele>1689</ele>
        <time>2000-01-01T05:24:17.000Z</time>
      </trkpt>
      <trkpt lat="46.264" lon="6.86857">
        <ele>1689</ele>
        <time>2000-01-01T05:24:27.000Z</time>
      </trkpt>
      <trkpt lat="46.2638" lon="6.86866">
        <ele>1689</ele>
        <time>2000-01-01T05:24:37.000Z</time>
      </trkpt>
      <trkpt lat="46.26358" lon="6.86886">
        <ele>1689</ele>
        <time>2000-01-01T05:24:47.000Z</time>
      </trkpt>
      <trkpt lat="46.2633" lon="6.86896">
        <ele>1690</ele>
        <time>2000-01-01T05:24:57.000Z</time>
      </trkpt>
      <trkpt lat="46.26298" lon="6.86914">
        <ele>1692</ele>
        <time>2000-01-01T05:25:07.000Z</time>
      </trkpt>
      <trkpt lat="46.26268" lon="6.86948">
        <ele>1693</ele>
        <time>2000-01-01T05:25:17.000Z</time>
      </trkpt>
      <trkpt lat="46.26263" lon="6.86959">
        <ele>1689.3</ele>
        <time>2000-01-01T05:25:27.000Z</time>
      </trkpt>
      <trkpt lat="46.26257" lon="6.86988">
        <ele>1694</ele>
        <time>2000-01-01T05:25:37.000Z</time>
      </trkpt>
      <trkpt lat="46.26251" lon="6.87028">
        <ele>1694</ele>
        <time>2000-01-01T05:25:47.000Z</time>
      </trkpt>
      <trkpt lat="46.26246" lon="6.87052">
        <ele>1693.9</ele>
        <time>2000-01-01T05:25:57.000Z</time>
      </trkpt>
      <trkpt lat="46.26245" lon="6.87085">
        <ele>1699</ele>
        <time>2000-01-01T05:26:07.000Z</time>
      </trkpt>
      <trkpt lat="46.26247" lon="6.87101">
        <ele>1697.1</ele>
        <time>2000-01-01T05:26:17.000Z</time>
      </trkpt>
      <trkpt lat="46.26246" lon="6.87106">
        <ele>1698</ele>
        <time>2000-01-01T05:26:27.000Z</time>
      </trkpt>
      <trkpt lat="46.2624" lon="6.8711">
        <ele>1701</ele>
        <time>2000-01-01T05:26:37.000Z</time>
      </trkpt>
      <trkpt lat="46.26231" lon="6.87105">
        <ele>1700.7</ele>
        <time>2000-01-01T05:26:47.000Z</time>
      </trkpt>
      <trkpt lat="46.26196" lon="6.87069">
        <ele>1710</ele>
        <time>2000-01-01T05:26:57.000Z</time>
      </trkpt>
      <trkpt lat="46.26193" lon="6.87045">
        <ele>1706.2</ele>
        <time>2000-01-01T05:27:07.000Z</time>
      </trkpt>
      <trkpt lat="46.26197" lon="6.87005">
        <ele>1712</ele>
        <time>2000-01-01T05:27:17.000Z</time>
      </trkpt>
      <trkpt lat="46.26194" lon="6.86953">
        <ele>1716</ele>
        <time>2000-01-01T05:27:27.000Z</time>
      </trkpt>
      <trkpt lat="46.26189" lon="6.86911">
        <ele>1722</ele>
        <time>2000-01-01T05:27:37.000Z</time>
      </trkpt>
      <trkpt lat="46.26184" lon="6.86876">
        <ele>1725</ele>
        <time>2000-01-01T05:27:47.000Z</time>
      </trkpt>
      <trkpt lat="46.26179" lon="6.86836">
        <ele>1728</ele>
        <time>2000-01-01T05:27:57.000Z</time>
      </trkpt>
      <trkpt lat="46.26183" lon="6.8681">
        <ele>1724.3</ele>
        <time>2000-01-01T05:28:07.000Z</time>
      </trkpt>
      <trkpt lat="46.26194" lon="6.86799">
        <ele>1731</ele>
        <time>2000-01-01T05:28:17.000Z</time>
      </trkpt>
      <trkpt lat="46.26197" lon="6.86791">
        <ele>1723.4</ele>
        <time>2000-01-01T05:28:27.000Z</time>
      </trkpt>
      <trkpt lat="46.26195" lon="6.86783">
        <ele>1724.4</ele>
        <time>2000-01-01T05:28:37.000Z</time>
      </trkpt>
      <trkpt lat="46.26188" lon="6.86783">
        <ele>1734</ele>
        <time>2000-01-01T05:28:47.000Z</time>
      </trkpt>
      <trkpt lat="46.26173" lon="6.86797">
        <ele>1728.3</ele>
        <time>2000-01-01T05:28:57.000Z</time>
      </trkpt>
      <trkpt lat="46.26166" lon="6.8681">
        <ele>1738</ele>
        <time>2000-01-01T05:29:07.000Z</time>
      </trkpt>
      <trkpt lat="46.26158" lon="6.8685">
        <ele>1737</ele>
        <time>2000-01-01T05:29:17.000Z</time>
      </trkpt>
      <trkpt lat="46.26151" lon="6.86882">
        <ele>1737</ele>
        <time>2000-01-01T05:29:27.000Z</time>
      </trkpt>
      <trkpt lat="46.26145" lon="6.86915">
        <ele>1741</ele>
        <time>2000-01-01T05:29:37.000Z</time>
      </trkpt>
      <trkpt lat="46.26138" lon="6.86934">
        <ele>1736.5</ele>
        <time>2000-01-01T05:29:47.000Z</time>
      </trkpt>
      <trkpt lat="46.26071" lon="6.87033">
        <ele>1749</ele>
        <time>2000-01-01T05:29:57.000Z</time>
      </trkpt>
      <trkpt lat="46.26046" lon="6.87062">
        <ele>1753</ele>
        <time>2000-01-01T05:30:07.000Z</time>
      </trkpt>
      <trkpt lat="46.2602" lon="6.87078">
        <ele>1759</ele>
        <time>2000-01-01T05:30:17.000Z</time>
      </trkpt>
      <trkpt lat="46.25998" lon="6.87079">
        <ele>1764</ele>
        <time>2000-01-01T05:30:27.000Z</time>
      </trkpt>
      <trkpt lat="46.25971" lon="6.8706">
        <ele>1770</ele>
        <time>2000-01-01T05:30:37.000Z</time>
      </trkpt>
      <trkpt lat="46.25957" lon="6.8706">
        <ele>1761.5</ele>
        <time>2000-01-01T05:30:47.000Z</time>
      </trkpt>
      <trkpt lat="46.25948" lon="6.87065">
        <ele>1769</ele>
        <time>2000-01-01T05:30:57.000Z</time>
      </trkpt>
      <trkpt lat="46.25943" lon="6.87073">
        <ele>1763.1</ele>
        <time>2000-01-01T05:31:07.000Z</time>
      </trkpt>
      <trkpt lat="46.25941" lon="6.87087">
        <ele>1763.4</ele>
        <time>2000-01-01T05:31:17.000Z</time>
      </trkpt>
      <trkpt lat="46.25943" lon="6.87094">
        <ele>1768</ele>
        <time>2000-01-01T05:31:27.000Z</time>
      </trkpt>
      <trkpt lat="46.25961" lon="6.87133">
        <ele>1767</ele>
        <time>2000-01-01T05:31:37.000Z</time>
      </trkpt>
      <trkpt lat="46.25961" lon="6.87147">
        <ele>1766.2</ele>
        <time>2000-01-01T05:31:47.000Z</time>
      </trkpt>
      <trkpt lat="46.25959" lon="6.87153">
        <ele>1766.4</ele>
        <time>2000-01-01T05:31:57.000Z</time>
      </trkpt>
      <trkpt lat="46.25946" lon="6.87161">
        <ele>1768</ele>
        <time>2000-01-01T05:32:07.000Z</time>
      </trkpt>
      <trkpt lat="46.25926" lon="6.87166">
        <ele>1770</ele>
        <time>2000-01-01T05:32:17.000Z</time>
      </trkpt>
      <trkpt lat="46.25915" lon="6.87167">
        <ele>1772.1</ele>
        <time>2000-01-01T05:32:27.000Z</time>
      </trkpt>
      <trkpt lat="46.2589" lon="6.87162">
        <ele>1781</ele>
        <time>2000-01-01T05:32:37.000Z</time>
      </trkpt>
      <trkpt lat="46.25873" lon="6.87168">
        <ele>1777.4</ele>
        <time>2000-01-01T05:32:47.000Z</time>
      </trkpt>
      <trkpt lat="46.25867" lon="6.8718">
        <ele>1783</ele>
        <time>2000-01-01T05:32:57.000Z</time>
      </trkpt>
      <trkpt lat="46.25865" lon="6.8721">
        <ele>1785</ele>
        <time>2000-01-01T05:33:07.000Z</time>
      </trkpt>
      <trkpt lat="46.25862" lon="6.87227">
        <ele>1780.3</ele>
        <time>2000-01-01T05:33:17.000Z</time>
      </trkpt>
      <trkpt lat="46.25842" lon="6.87274">
        <ele>1786</ele>
        <time>2000-01-01T05:33:27.000Z</time>
      </trkpt>
      <trkpt lat="46.25824" lon="6.87313">
        <ele>1786</ele>
        <time>2000-01-01T05:33:37.000Z</time>
      </trkpt>
      <trkpt lat="46.25821" lon="6.87323">
        <ele>1788.4</ele>
        <time>2000-01-01T05:33:47.000Z</time>
      </trkpt>
      <trkpt lat="46.2582" lon="6.87328">
        <ele>1788.5</ele>
        <time>2000-01-01T05:33:57.000Z</time>
      </trkpt>
      <trkpt lat="46.25823" lon="6.87372">
        <ele>1786</ele>
        <time>2000-01-01T05:34:07.000Z</time>
      </trkpt>
      <trkpt lat="46.2582" lon="6.8739">
        <ele>1782.8</ele>
        <time>2000-01-01T05:34:17.000Z</time>
      </trkpt>
      <trkpt lat="46.25802" lon="6.87424">
        <ele>1783</ele>
        <time>2000-01-01T05:34:27.000Z</time>
      </trkpt>
      <trkpt lat="46.25768" lon="6.87464">
        <ele>1777</ele>
        <time>2000-01-01T05:34:37.000Z</time>
      </trkpt>
      <trkpt lat="46.25756" lon="6.87488">
        <ele>1775</ele>
        <time>2000-01-01T05:34:47.000Z</time>
      </trkpt>
      <trkpt lat="46.25728" lon="6.87507">
        <ele>1769</ele>
        <time>2000-01-01T05:34:57.000Z</time>
      </trkpt>
      <trkpt lat="46.25705" lon="6.87524">
        <ele>1767</ele>
        <time>2000-01-01T05:35:07.000Z</time>
      </trkpt>
      <trkpt lat="46.25675" lon="6.87545">
        <ele>1761</ele>
        <time>2000-01-01T05:35:17.000Z</time>
      </trkpt>
      <trkpt lat="46.25654" lon="6.87561">
        <ele>1760</ele>
        <time>2000-01-01T05:35:27.000Z</time>
      </trkpt>
      <trkpt lat="46.25634" lon="6.8758">
        <ele>1756</ele>
        <time>2000-01-01T05:35:37.000Z</time>
      </trkpt>
      <trkpt lat="46.25611" lon="6.8761">
        <ele>1756</ele>
        <time>2000-01-01T05:35:47.000Z</time>
      </trkpt>
      <trkpt lat="46.25605" lon="6.87613">
        <ele>1754.6</ele>
        <time>2000-01-01T05:35:57.000Z</time>
      </trkpt>
      <trkpt lat="46.25596" lon="6.8761">
        <ele>1753.1</ele>
        <time>2000-01-01T05:36:07.000Z</time>
      </trkpt>
      <trkpt lat="46.25585" lon="6.87614">
        <ele>1752</ele>
        <time>2000-01-01T05:36:17.000Z</time>
      </trkpt>
      <trkpt lat="46.25553" lon="6.87633">
        <ele>1746</ele>
        <time>2000-01-01T05:36:27.000Z</time>
      </trkpt>
      <trkpt lat="46.2552" lon="6.87667">
        <ele>1739</ele>
        <time>2000-01-01T05:36:37.000Z</time>
      </trkpt>
      <trkpt lat="46.25483" lon="6.87682">
        <ele>1735</ele>
        <time>2000-01-01T05:36:47.000Z</time>
      </trkpt>
      <trkpt lat="46.25447" lon="6.87714">
        <ele>1732</ele>
        <time>2000-01-01T05:36:57.000Z</time>
      </trkpt>
      <trkpt lat="46.25423" lon="6.87733">
        <ele>1731</ele>
        <time>2000-01-01T05:37:07.000Z</time>
      </trkpt>
      <trkpt lat="46.25388" lon="6.87761">
        <ele>1728</ele>
        <time>2000-01-01T05:37:17.000Z</time>
      </trkpt>
      <trkpt lat="46.2538" lon="6.87772">
        <ele>1726.4</ele>
        <time>2000-01-01T05:37:27.000Z</time>
      </trkpt>
      <trkpt lat="46.25366" lon="6.87804">
        <ele>1725</ele>
        <time>2000-01-01T05:37:37.000Z</time>
      </trkpt>
      <trkpt lat="46.25359" lon="6.87814">
        <ele>1724</ele>
        <time>2000-01-01T05:37:47.000Z</time>
      </trkpt>
      <trkpt lat="46.25354" lon="6.87817">
        <ele>1723.8</ele>
        <time>2000-01-01T05:37:57.000Z</time>
      </trkpt>
      <trkpt lat="46.25326" lon="6.87819">
        <ele>1718</ele>
        <time>2000-01-01T05:38:07.000Z</time>
      </trkpt>
      <trkpt lat="46.2531" lon="6.87828">
        <ele>1718.1</ele>
        <time>2000-01-01T05:38:17.000Z</time>
      </trkpt>
      <trkpt lat="46.25262" lon="6.8787">
        <ele>1714</ele>
        <time>2000-01-01T05:38:27.000Z</time>
      </trkpt>
      <trkpt lat="46.25245" lon="6.87873">
        <ele>1711.8</ele>
        <time>2000-01-01T05:38:37.000Z</time>
      </trkpt>
      <trkpt lat="46.25219" lon="6.87859">
        <ele>1706</ele>
        <time>2000-01-01T05:38:47.000Z</time>
      </trkpt>
      <trkpt lat="46.25208" lon="6.87856">
        <ele>1706.1</ele>
        <time>2000-01-01T05:38:57.000Z</time>
      </trkpt>
      <trkpt lat="46.25175" lon="6.87855">
        <ele>1698</ele>
        <time>2000-01-01T05:39:07.000Z</time>
      </trkpt>
      <trkpt lat="46.25159" lon="6.87859">
        <ele>1701.3</ele>
        <time>2000-01-01T05:39:17.000Z</time>
      </trkpt>
      <trkpt lat="46.25146" lon="6.87866">
        <ele>1695</ele>
        <time>2000-01-01T05:39:27.000Z</time>
      </trkpt>
      <trkpt lat="46.25125" lon="6.87885">
        <ele>1694</ele>
        <time>2000-01-01T05:39:37.000Z</time>
      </trkpt>
      <trkpt lat="46.25117" lon="6.87883">
        <ele>1697.2</ele>
        <time>2000-01-01T05:39:47.000Z</time>
      </trkpt>
      <trkpt lat="46.25119" lon="6.87874">
        <ele>1696.3</ele>
        <time>2000-01-01T05:39:57.000Z</time>
      </trkpt>
      <trkpt lat="46.25129" lon="6.87865">
        <ele>1690</ele>
        <time>2000-01-01T05:40:07.000Z</time>
      </trkpt>
      <trkpt lat="46.25144" lon="6.87843">
        <ele>1690</ele>
        <time>2000-01-01T05:40:17.000Z</time>
      </trkpt>
      <trkpt lat="46.25157" lon="6.8781">
        <ele>1689</ele>
        <time>2000-01-01T05:40:27.000Z</time>
      </trkpt>
      <trkpt lat="46.25174" lon="6.87768">
        <ele>1689</ele>
        <time>2000-01-01T05:40:37.000Z</time>
      </trkpt>
      <trkpt lat="46.25192" lon="6.87739">
        <ele>1689</ele>
        <time>2000-01-01T05:40:47.000Z</time>
      </trkpt>
      <trkpt lat="46.252" lon="6.87713">
        <ele>1688</ele>
        <time>2000-01-01T05:40:57.000Z</time>
      </trkpt>
      <trkpt lat="46.2521" lon="6.87697">
        <ele>1681.9</ele>
        <time>2000-01-01T05:41:07.000Z</time>
      </trkpt>
      <trkpt lat="46.25211" lon="6.87688">
        <ele>1686</ele>
        <time>2000-01-01T05:41:17.000Z</time>
      </trkpt>
      <trkpt lat="46.25205" lon="6.87664">
        <ele>1680.3</ele>
        <time>2000-01-01T05:41:27.000Z</time>
      </trkpt>
      <trkpt lat="46.25204" lon="6.87642">
        <ele>1684</ele>
        <time>2000-01-01T05:41:37.000Z</time>
      </trkpt>
      <trkpt lat="46.25201" lon="6.87637">
        <ele>1680.3</ele>
        <time>2000-01-01T05:41:47.000Z</time>
      </trkpt>
      <trkpt lat="46.25181" lon="6.87625">
        <ele>1684</ele>
        <time>2000-01-01T05:41:57.000Z</time>
      </trkpt>
      <trkpt lat="46.25174" lon="6.87618">
        <ele>1684.2</ele>
        <time>2000-01-01T05:42:07.000Z</time>
      </trkpt>
      <trkpt lat="46.25168" lon="6.87609">
        <ele>1685.6</ele>
        <time>2000-01-01T05:42:17.000Z</time>
      </trkpt>
      <trkpt lat="46.25164" lon="6.87597">
        <ele>1685</ele>
        <time>2000-01-01T05:42:27.000Z</time>
      </trkpt>
      <trkpt lat="46.25162" lon="6.87572">
        <ele>1685.4</ele>
        <time>2000-01-01T05:42:37.000Z</time>
      </trkpt>
      <trkpt lat="46.25165" lon="6.87538">
        <ele>1689</ele>
        <time>2000-01-01T05:42:47.000Z</time>
      </trkpt>
      <trkpt lat="46.25177" lon="6.87495">
        <ele>1692</ele>
        <time>2000-01-01T05:42:57.000Z</time>
      </trkpt>
      <trkpt lat="46.25175" lon="6.87463">
        <ele>1697</ele>
        <time>2000-01-01T05:43:07.000Z</time>
      </trkpt>
      <trkpt lat="46.25158" lon="6.87437">
        <ele>1701</ele>
        <time>2000-01-01T05:43:17.000Z</time>
      </trkpt>
      <trkpt lat="46.2514" lon="6.87409">
        <ele>1701</ele>
        <time>2000-01-01T05:43:27.000Z</time>
      </trkpt>
      <trkpt lat="46.25105" lon="6.87372">
        <ele>1699</ele>
        <time>2000-01-01T05:43:37.000Z</time>
      </trkpt>
      <trkpt lat="46.25097" lon="6.87358">
        <ele>1698.1</ele>
        <time>2000-01-01T05:43:47.000Z</time>
      </trkpt>
      <trkpt lat="46.25084" lon="6.8731">
        <ele>1695</ele>
        <time>2000-01-01T05:43:57.000Z</time>
      </trkpt>
      <trkpt lat="46.25083" lon="6.87275">
        <ele>1694</ele>
        <time>2000-01-01T05:44:07.000Z</time>
      </trkpt>
      <trkpt lat="46.25079" lon="6.87235">
        <ele>1689</ele>
        <time>2000-01-01T05:44:17.000Z</time>
      </trkpt>
      <trkpt lat="46.25083" lon="6.87195">
        <ele>1685</ele>
        <time>2000-01-01T05:44:27.000Z</time>
      </trkpt>
      <trkpt lat="46.25094" lon="6.87168">
        <ele>1685</ele>
        <time>2000-01-01T05:44:37.000Z</time>
      </trkpt>
      <trkpt lat="46.25121" lon="6.87136">
        <ele>1683</ele>
        <time>2000-01-01T05:44:47.000Z</time>
      </trkpt>
      <trkpt lat="46.25124" lon="6.87128">
        <ele>1678.3</ele>
        <time>2000-01-01T05:44:57.000Z</time>
      </trkpt>
      <trkpt lat="46.25122" lon="6.87122">
        <ele>1677.2</ele>
        <time>2000-01-01T05:45:07.000Z</time>
      </trkpt>
      <trkpt lat="46.2511" lon="6.87105">
        <ele>1681</ele>
        <time>2000-01-01T05:45:17.000Z</time>
      </trkpt>
      <trkpt lat="46.2509" lon="6.87097">
        <ele>1677</ele>
        <time>2000-01-01T05:45:27.000Z</time>
      </trkpt>
      <trkpt lat="46.25073" lon="6.87096">
        <ele>1671.1</ele>
        <time>2000-01-01T05:45:37.000Z</time>
      </trkpt>
      <trkpt lat="46.25036" lon="6.87083">
        <ele>1669</ele>
        <time>2000-01-01T05:45:47.000Z</time>
      </trkpt>
      <trkpt lat="46.24996" lon="6.87088">
        <ele>1658</ele>
        <time>2000-01-01T05:45:57.000Z</time>
      </trkpt>
      <trkpt lat="46.24982" lon="6.87077">
        <ele>1655.9</ele>
        <time>2000-01-01T05:46:07.000Z</time>
      </trkpt>
      <trkpt lat="46.24971" lon="6.87055">
        <ele>1657</ele>
        <time>2000-01-01T05:46:17.000Z</time>
      </trkpt>
      <trkpt lat="46.24964" lon="6.87048">
        <ele>1650.7</ele>
        <time>2000-01-01T05:46:27.000Z</time>
      </trkpt>
      <trkpt lat="46.24919" lon="6.87037">
        <ele>1644</ele>
        <time>2000-01-01T05:46:37.000Z</time>
      </trkpt>
      <trkpt lat="46.24899" lon="6.87029">
        <ele>1640</ele>
        <time>2000-01-01T05:46:47.000Z</time>
      </trkpt>
      <trkpt lat="46.24857" lon="6.87006">
        <ele>1637</ele>
        <time>2000-01-01T05:46:57.000Z</time>
      </trkpt>
      <trkpt lat="46.24834" lon="6.87013">
        <ele>1633</ele>
        <time>2000-01-01T05:47:07.000Z</time>
      </trkpt>
      <trkpt lat="46.24814" lon="6.87013">
        <ele>1633</ele>
        <time>2000-01-01T05:47:17.000Z</time>
      </trkpt>
      <trkpt lat="46.2478" lon="6.87018">
        <ele>1631</ele>
        <time>2000-01-01T05:47:27.000Z</time>
      </trkpt>
      <trkpt lat="46.24769" lon="6.87023">
        <ele>1619.9</ele>
        <time>2000-01-01T05:47:37.000Z</time>
      </trkpt>
      <trkpt lat="46.24761" lon="6.87033">
        <ele>1625</ele>
        <time>2000-01-01T05:47:47.000Z</time>
      </trkpt>
      <trkpt lat="46.24757" lon="6.87029">
        <ele>1618.7</ele>
        <time>2000-01-01T05:47:57.000Z</time>
      </trkpt>
      <trkpt lat="46.24753" lon="6.87029">
        <ele>1618.7</ele>
        <time>2000-01-01T05:48:07.000Z</time>
      </trkpt>
      <trkpt lat="46.24714" lon="6.87065">
        <ele>1621</ele>
        <time>2000-01-01T05:48:17.000Z</time>
      </trkpt>
      <trkpt lat="46.24684" lon="6.87082">
        <ele>1620</ele>
        <time>2000-01-01T05:48:27.000Z</time>
      </trkpt>
      <trkpt lat="46.24655" lon="6.87093">
        <ele>1614</ele>
        <time>2000-01-01T05:48:37.000Z</time>
      </trkpt>
      <trkpt lat="46.24649" lon="6.87093">
        <ele>1620.4</ele>
        <time>2000-01-01T05:48:47.000Z</time>
      </trkpt>
      <trkpt lat="46.24643" lon="6.87088">
        <ele>1621.4</ele>
        <time>2000-01-01T05:48:57.000Z</time>
      </trkpt>
      <trkpt lat="46.24634" lon="6.87061">
        <ele>1614</ele>
        <time>2000-01-01T05:49:07.000Z</time>
      </trkpt>
      <trkpt lat="46.24619" lon="6.87033">
        <ele>1613</ele>
        <time>2000-01-01T05:49:17.000Z</time>
      </trkpt>
      <trkpt lat="46.24607" lon="6.86992">
        <ele>1613</ele>
        <time>2000-01-01T05:49:27.000Z</time>
      </trkpt>
      <trkpt lat="46.24597" lon="6.86957">
        <ele>1616</ele>
        <time>2000-01-01T05:49:37.000Z</time>
      </trkpt>
      <trkpt lat="46.24584" lon="6.86913">
        <ele>1614</ele>
        <time>2000-01-01T05:49:47.000Z</time>
      </trkpt>
      <trkpt lat="46.2458" lon="6.86873">
        <ele>1618</ele>
        <time>2000-01-01T05:49:57.000Z</time>
      </trkpt>
      <trkpt lat="46.24585" lon="6.86854">
        <ele>1625.5</ele>
        <time>2000-01-01T05:50:07.000Z</time>
      </trkpt>
      <trkpt lat="46.24596" lon="6.86832">
        <ele>1623</ele>
        <time>2000-01-01T05:50:17.000Z</time>
      </trkpt>
      <trkpt lat="46.24601" lon="6.86786">
        <ele>1630</ele>
        <time>2000-01-01T05:50:27.000Z</time>
      </trkpt>
      <trkpt lat="46.24605" lon="6.86765">
        <ele>1628.3</ele>
        <time>2000-01-01T05:50:37.000Z</time>
      </trkpt>
      <trkpt lat="46.24613" lon="6.86678">
        <ele>1636</ele>
        <time>2000-01-01T05:50:47.000Z</time>
      </trkpt>
      <trkpt lat="46.24621" lon="6.86648">
        <ele>1639</ele>
        <time>2000-01-01T05:50:57.000Z</time>
      </trkpt>
      <trkpt lat="46.24622" lon="6.86618">
        <ele>1636</ele>
        <time>2000-01-01T05:51:07.000Z</time>
      </trkpt>
      <trkpt lat="46.2462" lon="6.86595">
        <ele>1630.9</ele>
        <time>2000-01-01T05:51:17.000Z</time>
      </trkpt>
      <trkpt lat="46.24603" lon="6.86556">
        <ele>1634</ele>
        <time>2000-01-01T05:51:27.000Z</time>
      </trkpt>
      <trkpt lat="46.24581" lon="6.86516">
        <ele>1630</ele>
        <time>2000-01-01T05:51:37.000Z</time>
      </trkpt>
      <trkpt lat="46.24577" lon="6.86505">
        <ele>1631.2</ele>
        <time>2000-01-01T05:51:47.000Z</time>
      </trkpt>
      <trkpt lat="46.24575" lon="6.86482">
        <ele>1632</ele>
        <time>2000-01-01T05:51:57.000Z</time>
      </trkpt>
      <trkpt lat="46.24582" lon="6.86427">
        <ele>1634</ele>
        <time>2000-01-01T05:52:07.000Z</time>
      </trkpt>
      <trkpt lat="46.24582" lon="6.86395">
        <ele>1636</ele>
        <time>2000-01-01T05:52:17.000Z</time>
      </trkpt>
      <trkpt lat="46.24588" lon="6.8636">
        <ele>1636</ele>
        <time>2000-01-01T05:52:27.000Z</time>
      </trkpt>
      <trkpt lat="46.24596" lon="6.86319">
        <ele>1644</ele>
        <time>2000-01-01T05:52:37.000Z</time>
      </trkpt>
      <trkpt lat="46.24593" lon="6.86283">
        <ele>1643</ele>
        <time>2000-01-01T05:52:47.000Z</time>
      </trkpt>
      <trkpt lat="46.2459" lon="6.86242">
        <ele>1644</ele>
        <time>2000-01-01T05:52:57.000Z</time>
      </trkpt>
      <trkpt lat="46.24592" lon="6.86219">
        <ele>1642.4</ele>
        <time>2000-01-01T05:53:07.000Z</time>
      </trkpt>
      <trkpt lat="46.24599" lon="6.86175">
        <ele>1645</ele>
        <time>2000-01-01T05:53:17.000Z</time>
      </trkpt>
      <trkpt lat="46.24615" lon="6.86144">
        <ele>1645</ele>
        <time>2000-01-01T05:53:27.000Z</time>
      </trkpt>
      <trkpt lat="46.24618" lon="6.86119">
        <ele>1648.9</ele>
        <time>2000-01-01T05:53:37.000Z</time>
      </trkpt>
      <trkpt lat="46.24609" lon="6.86105">
        <ele>1645</ele>
        <time>2000-01-01T05:53:47.000Z</time>
      </trkpt>
      <trkpt lat="46.24608" lon="6.86097">
        <ele>1645.3</ele>
        <time>2000-01-01T05:53:57.000Z</time>
      </trkpt>
      <trkpt lat="46.24609" lon="6.86051">
        <ele>1645</ele>
        <time>2000-01-01T05:54:07.000Z</time>
      </trkpt>
      <trkpt lat="46.246" lon="6.85997">
        <ele>1640</ele>
        <time>2000-01-01T05:54:17.000Z</time>
      </trkpt>
      <trkpt lat="46.24603" lon="6.85964">
        <ele>1641</ele>
        <time>2000-01-01T05:54:27.000Z</time>
      </trkpt>
      <trkpt lat="46.24612" lon="6.85943">
        <ele>1639.7</ele>
        <time>2000-01-01T05:54:37.000Z</time>
      </trkpt>
      <trkpt lat="46.24637" lon="6.85909">
        <ele>1642</ele>
        <time>2000-01-01T05:54:47.000Z</time>
      </trkpt>
      <trkpt lat="46.24648" lon="6.85885">
        <ele>1642</ele>
        <time>2000-01-01T05:54:57.000Z</time>
      </trkpt>
      <trkpt lat="46.24657" lon="6.85851">
        <ele>1642</ele>
        <time>2000-01-01T05:55:07.000Z</time>
      </trkpt>
      <trkpt lat="46.24684" lon="6.85819">
        <ele>1634</ele>
        <time>2000-01-01T05:55:17.000Z</time>
      </trkpt>
      <trkpt lat="46.24695" lon="6.85758">
        <ele>1631</ele>
        <time>2000-01-01T05:55:27.000Z</time>
      </trkpt>
      <trkpt lat="46.24698" lon="6.8575">
        <ele>1627.5</ele>
        <time>2000-01-01T05:55:37.000Z</time>
      </trkpt>
      <trkpt lat="46.24706" lon="6.85742">
        <ele>1625.3</ele>
        <time>2000-01-01T05:55:47.000Z</time>
      </trkpt>
      <trkpt lat="46.24721" lon="6.85738">
        <ele>1636</ele>
        <time>2000-01-01T05:55:57.000Z</time>
      </trkpt>
      <trkpt lat="46.24765" lon="6.85743">
        <ele>1638</ele>
        <time>2000-01-01T05:56:07.000Z</time>
      </trkpt>
      <trkpt lat="46.24784" lon="6.8573">
        <ele>1637</ele>
        <time>2000-01-01T05:56:17.000Z</time>
      </trkpt>
      <trkpt lat="46.24809" lon="6.85707">
        <ele>1637</ele>
        <time>2000-01-01T05:56:27.000Z</time>
      </trkpt>
      <trkpt lat="46.2482" lon="6.85676">
        <ele>1629</ele>
        <time>2000-01-01T05:56:37.000Z</time>
      </trkpt>
      <trkpt lat="46.24833" lon="6.85644">
        <ele>1628</ele>
        <time>2000-01-01T05:56:47.000Z</time>
      </trkpt>
      <trkpt lat="46.24839" lon="6.85612">
        <ele>1622</ele>
        <time>2000-01-01T05:56:57.000Z</time>
      </trkpt>
      <trkpt lat="46.2484" lon="6.85594">
        <ele>1613.8</ele>
        <time>2000-01-01T05:57:07.000Z</time>
      </trkpt>
      <trkpt lat="46.24848" lon="6.85544">
        <ele>1610</ele>
        <time>2000-01-01T05:57:17.000Z</time>
      </trkpt>
      <trkpt lat="46.24853" lon="6.85527">
        <ele>1607.7</ele>
        <time>2000-01-01T05:57:27.000Z</time>
      </trkpt>
      <trkpt lat="46.24875" lon="6.85514">
        <ele>1606</ele>
        <time>2000-01-01T05:57:37.000Z</time>
      </trkpt>
      <trkpt lat="46.24892" lon="6.85491">
        <ele>1602</ele>
        <time>2000-01-01T05:57:47.000Z</time>
      </trkpt>
      <trkpt lat="46.2491" lon="6.85484">
        <ele>1602</ele>
        <time>2000-01-01T05:57:57.000Z</time>
      </trkpt>
      <trkpt lat="46.24936" lon="6.85483">
        <ele>1603</ele>
        <time>2000-01-01T05:58:07.000Z</time>
      </trkpt>
      <trkpt lat="46.24973" lon="6.85494">
        <ele>1601</ele>
        <time>2000-01-01T05:58:17.000Z</time>
      </trkpt>
      <trkpt lat="46.24984" lon="6.85491">
        <ele>1602.1</ele>
        <time>2000-01-01T05:58:27.000Z</time>
      </trkpt>
      <trkpt lat="46.24998" lon="6.85468">
        <ele>1600</ele>
        <time>2000-01-01T05:58:37.000Z</time>
      </trkpt>
      <trkpt lat="46.2501" lon="6.85429">
        <ele>1590</ele>
        <time>2000-01-01T05:58:47.000Z</time>
      </trkpt>
      <trkpt lat="46.25021" lon="6.85408">
        <ele>1593.3</ele>
        <time>2000-01-01T05:58:57.000Z</time>
      </trkpt>
      <trkpt lat="46.25036" lon="6.8539">
        <ele>1584</ele>
        <time>2000-01-01T05:59:07.000Z</time>
      </trkpt>
      <trkpt lat="46.25051" lon="6.85377">
        <ele>1589</ele>
        <time>2000-01-01T05:59:17.000Z</time>
      </trkpt>
      <trkpt lat="46.25058" lon="6.85374">
        <ele>1586</ele>
        <time>2000-01-01T05:59:27.000Z</time>
      </trkpt>
      <trkpt lat="46.25069" lon="6.85375">
        <ele>1588</ele>
        <time>2000-01-01T05:59:37.000Z</time>
      </trkpt>
      <trkpt lat="46.25106" lon="6.85396">
        <ele>1586</ele>
        <time>2000-01-01T05:59:47.000Z</time>
      </trkpt>
      <trkpt lat="46.2512" lon="6.85394">
        <ele>1583.8</ele>
        <time>2000-01-01T05:59:57.000Z</time>
      </trkpt>
      <trkpt lat="46.25135" lon="6.85385">
        <ele>1586</ele>
        <time>2000-01-01T06:00:07.000Z</time>
      </trkpt>
      <trkpt lat="46.2514" lon="6.85373">
        <ele>1579.3</ele>
        <time>2000-01-01T06:00:17.000Z</time>
      </trkpt>
      <trkpt lat="46.25141" lon="6.85366">
        <ele>1578.4</ele>
        <time>2000-01-01T06:00:27.000Z</time>
      </trkpt>
      <trkpt lat="46.25139" lon="6.85355">
        <ele>1580</ele>
        <time>2000-01-01T06:00:37.000Z</time>
      </trkpt>
      <trkpt lat="46.25127" lon="6.85329">
        <ele>1575</ele>
        <time>2000-01-01T06:00:47.000Z</time>
      </trkpt>
      <trkpt lat="46.25114" lon="6.85307">
        <ele>1573</ele>
        <time>2000-01-01T06:00:57.000Z</time>
      </trkpt>
      <trkpt lat="46.25088" lon="6.85278">
        <ele>1568</ele>
        <time>2000-01-01T06:01:07.000Z</time>
      </trkpt>
      <trkpt lat="46.25074" lon="6.85267">
        <ele>1566.7</ele>
        <time>2000-01-01T06:01:17.000Z</time>
      </trkpt>
      <trkpt lat="46.25068" lon="6.85265">
        <ele>1565</ele>
        <time>2000-01-01T06:01:27.000Z</time>
      </trkpt>
      <trkpt lat="46.25046" lon="6.8527">
        <ele>1563</ele>
        <time>2000-01-01T06:01:37.000Z</time>
      </trkpt>
      <trkpt lat="46.25019" lon="6.85264">
        <ele>1558</ele>
        <time>2000-01-01T06:01:47.000Z</time>
      </trkpt>
      <trkpt lat="46.25007" lon="6.85271">
        <ele>1559.9</ele>
        <time>2000-01-01T06:01:57.000Z</time>
      </trkpt>
      <trkpt lat="46.24969" lon="6.85309">
        <ele>1557</ele>
        <time>2000-01-01T06:02:07.000Z</time>
      </trkpt>
      <trkpt lat="46.24952" lon="6.85334">
        <ele>1557</ele>
        <time>2000-01-01T06:02:17.000Z</time>
      </trkpt>
      <trkpt lat="46.24934" lon="6.85362">
        <ele>1551</ele>
        <time>2000-01-01T06:02:27.000Z</time>
      </trkpt>
      <trkpt lat="46.24922" lon="6.85366">
        <ele>1552.6</ele>
        <time>2000-01-01T06:02:37.000Z</time>
      </trkpt>
      <trkpt lat="46.24917" lon="6.85365">
        <ele>1551.5</ele>
        <time>2000-01-01T06:02:47.000Z</time>
      </trkpt>
      <trkpt lat="46.24889" lon="6.85346">
        <ele>1546</ele>
        <time>2000-01-01T06:02:57.000Z</time>
      </trkpt>
      <trkpt lat="46.24869" lon="6.85342">
        <ele>1544</ele>
        <time>2000-01-01T06:03:07.000Z</time>
      </trkpt>
      <trkpt lat="46.24858" lon="6.85345">
        <ele>1545.4</ele>
        <time>2000-01-01T06:03:17.000Z</time>
      </trkpt>
      <trkpt lat="46.24811" lon="6.85374">
        <ele>1544</ele>
        <time>2000-01-01T06:03:27.000Z</time>
      </trkpt>
      <trkpt lat="46.24796" lon="6.8539">
        <ele>1541.2</ele>
        <time>2000-01-01T06:03:37.000Z</time>
      </trkpt>
      <trkpt lat="46.24789" lon="6.854">
        <ele>1545</ele>
        <time>2000-01-01T06:03:47.000Z</time>
      </trkpt>
      <trkpt lat="46.24774" lon="6.85431">
        <ele>1555</ele>
        <time>2000-01-01T06:03:57.000Z</time>
      </trkpt>
      <trkpt lat="46.24769" lon="6.85454">
        <ele>1543.1</ele>
        <time>2000-01-01T06:04:07.000Z</time>
      </trkpt>
      <trkpt lat="46.2476" lon="6.8547">
        <ele>1555</ele>
        <time>2000-01-01T06:04:17.000Z</time>
      </trkpt>
      <trkpt lat="46.24721" lon="6.85497">
        <ele>1552</ele>
        <time>2000-01-01T06:04:27.000Z</time>
      </trkpt>
      <trkpt lat="46.24691" lon="6.85508">
        <ele>1549</ele>
        <time>2000-01-01T06:04:37.000Z</time>
      </trkpt>
      <trkpt lat="46.24679" lon="6.85521">
        <ele>1536.8</ele>
        <time>2000-01-01T06:04:47.000Z</time>
      </trkpt>
      <trkpt lat="46.24662" lon="6.85555">
        <ele>1547</ele>
        <time>2000-01-01T06:04:57.000Z</time>
      </trkpt>
      <trkpt lat="46.24649" lon="6.85571">
        <ele>1538.6</ele>
        <time>2000-01-01T06:05:07.000Z</time>
      </trkpt>
      <trkpt lat="46.24626" lon="6.85585">
        <ele>1541</ele>
        <time>2000-01-01T06:05:17.000Z</time>
      </trkpt>
      <trkpt lat="46.24604" lon="6.85589">
        <ele>1538</ele>
        <time>2000-01-01T06:05:27.000Z</time>
      </trkpt>
      <trkpt lat="46.24601" lon="6.85592">
        <ele>1534.8</ele>
        <time>2000-01-01T06:05:37.000Z</time>
      </trkpt>
      <trkpt lat="46.24586" lon="6.85619">
        <ele>1536</ele>
        <time>2000-01-01T06:05:47.000Z</time>
      </trkpt>
      <trkpt lat="46.24569" lon="6.85638">
        <ele>1540</ele>
        <time>2000-01-01T06:05:57.000Z</time>
      </trkpt>
      <trkpt lat="46.2454" lon="6.85683">
        <ele>1538</ele>
        <time>2000-01-01T06:06:07.000Z</time>
      </trkpt>
      <trkpt lat="46.24528" lon="6.85689">
        <ele>1533.7</ele>
        <time>2000-01-01T06:06:17.000Z</time>
      </trkpt>
      <trkpt lat="46.24508" lon="6.85694">
        <ele>1538</ele>
        <time>2000-01-01T06:06:27.000Z</time>
      </trkpt>
      <trkpt lat="46.24502" lon="6.857">
        <ele>1535.3</ele>
        <time>2000-01-01T06:06:37.000Z</time>
      </trkpt>
      <trkpt lat="46.24471" lon="6.85764">
        <ele>1536</ele>
        <time>2000-01-01T06:06:47.000Z</time>
      </trkpt>
      <trkpt lat="46.24452" lon="6.85816">
        <ele>1536</ele>
        <time>2000-01-01T06:06:57.000Z</time>
      </trkpt>
      <trkpt lat="46.24443" lon="6.8587">
        <ele>1536</ele>
        <time>2000-01-01T06:07:07.000Z</time>
      </trkpt>
      <trkpt lat="46.24438" lon="6.85879">
        <ele>1527.9</ele>
        <time>2000-01-01T06:07:17.000Z</time>
      </trkpt>
      <trkpt lat="46.24432" lon="6.85884">
        <ele>1526.9</ele>
        <time>2000-01-01T06:07:27.000Z</time>
      </trkpt>
      <trkpt lat="46.24402" lon="6.85891">
        <ele>1526</ele>
        <time>2000-01-01T06:07:37.000Z</time>
      </trkpt>
      <trkpt lat="46.24386" lon="6.85903">
        <ele>1521.1</ele>
        <time>2000-01-01T06:07:47.000Z</time>
      </trkpt>
      <trkpt lat="46.24374" lon="6.85916">
        <ele>1516</ele>
        <time>2000-01-01T06:07:57.000Z</time>
      </trkpt>
      <trkpt lat="46.2437" lon="6.85924">
        <ele>1519.3</ele>
        <time>2000-01-01T06:08:07.000Z</time>
      </trkpt>
      <trkpt lat="46.24368" lon="6.85936">
        <ele>1519.3</ele>
        <time>2000-01-01T06:08:17.000Z</time>
      </trkpt>
      <trkpt lat="46.24367" lon="6.85963">
        <ele>1516</ele>
        <time>2000-01-01T06:08:27.000Z</time>
      </trkpt>
      <trkpt lat="46.2436" lon="6.85963">
        <ele>1515.2</ele>
        <time>2000-01-01T06:08:37.000Z</time>
      </trkpt>
      <trkpt lat="46.24357" lon="6.85958">
        <ele>1514.1</ele>
        <time>2000-01-01T06:08:47.000Z</time>
      </trkpt>
      <trkpt lat="46.24353" lon="6.85927">
        <ele>1510</ele>
        <time>2000-01-01T06:08:57.000Z</time>
      </trkpt>
      <trkpt lat="46.24355" lon="6.85884">
        <ele>1503</ele>
        <time>2000-01-01T06:09:07.000Z</time>
      </trkpt>
      <trkpt lat="46.24362" lon="6.85844">
        <ele>1504</ele>
        <time>2000-01-01T06:09:17.000Z</time>
      </trkpt>
      <trkpt lat="46.24371" lon="6.85834">
        <ele>1500</ele>
        <time>2000-01-01T06:09:27.000Z</time>
      </trkpt>
      <trkpt lat="46.24382" lon="6.85816">
        <ele>1498</ele>
        <time>2000-01-01T06:09:37.000Z</time>
      </trkpt>
      <trkpt lat="46.24381" lon="6.8581">
        <ele>1497.7</ele>
        <time>2000-01-01T06:09:47.000Z</time>
      </trkpt>
      <trkpt lat="46.24378" lon="6.85808">
        <ele>1496.7</ele>
        <time>2000-01-01T06:09:57.000Z</time>
      </trkpt>
      <trkpt lat="46.2437" lon="6.85811">
        <ele>1495.3</ele>
        <time>2000-01-01T06:10:07.000Z</time>
      </trkpt>
      <trkpt lat="46.24359" lon="6.8582">
        <ele>1493</ele>
        <time>2000-01-01T06:10:17.000Z</time>
      </trkpt>
      <trkpt lat="46.24337" lon="6.85825">
        <ele>1492</ele>
        <time>2000-01-01T06:10:27.000Z</time>
      </trkpt>
      <trkpt lat="46.2433" lon="6.8584">
        <ele>1489.9</ele>
        <time>2000-01-01T06:10:37.000Z</time>
      </trkpt>
      <trkpt lat="46.24323" lon="6.85867">
        <ele>1491</ele>
        <time>2000-01-01T06:10:47.000Z</time>
      </trkpt>
      <trkpt lat="46.24304" lon="6.85886">
        <ele>1485</ele>
        <time>2000-01-01T06:10:57.000Z</time>
      </trkpt>
      <trkpt lat="46.24301" lon="6.85893">
        <ele>1484.3</ele>
        <time>2000-01-01T06:11:07.000Z</time>
      </trkpt>
      <trkpt lat="46.24299" lon="6.85907">
        <ele>1484.2</ele>
        <time>2000-01-01T06:11:17.000Z</time>
      </trkpt>
      <trkpt lat="46.24293" lon="6.8591">
        <ele>1485</ele>
        <time>2000-01-01T06:11:27.000Z</time>
      </trkpt>
      <trkpt lat="46.24281" lon="6.85974">
        <ele>1484</ele>
        <time>2000-01-01T06:11:37.000Z</time>
      </trkpt>
      <trkpt lat="46.24278" lon="6.8601">
        <ele>1484</ele>
        <time>2000-01-01T06:11:47.000Z</time>
      </trkpt>
      <trkpt lat="46.24264" lon="6.8603">
        <ele>1481</ele>
        <time>2000-01-01T06:11:57.000Z</time>
      </trkpt>
      <trkpt lat="46.24245" lon="6.86064">
        <ele>1477</ele>
        <time>2000-01-01T06:12:07.000Z</time>
      </trkpt>
      <trkpt lat="46.2423" lon="6.86092">
        <ele>1472</ele>
        <time>2000-01-01T06:12:17.000Z</time>
      </trkpt>
      <trkpt lat="46.24212" lon="6.86125">
        <ele>1469</ele>
        <time>2000-01-01T06:12:27.000Z</time>
      </trkpt>
      <trkpt lat="46.24208" lon="6.86129">
        <ele>1467</ele>
        <time>2000-01-01T06:12:37.000Z</time>
      </trkpt>
      <trkpt lat="46.24202" lon="6.86126">
        <ele>1465</ele>
        <time>2000-01-01T06:12:47.000Z</time>
      </trkpt>
      <trkpt lat="46.24201" lon="6.86122">
        <ele>1464.5</ele>
        <time>2000-01-01T06:12:57.000Z</time>
      </trkpt>
      <trkpt lat="46.24198" lon="6.86076">
        <ele>1465</ele>
        <time>2000-01-01T06:13:07.000Z</time>
      </trkpt>
      <trkpt lat="46.24202" lon="6.86044">
        <ele>1461</ele>
        <time>2000-01-01T06:13:17.000Z</time>
      </trkpt>
      <trkpt lat="46.24201" lon="6.8604">
        <ele>1456.4</ele>
        <time>2000-01-01T06:13:27.000Z</time>
      </trkpt>
      <trkpt lat="46.24197" lon="6.86039">
        <ele>1455</ele>
        <time>2000-01-01T06:13:37.000Z</time>
      </trkpt>
      <trkpt lat="46.24192" lon="6.86043">
        <ele>1453.8</ele>
        <time>2000-01-01T06:13:47.000Z</time>
      </trkpt>
      <trkpt lat="46.24164" lon="6.86094">
        <ele>1450</ele>
        <time>2000-01-01T06:13:57.000Z</time>
      </trkpt>
      <trkpt lat="46.24158" lon="6.86091">
        <ele>1447.6</ele>
        <time>2000-01-01T06:14:07.000Z</time>
      </trkpt>
      <trkpt lat="46.24157" lon="6.86073">
        <ele>1446</ele>
        <time>2000-01-01T06:14:17.000Z</time>
      </trkpt>
      <trkpt lat="46.24149" lon="6.86048">
        <ele>1440</ele>
        <time>2000-01-01T06:14:27.000Z</time>
      </trkpt>
      <trkpt lat="46.24144" lon="6.86044">
        <ele>1440.8</ele>
        <time>2000-01-01T06:14:37.000Z</time>
      </trkpt>
      <trkpt lat="46.24136" lon="6.86045">
        <ele>1439.4</ele>
        <time>2000-01-01T06:14:47.000Z</time>
      </trkpt>
      <trkpt lat="46.24123" lon="6.86072">
        <ele>1434</ele>
        <time>2000-01-01T06:14:57.000Z</time>
      </trkpt>
      <trkpt lat="46.24111" lon="6.8611">
        <ele>1432</ele>
        <time>2000-01-01T06:15:07.000Z</time>
      </trkpt>
      <trkpt lat="46.24099" lon="6.86125">
        <ele>1430.6</ele>
        <time>2000-01-01T06:15:17.000Z</time>
      </trkpt>
      <trkpt lat="46.24086" lon="6.86088">
        <ele>1419</ele>
        <time>2000-01-01T06:15:27.000Z</time>
      </trkpt>
      <trkpt lat="46.24081" lon="6.86061">
        <ele>1417</ele>
        <time>2000-01-01T06:15:37.000Z</time>
      </trkpt>
      <trkpt lat="46.24083" lon="6.8601">
        <ele>1417</ele>
        <time>2000-01-01T06:15:47.000Z</time>
      </trkpt>
      <trkpt lat="46.24085" lon="6.85995">
        <ele>1416.6</ele>
        <time>2000-01-01T06:15:57.000Z</time>
      </trkpt>
      <trkpt lat="46.24101" lon="6.85976">
        <ele>1414</ele>
        <time>2000-01-01T06:16:07.000Z</time>
      </trkpt>
      <trkpt lat="46.24101" lon="6.85971">
        <ele>1413.5</ele>
        <time>2000-01-01T06:16:17.000Z</time>
      </trkpt>
      <trkpt lat="46.24096" lon="6.85935">
        <ele>1412</ele>
        <time>2000-01-01T06:16:27.000Z</time>
      </trkpt>
      <trkpt lat="46.24086" lon="6.85901">
        <ele>1405</ele>
        <time>2000-01-01T06:16:37.000Z</time>
      </trkpt>
      <trkpt lat="46.24082" lon="6.85879">
        <ele>1400.1</ele>
        <time>2000-01-01T06:16:47.000Z</time>
      </trkpt>
      <trkpt lat="46.24079" lon="6.85873">
        <ele>1400</ele>
        <time>2000-01-01T06:16:57.000Z</time>
      </trkpt>
      <trkpt lat="46.24075" lon="6.85871">
        <ele>1396.7</ele>
        <time>2000-01-01T06:17:07.000Z</time>
      </trkpt>
      <trkpt lat="46.24071" lon="6.85874">
        <ele>1395.1</ele>
        <time>2000-01-01T06:17:17.000Z</time>
      </trkpt>
      <trkpt lat="46.24058" lon="6.85905">
        <ele>1392</ele>
        <time>2000-01-01T06:17:27.000Z</time>
      </trkpt>
      <trkpt lat="46.24053" lon="6.8591">
        <ele>1389.5</ele>
        <time>2000-01-01T06:17:37.000Z</time>
      </trkpt>
      <trkpt lat="46.24049" lon="6.85907">
        <ele>1388.7</ele>
        <time>2000-01-01T06:17:47.000Z</time>
      </trkpt>
      <trkpt lat="46.2403" lon="6.85848">
        <ele>1379</ele>
        <time>2000-01-01T06:17:57.000Z</time>
      </trkpt>
      <trkpt lat="46.24007" lon="6.85805">
        <ele>1371</ele>
        <time>2000-01-01T06:18:07.000Z</time>
      </trkpt>
      <trkpt lat="46.24002" lon="6.85804">
        <ele>1371.1</ele>
        <time>2000-01-01T06:18:17.000Z</time>
      </trkpt>
      <trkpt lat="46.23995" lon="6.85807">
        <ele>1368.7</ele>
        <time>2000-01-01T06:18:27.000Z</time>
      </trkpt>
      <trkpt lat="46.23979" lon="6.85848">
        <ele>1363</ele>
        <time>2000-01-01T06:18:37.000Z</time>
      </trkpt>
      <trkpt lat="46.23962" lon="6.85874">
        <ele>1360</ele>
        <time>2000-01-01T06:18:47.000Z</time>
      </trkpt>
      <trkpt lat="46.23948" lon="6.85912">
        <ele>1353</ele>
        <time>2000-01-01T06:18:57.000Z</time>
      </trkpt>
      <trkpt lat="46.23936" lon="6.85925">
        <ele>1348.2</ele>
        <time>2000-01-01T06:19:07.000Z</time>
      </trkpt>
      <trkpt lat="46.23931" lon="6.85933">
        <ele>1350</ele>
        <time>2000-01-01T06:19:17.000Z</time>
      </trkpt>
      <trkpt lat="46.23928" lon="6.85945">
        <ele>1347.3</ele>
        <time>2000-01-01T06:19:27.000Z</time>
      </trkpt>
      <trkpt lat="46.23922" lon="6.85949">
        <ele>1344.7</ele>
        <time>2000-01-01T06:19:37.000Z</time>
      </trkpt>
      <trkpt lat="46.23919" lon="6.85947">
        <ele>1347</ele>
        <time>2000-01-01T06:19:47.000Z</time>
      </trkpt>
      <trkpt lat="46.23913" lon="6.85906">
        <ele>1345</ele>
        <time>2000-01-01T06:19:57.000Z</time>
      </trkpt>
      <trkpt lat="46.2391" lon="6.85901">
        <ele>1338.1</ele>
        <time>2000-01-01T06:20:07.000Z</time>
      </trkpt>
      <trkpt lat="46.23882" lon="6.85873">
        <ele>1336</ele>
        <time>2000-01-01T06:20:17.000Z</time>
      </trkpt>
      <trkpt lat="46.23862" lon="6.85855">
        <ele>1330</ele>
        <time>2000-01-01T06:20:27.000Z</time>
      </trkpt>
      <trkpt lat="46.23842" lon="6.85837">
        <ele>1324</ele>
        <time>2000-01-01T06:20:37.000Z</time>
      </trkpt>
      <trkpt lat="46.23823" lon="6.85808">
        <ele>1320</ele>
        <time>2000-01-01T06:20:47.000Z</time>
      </trkpt>
      <trkpt lat="46.23793" lon="6.85764">
        <ele>1317</ele>
        <time>2000-01-01T06:20:57.000Z</time>
      </trkpt>
      <trkpt lat="46.23763" lon="6.85769">
        <ele>1316</ele>
        <time>2000-01-01T06:21:07.000Z</time>
      </trkpt>
      <trkpt lat="46.23745" lon="6.85774">
        <ele>1311</ele>
        <time>2000-01-01T06:21:17.000Z</time>
      </trkpt>
      <trkpt lat="46.23733" lon="6.8571">
        <ele>1316</ele>
        <time>2000-01-01T06:21:27.000Z</time>
      </trkpt>
      <trkpt lat="46.23724" lon="6.85691">
        <ele>1312.1</ele>
        <time>2000-01-01T06:21:37.000Z</time>
      </trkpt>
      <trkpt lat="46.23721" lon="6.85688">
        <ele>1316</ele>
        <time>2000-01-01T06:21:47.000Z</time>
      </trkpt>
      <trkpt lat="46.23717" lon="6.85688">
        <ele>1312.2</ele>
        <time>2000-01-01T06:21:57.000Z</time>
      </trkpt>
      <trkpt lat="46.23719" lon="6.85651">
        <ele>1317</ele>
        <time>2000-01-01T06:22:07.000Z</time>
      </trkpt>
      <trkpt lat="46.23714" lon="6.85623">
        <ele>1317</ele>
        <time>2000-01-01T06:22:17.000Z</time>
      </trkpt>
      <trkpt lat="46.23711" lon="6.8562">
        <ele>1315</ele>
        <time>2000-01-01T06:22:27.000Z</time>
      </trkpt>
      <trkpt lat="46.23708" lon="6.8562">
        <ele>1315</ele>
        <time>2000-01-01T06:22:37.000Z</time>
      </trkpt>
      <trkpt lat="46.23696" lon="6.85567">
        <ele>1318</ele>
        <time>2000-01-01T06:22:47.000Z</time>
      </trkpt>
      <trkpt lat="46.23695" lon="6.85511">
        <ele>1321.2</ele>
        <time>2000-01-01T06:22:57.000Z</time>
      </trkpt>
      <trkpt lat="46.23695" lon="6.85449">
        <ele>1324.8</ele>
        <time>2000-01-01T06:23:07.000Z</time>
      </trkpt>
      <trkpt lat="46.2369" lon="6.85423">
        <ele>1326.7</ele>
        <time>2000-01-01T06:23:17.000Z</time>
      </trkpt>
      <trkpt lat="46.23681" lon="6.85409">
        <ele>1327.6</ele>
        <time>2000-01-01T06:23:27.000Z</time>
      </trkpt>
      <trkpt lat="46.23668" lon="6.85395">
        <ele>1328</ele>
        <time>2000-01-01T06:23:37.000Z</time>
      </trkpt>
      <trkpt lat="46.23641" lon="6.85371">
        <ele>1330.2</ele>
        <time>2000-01-01T06:23:47.000Z</time>
      </trkpt>
      <trkpt lat="46.23632" lon="6.8536">
        <ele>1329.9</ele>
        <time>2000-01-01T06:23:57.000Z</time>
      </trkpt>
      <trkpt lat="46.23629" lon="6.85351">
        <ele>667</ele>
        <time>2000-01-01T06:24:07.000Z</time>
      </trkpt>
      <trkpt lat="46.23627" lon="6.8534">
        <ele>1332.4</ele>
        <time>2000-01-01T06:24:17.000Z</time>
      </trkpt>
      <trkpt lat="46.23629" lon="6.85326">
        <ele>1333.9</ele>
        <time>2000-01-01T06:24:27.000Z</time>
      </trkpt>
      <trkpt lat="46.23613" lon="6.85298">
        <ele>1334</ele>
        <time>2000-01-01T06:24:37.000Z</time>
      </trkpt>
      <trkpt lat="46.23602" lon="6.8527">
        <ele>1335</ele>
        <time>2000-01-01T06:24:47.000Z</time>
      </trkpt>
      <trkpt lat="46.23597" lon="6.85247">
        <ele>1335.7</ele>
        <time>2000-01-01T06:24:57.000Z</time>
      </trkpt>
      <trkpt lat="46.23586" lon="6.85164">
        <ele>1337</ele>
        <time>2000-01-01T06:25:07.000Z</time>
      </trkpt>
      <trkpt lat="46.23574" lon="6.85112">
        <ele>1339</ele>
        <time>2000-01-01T06:25:17.000Z</time>
      </trkpt>
      <trkpt lat="46.23565" lon="6.85064">
        <ele>1342</ele>
        <time>2000-01-01T06:25:27.000Z</time>
      </trkpt>
      <trkpt lat="46.23557" lon="6.85015">
        <ele>1344</ele>
        <time>2000-01-01T06:25:37.000Z</time>
      </trkpt>
      <trkpt lat="46.2355" lon="6.84978">
        <ele>1347</ele>
        <time>2000-01-01T06:25:47.000Z</time>
      </trkpt>
      <trkpt lat="46.23541" lon="6.84926">
        <ele>1349</ele>
        <time>2000-01-01T06:25:57.000Z</time>
      </trkpt>
      <trkpt lat="46.23532" lon="6.84906">
        <ele>1350.1</ele>
        <time>2000-01-01T06:26:07.000Z</time>
      </trkpt>
      <trkpt lat="46.2351" lon="6.84848">
        <ele>1350</ele>
        <time>2000-01-01T06:26:17.000Z</time>
      </trkpt>
      <trkpt lat="46.23494" lon="6.84798">
        <ele>1352</ele>
        <time>2000-01-01T06:26:27.000Z</time>
      </trkpt>
      <trkpt lat="46.23481" lon="6.84764">
        <ele>1352</ele>
        <time>2000-01-01T06:26:37.000Z</time>
      </trkpt>
      <trkpt lat="46.23463" lon="6.8472">
        <ele>1352</ele>
        <time>2000-01-01T06:26:47.000Z</time>
      </trkpt>
      <trkpt lat="46.23446" lon="6.84694">
        <ele>1351</ele>
        <time>2000-01-01T06:26:57.000Z</time>
      </trkpt>
      <trkpt lat="46.23426" lon="6.84663">
        <ele>1351</ele>
        <time>2000-01-01T06:27:07.000Z</time>
      </trkpt>
      <trkpt lat="46.23408" lon="6.84634">
        <ele>1351</ele>
        <time>2000-01-01T06:27:17.000Z</time>
      </trkpt>
      <trkpt lat="46.23382" lon="6.84583">
        <ele>1352</ele>
        <time>2000-01-01T06:27:27.000Z</time>
      </trkpt>
      <trkpt lat="46.2336" lon="6.84552">
        <ele>1353</ele>
        <time>2000-01-01T06:27:37.000Z</time>
      </trkpt>
      <trkpt lat="46.23341" lon="6.84526">
        <ele>1355</ele>
        <time>2000-01-01T06:27:47.000Z</time>
      </trkpt>
      <trkpt lat="46.23317" lon="6.84493">
        <ele>1357.7</ele>
        <time>2000-01-01T06:27:57.000Z</time>
      </trkpt>
      <trkpt lat="46.23293" lon="6.8447">
        <ele>1358</ele>
        <time>2000-01-01T06:28:07.000Z</time>
      </trkpt>
      <trkpt lat="46.23255" lon="6.84434">
        <ele>1360.6</ele>
        <time>2000-01-01T06:28:17.000Z</time>
      </trkpt>
      <trkpt lat="46.23229" lon="6.84395">
        <ele>1362.1</ele>
        <time>2000-01-01T06:28:27.000Z</time>
      </trkpt>
      <trkpt lat="46.2322" lon="6.84386">
        <ele>1362.3</ele>
        <time>2000-01-01T06:28:37.000Z</time>
      </trkpt>
      <trkpt lat="46.23206" lon="6.8438">
        <ele>1363.1</ele>
        <time>2000-01-01T06:28:47.000Z</time>
      </trkpt>
      <trkpt lat="46.23181" lon="6.84377">
        <ele>1363.5</ele>
        <time>2000-01-01T06:28:57.000Z</time>
      </trkpt>
      <trkpt lat="46.23159" lon="6.84369">
        <ele>1363.9</ele>
        <time>2000-01-01T06:29:07.000Z</time>
      </trkpt>
      <trkpt lat="46.23135" lon="6.84353">
        <ele>1366.3</ele>
        <time>2000-01-01T06:29:17.000Z</time>
      </trkpt>
      <trkpt lat="46.23103" lon="6.84333">
        <ele>1366.6</ele>
        <time>2000-01-01T06:29:27.000Z</time>
      </trkpt>
      <trkpt lat="46.2308" lon="6.84307">
        <ele>1369.8</ele>
        <time>2000-01-01T06:29:37.000Z</time>
      </trkpt>
      <trkpt lat="46.23046" lon="6.84267">
        <ele>1373.4</ele>
        <time>2000-01-01T06:29:47.000Z</time>
      </trkpt>
      <trkpt lat="46.23022" lon="6.84232">
        <ele>1375.1</ele>
        <time>2000-01-01T06:29:57.000Z</time>
      </trkpt>
      <trkpt lat="46.23014" lon="6.84213">
        <ele>1375.7</ele>
        <time>2000-01-01T06:30:07.000Z</time>
      </trkpt>
      <trkpt lat="46.23" lon="6.84161">
        <ele>1388</ele>
        <time>2000-01-01T06:30:17.000Z</time>
      </trkpt>
      <trkpt lat="46.22988" lon="6.84128">
        <ele>1392</ele>
        <time>2000-01-01T06:30:27.000Z</time>
      </trkpt>
      <trkpt lat="46.22975" lon="6.84088">
        <ele>1396</ele>
        <time>2000-01-01T06:30:37.000Z</time>
      </trkpt>
      <trkpt lat="46.22949" lon="6.8405">
        <ele>1398</ele>
        <time>2000-01-01T06:30:47.000Z</time>
      </trkpt>
      <trkpt lat="46.22941" lon="6.84043">
        <ele>1386.3</ele>
        <time>2000-01-01T06:30:57.000Z</time>
      </trkpt>
      <trkpt lat="46.2293" lon="6.8404">
        <ele>1400</ele>
        <time>2000-01-01T06:31:07.000Z</time>
      </trkpt>
      <trkpt lat="46.22913" lon="6.84041">
        <ele>1389.8</ele>
        <time>2000-01-01T06:31:17.000Z</time>
      </trkpt>
      <trkpt lat="46.22879" lon="6.84055">
        <ele>1403</ele>
        <time>2000-01-01T06:31:27.000Z</time>
      </trkpt>
      <trkpt lat="46.22869" lon="6.84055">
        <ele>1393.3</ele>
        <time>2000-01-01T06:31:37.000Z</time>
      </trkpt>
      <trkpt lat="46.22859" lon="6.84048">
        <ele>1406</ele>
        <time>2000-01-01T06:31:47.000Z</time>
      </trkpt>
      <trkpt lat="46.22834" lon="6.8401">
        <ele>1398.3</ele>
        <time>2000-01-01T06:31:57.000Z</time>
      </trkpt>
      <trkpt lat="46.22812" lon="6.83989">
        <ele>1400</ele>
        <time>2000-01-01T06:32:07.000Z</time>
      </trkpt>
      <trkpt lat="46.22783" lon="6.83963">
        <ele>1402.2</ele>
        <time>2000-01-01T06:32:17.000Z</time>
      </trkpt>
      <trkpt lat="46.2277" lon="6.83943">
        <ele>1403</ele>
        <time>2000-01-01T06:32:27.000Z</time>
      </trkpt>
      <trkpt lat="46.2275" lon="6.83895">
        <ele>1404.3</ele>
        <time>2000-01-01T06:32:37.000Z</time>
      </trkpt>
      <trkpt lat="46.22741" lon="6.83883">
        <ele>1405.1</ele>
        <time>2000-01-01T06:32:47.000Z</time>
      </trkpt>
      <trkpt lat="46.22725" lon="6.83874">
        <ele>1404.9</ele>
        <time>2000-01-01T06:32:57.000Z</time>
      </trkpt>
      <trkpt lat="46.22706" lon="6.83871">
        <ele>1404.6</ele>
        <time>2000-01-01T06:33:07.000Z</time>
      </trkpt>
      <trkpt lat="46.22671" lon="6.83845">
        <ele>1407.6</ele>
        <time>2000-01-01T06:33:17.000Z</time>
      </trkpt>
      <trkpt lat="46.22638" lon="6.83841">
        <ele>1409.7</ele>
        <time>2000-01-01T06:33:27.000Z</time>
      </trkpt>
      <trkpt lat="46.22623" lon="6.83829">
        <ele>1409.8</ele>
        <time>2000-01-01T06:33:37.000Z</time>
      </trkpt>
      <trkpt lat="46.22596" lon="6.83794">
        <ele>1411.8</ele>
        <time>2000-01-01T06:33:47.000Z</time>
      </trkpt>
      <trkpt lat="46.22588" lon="6.83765">
        <ele>1414.4</ele>
        <time>2000-01-01T06:33:57.000Z</time>
      </trkpt>
      <trkpt lat="46.22583" lon="6.83758">
        <ele>1415.1</ele>
        <time>2000-01-01T06:34:07.000Z</time>
      </trkpt>
      <trkpt lat="46.22517" lon="6.83708">
        <ele>1420.4</ele>
        <time>2000-01-01T06:34:17.000Z</time>
      </trkpt>
      <trkpt lat="46.2249" lon="6.8368">
        <ele>1423.1</ele>
        <time>2000-01-01T06:34:27.000Z</time>
      </trkpt>
      <trkpt lat="46.22468" lon="6.83653">
        <ele>1425.9</ele>
        <time>2000-01-01T06:34:37.000Z</time>
      </trkpt>
      <trkpt lat="46.22444" lon="6.83643">
        <ele>1425.1</ele>
        <time>2000-01-01T06:34:47.000Z</time>
      </trkpt>
      <trkpt lat="46.22416" lon="6.83631">
        <ele>1428.3</ele>
        <time>2000-01-01T06:34:57.000Z</time>
      </trkpt>
      <trkpt lat="46.22385" lon="6.83631">
        <ele>1428.6</ele>
        <time>2000-01-01T06:35:07.000Z</time>
      </trkpt>
      <trkpt lat="46.22376" lon="6.83629">
        <ele>1428.1</ele>
        <time>2000-01-01T06:35:17.000Z</time>
      </trkpt>
      <trkpt lat="46.22337" lon="6.83595">
        <ele>1426.5</ele>
        <time>2000-01-01T06:35:27.000Z</time>
      </trkpt>
      <trkpt lat="46.223" lon="6.83572">
        <ele>1426.3</ele>
        <time>2000-01-01T06:35:37.000Z</time>
      </trkpt>
      <trkpt lat="46.22283" lon="6.83563">
        <ele>1426.5</ele>
        <time>2000-01-01T06:35:47.000Z</time>
      </trkpt>
      <trkpt lat="46.22243" lon="6.83552">
        <ele>1427.5</ele>
        <time>2000-01-01T06:35:57.000Z</time>
      </trkpt>
      <trkpt lat="46.22203" lon="6.83538">
        <ele>1428.5</ele>
        <time>2000-01-01T06:36:07.000Z</time>
      </trkpt>
      <trkpt lat="46.22179" lon="6.83527">
        <ele>1429.6</ele>
        <time>2000-01-01T06:36:17.000Z</time>
      </trkpt>
      <trkpt lat="46.22149" lon="6.83512">
        <ele>1430.4</ele>
        <time>2000-01-01T06:36:27.000Z</time>
      </trkpt>
      <trkpt lat="46.22138" lon="6.83502">
        <ele>1430.9</ele>
        <time>2000-01-01T06:36:37.000Z</time>
      </trkpt>
      <trkpt lat="46.22121" lon="6.83475">
        <ele>1432.8</ele>
        <time>2000-01-01T06:36:47.000Z</time>
      </trkpt>
      <trkpt lat="46.2211" lon="6.83463">
        <ele>1434.4</ele>
        <time>2000-01-01T06:36:57.000Z</time>
      </trkpt>
      <trkpt lat="46.22095" lon="6.8346">
        <ele>1435.6</ele>
        <time>2000-01-01T06:37:07.000Z</time>
      </trkpt>
      <trkpt lat="46.2207" lon="6.83463">
        <ele>1436</ele>
        <time>2000-01-01T06:37:17.000Z</time>
      </trkpt>
      <trkpt lat="46.22061" lon="6.83461">
        <ele>1436.5</ele>
        <time>2000-01-01T06:37:27.000Z</time>
      </trkpt>
      <trkpt lat="46.22043" lon="6.83449">
        <ele>1438.3</ele>
        <time>2000-01-01T06:37:37.000Z</time>
      </trkpt>
      <trkpt lat="46.22027" lon="6.83434">
        <ele>1440.4</ele>
        <time>2000-01-01T06:37:47.000Z</time>
      </trkpt>
      <trkpt lat="46.22001" lon="6.83403">
        <ele>1443.5</ele>
        <time>2000-01-01T06:37:57.000Z</time>
      </trkpt>
      <trkpt lat="46.21976" lon="6.83371">
        <ele>1445.8</ele>
        <time>2000-01-01T06:38:07.000Z</time>
      </trkpt>
      <trkpt lat="46.21957" lon="6.83349">
        <ele>1447.1</ele>
        <time>2000-01-01T06:38:17.000Z</time>
      </trkpt>
      <trkpt lat="46.21936" lon="6.83323">
        <ele>1446</ele>
        <time>2000-01-01T06:38:27.000Z</time>
      </trkpt>
      <trkpt lat="46.21912" lon="6.83291">
        <ele>1447</ele>
        <time>2000-01-01T06:38:37.000Z</time>
      </trkpt>
      <trkpt lat="46.21892" lon="6.83274">
        <ele>1450</ele>
        <time>2000-01-01T06:38:47.000Z</time>
      </trkpt>
      <trkpt lat="46.21871" lon="6.83252">
        <ele>1451</ele>
        <time>2000-01-01T06:38:57.000Z</time>
      </trkpt>
      <trkpt lat="46.21853" lon="6.83228">
        <ele>1453</ele>
        <time>2000-01-01T06:39:07.000Z</time>
      </trkpt>
      <trkpt lat="46.21832" lon="6.83203">
        <ele>1454</ele>
        <time>2000-01-01T06:39:17.000Z</time>
      </trkpt>
      <trkpt lat="46.21814" lon="6.83176">
        <ele>1458</ele>
        <time>2000-01-01T06:39:27.000Z</time>
      </trkpt>
      <trkpt lat="46.21789" lon="6.83142">
        <ele>1462</ele>
        <time>2000-01-01T06:39:37.000Z</time>
      </trkpt>
      <trkpt lat="46.21765" lon="6.83115">
        <ele>1465</ele>
        <time>2000-01-01T06:39:47.000Z</time>
      </trkpt>
      <trkpt lat="46.21744" lon="6.83092">
        <ele>1467</ele>
        <time>2000-01-01T06:39:57.000Z</time>
      </trkpt>
      <trkpt lat="46.21718" lon="6.83063">
        <ele>1468</ele>
        <time>2000-01-01T06:40:07.000Z</time>
      </trkpt>
      <trkpt lat="46.21698" lon="6.83042">
        <ele>1468</ele>
        <time>2000-01-01T06:40:17.000Z</time>
      </trkpt>
      <trkpt lat="46.21664" lon="6.82996">
        <ele>1472</ele>
        <time>2000-01-01T06:40:27.000Z</time>
      </trkpt>
      <trkpt lat="46.2164" lon="6.82982">
        <ele>1472</ele>
        <time>2000-01-01T06:40:37.000Z</time>
      </trkpt>
      <trkpt lat="46.21611" lon="6.82964">
        <ele>1472</ele>
        <time>2000-01-01T06:40:47.000Z</time>
      </trkpt>
      <trkpt lat="46.21593" lon="6.8294">
        <ele>1473</ele>
        <time>2000-01-01T06:40:57.000Z</time>
      </trkpt>
      <trkpt lat="46.21574" lon="6.82913">
        <ele>1476</ele>
        <time>2000-01-01T06:41:07.000Z</time>
      </trkpt>
      <trkpt lat="46.2155" lon="6.82898">
        <ele>1479</ele>
        <time>2000-01-01T06:41:17.000Z</time>
      </trkpt>
      <trkpt lat="46.2152" lon="6.82878">
        <ele>1482</ele>
        <time>2000-01-01T06:41:27.000Z</time>
      </trkpt>
      <trkpt lat="46.21503" lon="6.82872">
        <ele>1470.8</ele>
        <time>2000-01-01T06:41:37.000Z</time>
      </trkpt>
      <trkpt lat="46.21497" lon="6.82865">
        <ele>1483</ele>
        <time>2000-01-01T06:41:47.000Z</time>
      </trkpt>
      <trkpt lat="46.21479" lon="6.82836">
        <ele>1489</ele>
        <time>2000-01-01T06:41:57.000Z</time>
      </trkpt>
      <trkpt lat="46.2146" lon="6.828">
        <ele>1489</ele>
        <time>2000-01-01T06:42:07.000Z</time>
      </trkpt>
      <trkpt lat="46.21441" lon="6.82764">
        <ele>1489</ele>
        <time>2000-01-01T06:42:17.000Z</time>
      </trkpt>
      <trkpt lat="46.2142" lon="6.82725">
        <ele>1491</ele>
        <time>2000-01-01T06:42:27.000Z</time>
      </trkpt>
      <trkpt lat="46.21411" lon="6.82705">
        <ele>1484.3</ele>
        <time>2000-01-01T06:42:37.000Z</time>
      </trkpt>
      <trkpt lat="46.21402" lon="6.82672">
        <ele>1500</ele>
        <time>2000-01-01T06:42:47.000Z</time>
      </trkpt>
      <trkpt lat="46.21382" lon="6.82648">
        <ele>1501</ele>
        <time>2000-01-01T06:42:57.000Z</time>
      </trkpt>
      <trkpt lat="46.21355" lon="6.82632">
        <ele>1503</ele>
        <time>2000-01-01T06:43:07.000Z</time>
      </trkpt>
      <trkpt lat="46.2133" lon="6.82602">
        <ele>1505</ele>
        <time>2000-01-01T06:43:17.000Z</time>
      </trkpt>
      <trkpt lat="46.21306" lon="6.82573">
        <ele>1505</ele>
        <time>2000-01-01T06:43:27.000Z</time>
      </trkpt>
      <trkpt lat="46.21277" lon="6.82538">
        <ele>1506</ele>
        <time>2000-01-01T06:43:37.000Z</time>
      </trkpt>
      <trkpt lat="46.21248" lon="6.825">
        <ele>1506</ele>
        <time>2000-01-01T06:43:47.000Z</time>
      </trkpt>
      <trkpt lat="46.21241" lon="6.8249">
        <ele>1502.4</ele>
        <time>2000-01-01T06:43:57.000Z</time>
      </trkpt>
      <trkpt lat="46.21212" lon="6.82421">
        <ele>1511</ele>
        <time>2000-01-01T06:44:07.000Z</time>
      </trkpt>
      <trkpt lat="46.21194" lon="6.82394">
        <ele>1512</ele>
        <time>2000-01-01T06:44:17.000Z</time>
      </trkpt>
      <trkpt lat="46.21173" lon="6.82362">
        <ele>1513</ele>
        <time>2000-01-01T06:44:27.000Z</time>
      </trkpt>
      <trkpt lat="46.21167" lon="6.82346">
        <ele>1512.2</ele>
        <time>2000-01-01T06:44:37.000Z</time>
      </trkpt>
      <trkpt lat="46.21165" lon="6.8232">
        <ele>1519</ele>
        <time>2000-01-01T06:44:47.000Z</time>
      </trkpt>
      <trkpt lat="46.2117" lon="6.82281">
        <ele>1523</ele>
        <time>2000-01-01T06:44:57.000Z</time>
      </trkpt>
      <trkpt lat="46.21172" lon="6.82247">
        <ele>1529</ele>
        <time>2000-01-01T06:45:07.000Z</time>
      </trkpt>
      <trkpt lat="46.21174" lon="6.82213">
        <ele>1533</ele>
        <time>2000-01-01T06:45:17.000Z</time>
      </trkpt>
      <trkpt lat="46.21169" lon="6.8218">
        <ele>1538</ele>
        <time>2000-01-01T06:45:27.000Z</time>
      </trkpt>
      <trkpt lat="46.21164" lon="6.82171">
        <ele>1524.8</ele>
        <time>2000-01-01T06:45:37.000Z</time>
      </trkpt>
      <trkpt lat="46.21138" lon="6.82149">
        <ele>1543</ele>
        <time>2000-01-01T06:45:47.000Z</time>
      </trkpt>
      <trkpt lat="46.21121" lon="6.82141">
        <ele>1530.3</ele>
        <time>2000-01-01T06:45:57.000Z</time>
      </trkpt>
      <trkpt lat="46.21055" lon="6.82126">
        <ele>1547</ele>
        <time>2000-01-01T06:46:07.000Z</time>
      </trkpt>
      <trkpt lat="46.21032" lon="6.82113">
        <ele>1548</ele>
        <time>2000-01-01T06:46:17.000Z</time>
      </trkpt>
      <trkpt lat="46.21005" lon="6.82099">
        <ele>1549</ele>
        <time>2000-01-01T06:46:27.000Z</time>
      </trkpt>
      <trkpt lat="46.2098" lon="6.82079">
        <ele>1554</ele>
        <time>2000-01-01T06:46:37.000Z</time>
      </trkpt>
      <trkpt lat="46.20949" lon="6.82034">
        <ele>1560</ele>
        <time>2000-01-01T06:46:47.000Z</time>
      </trkpt>
      <trkpt lat="46.20934" lon="6.82008">
        <ele>1561</ele>
        <time>2000-01-01T06:46:57.000Z</time>
      </trkpt>
      <trkpt lat="46.2092" lon="6.81981">
        <ele>1563</ele>
        <time>2000-01-01T06:47:07.000Z</time>
      </trkpt>
      <trkpt lat="46.20917" lon="6.81974">
        <ele>1554.9</ele>
        <time>2000-01-01T06:47:17.000Z</time>
      </trkpt>
      <trkpt lat="46.2092" lon="6.81964">
        <ele>1556.5</ele>
        <time>2000-01-01T06:47:27.000Z</time>
      </trkpt>
      <trkpt lat="46.20927" lon="6.81963">
        <ele>1564</ele>
        <time>2000-01-01T06:47:37.000Z</time>
      </trkpt>
      <trkpt lat="46.20942" lon="6.81979">
        <ele>1558.6</ele>
        <time>2000-01-01T06:47:47.000Z</time>
      </trkpt>
      <trkpt lat="46.20994" lon="6.82005">
        <ele>1564</ele>
        <time>2000-01-01T06:47:57.000Z</time>
      </trkpt>
      <trkpt lat="46.21033" lon="6.82011">
        <ele>1566</ele>
        <time>2000-01-01T06:48:07.000Z</time>
      </trkpt>
      <trkpt lat="46.21058" lon="6.82023">
        <ele>1566</ele>
        <time>2000-01-01T06:48:17.000Z</time>
      </trkpt>
      <trkpt lat="46.21066" lon="6.82021">
        <ele>1568.9</ele>
        <time>2000-01-01T06:48:27.000Z</time>
      </trkpt>
      <trkpt lat="46.21067" lon="6.82012">
        <ele>1571.3</ele>
        <time>2000-01-01T06:48:37.000Z</time>
      </trkpt>
      <trkpt lat="46.21037" lon="6.81994">
        <ele>1571</ele>
        <time>2000-01-01T06:48:47.000Z</time>
      </trkpt>
      <trkpt lat="46.21003" lon="6.81959">
        <ele>1577</ele>
        <time>2000-01-01T06:48:57.000Z</time>
      </trkpt>
      <trkpt lat="46.20992" lon="6.81942">
        <ele>1575.9</ele>
        <time>2000-01-01T06:49:07.000Z</time>
      </trkpt>
      <trkpt lat="46.20986" lon="6.81931">
        <ele>1578</ele>
        <time>2000-01-01T06:49:17.000Z</time>
      </trkpt>
      <trkpt lat="46.20982" lon="6.81917">
        <ele>1579.1</ele>
        <time>2000-01-01T06:49:27.000Z</time>
      </trkpt>
      <trkpt lat="46.2098" lon="6.81885">
        <ele>1589</ele>
        <time>2000-01-01T06:49:37.000Z</time>
      </trkpt>
      <trkpt lat="46.20976" lon="6.81863">
        <ele>1583</ele>
        <time>2000-01-01T06:49:47.000Z</time>
      </trkpt>
      <trkpt lat="46.20964" lon="6.81836">
        <ele>1599</ele>
        <time>2000-01-01T06:49:57.000Z</time>
      </trkpt>
      <trkpt lat="46.20948" lon="6.8182">
        <ele>1605</ele>
        <time>2000-01-01T06:50:07.000Z</time>
      </trkpt>
      <trkpt lat="46.20925" lon="6.8181">
        <ele>1604</ele>
        <time>2000-01-01T06:50:17.000Z</time>
      </trkpt>
      <trkpt lat="46.209" lon="6.81808">
        <ele>1604</ele>
        <time>2000-01-01T06:50:27.000Z</time>
      </trkpt>
      <trkpt lat="46.20871" lon="6.81806">
        <ele>1604</ele>
        <time>2000-01-01T06:50:37.000Z</time>
      </trkpt>
      <trkpt lat="46.20858" lon="6.81807">
        <ele>1595.1</ele>
        <time>2000-01-01T06:50:47.000Z</time>
      </trkpt>
      <trkpt lat="46.2084" lon="6.81814">
        <ele>1602</ele>
        <time>2000-01-01T06:50:57.000Z</time>
      </trkpt>
      <trkpt lat="46.20824" lon="6.81812">
        <ele>1598.3</ele>
        <time>2000-01-01T06:51:07.000Z</time>
      </trkpt>
      <trkpt lat="46.20808" lon="6.81806">
        <ele>1602</ele>
        <time>2000-01-01T06:51:17.000Z</time>
      </trkpt>
      <trkpt lat="46.20782" lon="6.81781">
        <ele>1605</ele>
        <time>2000-01-01T06:51:27.000Z</time>
      </trkpt>
      <trkpt lat="46.2077" lon="6.81751">
        <ele>1609</ele>
        <time>2000-01-01T06:51:37.000Z</time>
      </trkpt>
      <trkpt lat="46.20765" lon="6.81741">
        <ele>1607.6</ele>
        <time>2000-01-01T06:51:47.000Z</time>
      </trkpt>
      <trkpt lat="46.20759" lon="6.81737">
        <ele>1607.4</ele>
        <time>2000-01-01T06:51:57.000Z</time>
      </trkpt>
      <trkpt lat="46.20745" lon="6.81731">
        <ele>1617</ele>
        <time>2000-01-01T06:52:07.000Z</time>
      </trkpt>
      <trkpt lat="46.20734" lon="6.81731">
        <ele>1609.7</ele>
        <time>2000-01-01T06:52:17.000Z</time>
      </trkpt>
      <trkpt lat="46.20705" lon="6.8175">
        <ele>1620</ele>
        <time>2000-01-01T06:52:27.000Z</time>
      </trkpt>
      <trkpt lat="46.20677" lon="6.81758">
        <ele>1624</ele>
        <time>2000-01-01T06:52:37.000Z</time>
      </trkpt>
      <trkpt lat="46.20643" lon="6.8176">
        <ele>1633</ele>
        <time>2000-01-01T06:52:47.000Z</time>
      </trkpt>
      <trkpt lat="46.20617" lon="6.81767">
        <ele>1640</ele>
        <time>2000-01-01T06:52:57.000Z</time>
      </trkpt>
      <trkpt lat="46.20594" lon="6.81779">
        <ele>1643</ele>
        <time>2000-01-01T06:53:07.000Z</time>
      </trkpt>
      <trkpt lat="46.2057" lon="6.81791">
        <ele>1647</ele>
        <time>2000-01-01T06:53:17.000Z</time>
      </trkpt>
      <trkpt lat="46.20548" lon="6.81808">
        <ele>1648</ele>
        <time>2000-01-01T06:53:27.000Z</time>
      </trkpt>
      <trkpt lat="46.20522" lon="6.81826">
        <ele>1647</ele>
        <time>2000-01-01T06:53:37.000Z</time>
      </trkpt>
      <trkpt lat="46.20511" lon="6.81844">
        <ele>1633</ele>
        <time>2000-01-01T06:53:47.000Z</time>
      </trkpt>
      <trkpt lat="46.20488" lon="6.81901">
        <ele>1647</ele>
        <time>2000-01-01T06:53:57.000Z</time>
      </trkpt>
      <trkpt lat="46.20468" lon="6.81932">
        <ele>1652</ele>
        <time>2000-01-01T06:54:07.000Z</time>
      </trkpt>
      <trkpt lat="46.20452" lon="6.81958">
        <ele>1656</ele>
        <time>2000-01-01T06:54:17.000Z</time>
      </trkpt>
      <trkpt lat="46.20434" lon="6.81986">
        <ele>1664</ele>
        <time>2000-01-01T06:54:27.000Z</time>
      </trkpt>
      <trkpt lat="46.20431" lon="6.81997">
        <ele>1646.7</ele>
        <time>2000-01-01T06:54:37.000Z</time>
      </trkpt>
      <trkpt lat="46.2043" lon="6.82015">
        <ele>1670</ele>
        <time>2000-01-01T06:54:47.000Z</time>
      </trkpt>
      <trkpt lat="46.20424" lon="6.8202">
        <ele>1649</ele>
        <time>2000-01-01T06:54:57.000Z</time>
      </trkpt>
      <trkpt lat="46.2042" lon="6.82013">
        <ele>1651</ele>
        <time>2000-01-01T06:55:07.000Z</time>
      </trkpt>
      <trkpt lat="46.20424" lon="6.81987">
        <ele>1667</ele>
        <time>2000-01-01T06:55:17.000Z</time>
      </trkpt>
      <trkpt lat="46.20435" lon="6.81947">
        <ele>1666</ele>
        <time>2000-01-01T06:55:27.000Z</time>
      </trkpt>
      <trkpt lat="46.20444" lon="6.81914">
        <ele>1666</ele>
        <time>2000-01-01T06:55:37.000Z</time>
      </trkpt>
      <trkpt lat="46.20454" lon="6.81877">
        <ele>1669</ele>
        <time>2000-01-01T06:55:47.000Z</time>
      </trkpt>
      <trkpt lat="46.20463" lon="6.81854">
        <ele>1655.7</ele>
        <time>2000-01-01T06:55:57.000Z</time>
      </trkpt>
      <trkpt lat="46.20462" lon="6.81846">
        <ele>1670</ele>
        <time>2000-01-01T06:56:07.000Z</time>
      </trkpt>
      <trkpt lat="46.20456" lon="6.81848">
        <ele>1659.3</ele>
        <time>2000-01-01T06:56:17.000Z</time>
      </trkpt>
      <trkpt lat="46.20452" lon="6.8186">
        <ele>1659.2</ele>
        <time>2000-01-01T06:56:27.000Z</time>
      </trkpt>
      <trkpt lat="46.20419" lon="6.8192">
        <ele>1682</ele>
        <time>2000-01-01T06:56:37.000Z</time>
      </trkpt>
      <trkpt lat="46.20404" lon="6.81949">
        <ele>1684</ele>
        <time>2000-01-01T06:56:47.000Z</time>
      </trkpt>
      <trkpt lat="46.20399" lon="6.81963">
        <ele>1668.2</ele>
        <time>2000-01-01T06:56:57.000Z</time>
      </trkpt>
      <trkpt lat="46.20386" lon="6.82028">
        <ele>1688</ele>
        <time>2000-01-01T06:57:07.000Z</time>
      </trkpt>
      <trkpt lat="46.20383" lon="6.8209">
        <ele>1687</ele>
        <time>2000-01-01T06:57:17.000Z</time>
      </trkpt>
      <trkpt lat="46.2039" lon="6.82141">
        <ele>1687</ele>
        <time>2000-01-01T06:57:27.000Z</time>
      </trkpt>
      <trkpt lat="46.2039" lon="6.82151">
        <ele>1678.1</ele>
        <time>2000-01-01T06:57:37.000Z</time>
      </trkpt>
      <trkpt lat="46.20386" lon="6.82164">
        <ele>1679.5</ele>
        <time>2000-01-01T06:57:47.000Z</time>
      </trkpt>
      <trkpt lat="46.20382" lon="6.8217">
        <ele>1688</ele>
        <time>2000-01-01T06:57:57.000Z</time>
      </trkpt>
      <trkpt lat="46.20357" lon="6.82191">
        <ele>1689</ele>
        <time>2000-01-01T06:58:07.000Z</time>
      </trkpt>
      <trkpt lat="46.20346" lon="6.82196">
        <ele>1682.5</ele>
        <time>2000-01-01T06:58:17.000Z</time>
      </trkpt>
      <trkpt lat="46.2029" lon="6.82204">
        <ele>1697</ele>
        <time>2000-01-01T06:58:27.000Z</time>
      </trkpt>
      <trkpt lat="46.20284" lon="6.82208">
        <ele>1691.5</ele>
        <time>2000-01-01T06:58:37.000Z</time>
      </trkpt>
      <trkpt lat="46.20276" lon="6.82222">
        <ele>1698</ele>
        <time>2000-01-01T06:58:47.000Z</time>
      </trkpt>
      <trkpt lat="46.20275" lon="6.82272">
        <ele>1699</ele>
        <time>2000-01-01T06:58:57.000Z</time>
      </trkpt>
      <trkpt lat="46.20279" lon="6.82313">
        <ele>1699</ele>
        <time>2000-01-01T06:59:07.000Z</time>
      </trkpt>
      <trkpt lat="46.20278" lon="6.82351">
        <ele>1698</ele>
        <time>2000-01-01T06:59:17.000Z</time>
      </trkpt>
      <trkpt lat="46.20277" lon="6.82399">
        <ele>1698</ele>
        <time>2000-01-01T06:59:27.000Z</time>
      </trkpt>
      <trkpt lat="46.20278" lon="6.8241">
        <ele>1694</ele>
        <time>2000-01-01T06:59:37.000Z</time>
      </trkpt>
      <trkpt lat="46.20283" lon="6.82424">
        <ele>1694.5</ele>
        <time>2000-01-01T06:59:47.000Z</time>
      </trkpt>
      <trkpt lat="46.20297" lon="6.82436">
        <ele>1697</ele>
        <time>2000-01-01T06:59:57.000Z</time>
      </trkpt>
      <trkpt lat="46.20306" lon="6.82437">
        <ele>1695.1</ele>
        <time>2000-01-01T07:00:07.000Z</time>
      </trkpt>
      <trkpt lat="46.20333" lon="6.82433">
        <ele>1696</ele>
        <time>2000-01-01T07:00:17.000Z</time>
      </trkpt>
      <trkpt lat="46.20358" lon="6.82434">
        <ele>1696</ele>
        <time>2000-01-01T07:00:27.000Z</time>
      </trkpt>
      <trkpt lat="46.20365" lon="6.8243">
        <ele>1694.3</ele>
        <time>2000-01-01T07:00:37.000Z</time>
      </trkpt>
      <trkpt lat="46.20383" lon="6.82403">
        <ele>1693</ele>
        <time>2000-01-01T07:00:47.000Z</time>
      </trkpt>
      <trkpt lat="46.20392" lon="6.82394">
        <ele>1693.4</ele>
        <time>2000-01-01T07:00:57.000Z</time>
      </trkpt>
      <trkpt lat="46.2041" lon="6.82388">
        <ele>1692</ele>
        <time>2000-01-01T07:01:07.000Z</time>
      </trkpt>
      <trkpt lat="46.2042" lon="6.82398">
        <ele>1693.9</ele>
        <time>2000-01-01T07:01:17.000Z</time>
      </trkpt>
      <trkpt lat="46.20454" lon="6.82368">
        <ele>1691</ele>
        <time>2000-01-01T07:01:27.000Z</time>
      </trkpt>
      <trkpt lat="46.2047" lon="6.82359">
        <ele>1689.6</ele>
        <time>2000-01-01T07:01:37.000Z</time>
      </trkpt>
      <trkpt lat="46.20489" lon="6.8234">
        <ele>1686</ele>
        <time>2000-01-01T07:01:47.000Z</time>
      </trkpt>
      <trkpt lat="46.20495" lon="6.82338">
        <ele>1685.4</ele>
        <time>2000-01-01T07:01:57.000Z</time>
      </trkpt>
      <trkpt lat="46.20507" lon="6.82339">
        <ele>1685.3</ele>
        <time>2000-01-01T07:02:07.000Z</time>
      </trkpt>
      <trkpt lat="46.20552" lon="6.8232">
        <ele>1679</ele>
        <time>2000-01-01T07:02:17.000Z</time>
      </trkpt>
      <trkpt lat="46.20574" lon="6.82324">
        <ele>1679</ele>
        <time>2000-01-01T07:02:27.000Z</time>
      </trkpt>
      <trkpt lat="46.20593" lon="6.82322">
        <ele>1678</ele>
        <time>2000-01-01T07:02:37.000Z</time>
      </trkpt>
      <trkpt lat="46.20613" lon="6.82314">
        <ele>1673</ele>
        <time>2000-01-01T07:02:47.000Z</time>
      </trkpt>
      <trkpt lat="46.20635" lon="6.82327">
        <ele>1673</ele>
        <time>2000-01-01T07:02:57.000Z</time>
      </trkpt>
      <trkpt lat="46.20651" lon="6.82331">
        <ele>1670.3</ele>
        <time>2000-01-01T07:03:07.000Z</time>
      </trkpt>
      <trkpt lat="46.20684" lon="6.82352">
        <ele>1667</ele>
        <time>2000-01-01T07:03:17.000Z</time>
      </trkpt>
      <trkpt lat="46.20692" lon="6.82378">
        <ele>1664</ele>
        <time>2000-01-01T07:03:27.000Z</time>
      </trkpt>
      <trkpt lat="46.20678" lon="6.82412">
        <ele>1663</ele>
        <time>2000-01-01T07:03:37.000Z</time>
      </trkpt>
      <trkpt lat="46.20672" lon="6.82434">
        <ele>1658.7</ele>
        <time>2000-01-01T07:03:47.000Z</time>
      </trkpt>
      <trkpt lat="46.20674" lon="6.82475">
        <ele>1665</ele>
        <time>2000-01-01T07:03:57.000Z</time>
      </trkpt>
      <trkpt lat="46.2067" lon="6.82508">
        <ele>1665</ele>
        <time>2000-01-01T07:04:07.000Z</time>
      </trkpt>
      <trkpt lat="46.2066" lon="6.82547">
        <ele>1664</ele>
        <time>2000-01-01T07:04:17.000Z</time>
      </trkpt>
      <trkpt lat="46.20653" lon="6.82579">
        <ele>1664</ele>
        <time>2000-01-01T07:04:27.000Z</time>
      </trkpt>
      <trkpt lat="46.20645" lon="6.82612">
        <ele>1667</ele>
        <time>2000-01-01T07:04:37.000Z</time>
      </trkpt>
      <trkpt lat="46.20634" lon="6.82645">
        <ele>1669</ele>
        <time>2000-01-01T07:04:47.000Z</time>
      </trkpt>
      <trkpt lat="46.20622" lon="6.82685">
        <ele>1670</ele>
        <time>2000-01-01T07:04:57.000Z</time>
      </trkpt>
      <trkpt lat="46.20623" lon="6.82696">
        <ele>1643.9</ele>
        <time>2000-01-01T07:05:07.000Z</time>
      </trkpt>
      <trkpt lat="46.20629" lon="6.82706">
        <ele>1644.3</ele>
        <time>2000-01-01T07:05:17.000Z</time>
      </trkpt>
      <trkpt lat="46.20637" lon="6.82709">
        <ele>1664</ele>
        <time>2000-01-01T07:05:27.000Z</time>
      </trkpt>
      <trkpt lat="46.20663" lon="6.82695">
        <ele>1659</ele>
        <time>2000-01-01T07:05:37.000Z</time>
      </trkpt>
      <trkpt lat="46.20685" lon="6.8269">
        <ele>1655</ele>
        <time>2000-01-01T07:05:47.000Z</time>
      </trkpt>
      <trkpt lat="46.2072" lon="6.82699">
        <ele>1652</ele>
        <time>2000-01-01T07:05:57.000Z</time>
      </trkpt>
      <trkpt lat="46.20747" lon="6.82698">
        <ele>1651</ele>
        <time>2000-01-01T07:06:07.000Z</time>
      </trkpt>
      <trkpt lat="46.20771" lon="6.82706">
        <ele>1650</ele>
        <time>2000-01-01T07:06:17.000Z</time>
      </trkpt>
      <trkpt lat="46.20798" lon="6.82708">
        <ele>1647</ele>
        <time>2000-01-01T07:06:27.000Z</time>
      </trkpt>
      <trkpt lat="46.20821" lon="6.82716">
        <ele>1645</ele>
        <time>2000-01-01T07:06:37.000Z</time>
      </trkpt>
      <trkpt lat="46.20845" lon="6.82725">
        <ele>1645</ele>
        <time>2000-01-01T07:06:47.000Z</time>
      </trkpt>
      <trkpt lat="46.2088" lon="6.82755">
        <ele>1645</ele>
        <time>2000-01-01T07:06:57.000Z</time>
      </trkpt>
      <trkpt lat="46.20893" lon="6.82783">
        <ele>1647</ele>
        <time>2000-01-01T07:07:07.000Z</time>
      </trkpt>
      <trkpt lat="46.20896" lon="6.82819">
        <ele>1644</ele>
        <time>2000-01-01T07:07:17.000Z</time>
      </trkpt>
      <trkpt lat="46.20901" lon="6.82829">
        <ele>1637.3</ele>
        <time>2000-01-01T07:07:27.000Z</time>
      </trkpt>
      <trkpt lat="46.20911" lon="6.82842">
        <ele>1642</ele>
        <time>2000-01-01T07:07:37.000Z</time>
      </trkpt>
      <trkpt lat="46.20923" lon="6.82846">
        <ele>1630.1</ele>
        <time>2000-01-01T07:07:47.000Z</time>
      </trkpt>
      <trkpt lat="46.20927" lon="6.82852">
        <ele>1629.6</ele>
        <time>2000-01-01T07:07:57.000Z</time>
      </trkpt>
      <trkpt lat="46.20931" lon="6.82865">
        <ele>1645</ele>
        <time>2000-01-01T07:08:07.000Z</time>
      </trkpt>
      <trkpt lat="46.2093" lon="6.82908">
        <ele>1643</ele>
        <time>2000-01-01T07:08:17.000Z</time>
      </trkpt>
      <trkpt lat="46.20933" lon="6.82918">
        <ele>1629</ele>
        <time>2000-01-01T07:08:27.000Z</time>
      </trkpt>
      <trkpt lat="46.20941" lon="6.8293">
        <ele>1642</ele>
        <time>2000-01-01T07:08:37.000Z</time>
      </trkpt>
      <trkpt lat="46.20947" lon="6.82933">
        <ele>1624.6</ele>
        <time>2000-01-01T07:08:47.000Z</time>
      </trkpt>
      <trkpt lat="46.2096" lon="6.82929">
        <ele>1639</ele>
        <time>2000-01-01T07:08:57.000Z</time>
      </trkpt>
      <trkpt lat="46.20992" lon="6.82945">
        <ele>1629</ele>
        <time>2000-01-01T07:09:07.000Z</time>
      </trkpt>
      <trkpt lat="46.21025" lon="6.82948">
        <ele>1621</ele>
        <time>2000-01-01T07:09:17.000Z</time>
      </trkpt>
      <trkpt lat="46.21051" lon="6.82957">
        <ele>1616</ele>
        <time>2000-01-01T07:09:27.000Z</time>
      </trkpt>
      <trkpt lat="46.21074" lon="6.82977">
        <ele>1614</ele>
        <time>2000-01-01T07:09:37.000Z</time>
      </trkpt>
      <trkpt lat="46.21104" lon="6.83004">
        <ele>1612</ele>
        <time>2000-01-01T07:09:47.000Z</time>
      </trkpt>
      <trkpt lat="46.21133" lon="6.82981">
        <ele>1603</ele>
        <time>2000-01-01T07:09:57.000Z</time>
      </trkpt>
      <trkpt lat="46.21148" lon="6.82984">
        <ele>1606.4</ele>
        <time>2000-01-01T07:10:07.000Z</time>
      </trkpt>
      <trkpt lat="46.21159" lon="6.82993">
        <ele>1602</ele>
        <time>2000-01-01T07:10:17.000Z</time>
      </trkpt>
      <trkpt lat="46.2117" lon="6.83009">
        <ele>1604.7</ele>
        <time>2000-01-01T07:10:27.000Z</time>
      </trkpt>
      <trkpt lat="46.21176" lon="6.83022">
        <ele>1600</ele>
        <time>2000-01-01T07:10:37.000Z</time>
      </trkpt>
      <trkpt lat="46.21184" lon="6.83061">
        <ele>1599</ele>
        <time>2000-01-01T07:10:47.000Z</time>
      </trkpt>
      <trkpt lat="46.21196" lon="6.83122">
        <ele>1599</ele>
        <time>2000-01-01T07:10:57.000Z</time>
      </trkpt>
      <trkpt lat="46.21197" lon="6.83144">
        <ele>1596.3</ele>
        <time>2000-01-01T07:11:07.000Z</time>
      </trkpt>
      <trkpt lat="46.212" lon="6.83154">
        <ele>1599</ele>
        <time>2000-01-01T07:11:17.000Z</time>
      </trkpt>
      <trkpt lat="46.21217" lon="6.83184">
        <ele>1599</ele>
        <time>2000-01-01T07:11:27.000Z</time>
      </trkpt>
      <trkpt lat="46.21228" lon="6.83216">
        <ele>1601</ele>
        <time>2000-01-01T07:11:37.000Z</time>
      </trkpt>
      <trkpt lat="46.21237" lon="6.83235">
        <ele>1591.6</ele>
        <time>2000-01-01T07:11:47.000Z</time>
      </trkpt>
      <trkpt lat="46.21246" lon="6.83247">
        <ele>1601</ele>
        <time>2000-01-01T07:11:57.000Z</time>
      </trkpt>
      <trkpt lat="46.21271" lon="6.83261">
        <ele>1596</ele>
        <time>2000-01-01T07:12:07.000Z</time>
      </trkpt>
      <trkpt lat="46.21289" lon="6.83281">
        <ele>1595</ele>
        <time>2000-01-01T07:12:17.000Z</time>
      </trkpt>
      <trkpt lat="46.21308" lon="6.83302">
        <ele>1594</ele>
        <time>2000-01-01T07:12:27.000Z</time>
      </trkpt>
      <trkpt lat="46.21319" lon="6.83335">
        <ele>1594</ele>
        <time>2000-01-01T07:12:37.000Z</time>
      </trkpt>
      <trkpt lat="46.21334" lon="6.83362">
        <ele>1594</ele>
        <time>2000-01-01T07:12:47.000Z</time>
      </trkpt>
      <trkpt lat="46.21351" lon="6.8339">
        <ele>1591</ele>
        <time>2000-01-01T07:12:57.000Z</time>
      </trkpt>
      <trkpt lat="46.21382" lon="6.83405">
        <ele>1583</ele>
        <time>2000-01-01T07:13:07.000Z</time>
      </trkpt>
      <trkpt lat="46.21403" lon="6.83443">
        <ele>1583</ele>
        <time>2000-01-01T07:13:17.000Z</time>
      </trkpt>
      <trkpt lat="46.21408" lon="6.83445">
        <ele>1571.7</ele>
        <time>2000-01-01T07:13:27.000Z</time>
      </trkpt>
      <trkpt lat="46.21418" lon="6.83443">
        <ele>1569.2</ele>
        <time>2000-01-01T07:13:37.000Z</time>
      </trkpt>
      <trkpt lat="46.21434" lon="6.83473">
        <ele>1579</ele>
        <time>2000-01-01T07:13:47.000Z</time>
      </trkpt>
      <trkpt lat="46.21452" lon="6.8347">
        <ele>1567.7</ele>
        <time>2000-01-01T07:13:57.000Z</time>
      </trkpt>
      <trkpt lat="46.21465" lon="6.83464">
        <ele>1576</ele>
        <time>2000-01-01T07:14:07.000Z</time>
      </trkpt>
      <trkpt lat="46.215" lon="6.83468">
        <ele>1573</ele>
        <time>2000-01-01T07:14:17.000Z</time>
      </trkpt>
      <trkpt lat="46.21523" lon="6.83462">
        <ele>1570</ele>
        <time>2000-01-01T07:14:27.000Z</time>
      </trkpt>
      <trkpt lat="46.21547" lon="6.83455">
        <ele>1565</ele>
        <time>2000-01-01T07:14:37.000Z</time>
      </trkpt>
      <trkpt lat="46.21564" lon="6.83455">
        <ele>1557</ele>
        <time>2000-01-01T07:14:47.000Z</time>
      </trkpt>
      <trkpt lat="46.21606" lon="6.83478">
        <ele>1564</ele>
        <time>2000-01-01T07:14:57.000Z</time>
      </trkpt>
      <trkpt lat="46.21645" lon="6.83493">
        <ele>1558</ele>
        <time>2000-01-01T07:15:07.000Z</time>
      </trkpt>
      <trkpt lat="46.21667" lon="6.83509">
        <ele>1558</ele>
        <time>2000-01-01T07:15:17.000Z</time>
      </trkpt>
      <trkpt lat="46.21694" lon="6.83519">
        <ele>1553</ele>
        <time>2000-01-01T07:15:27.000Z</time>
      </trkpt>
      <trkpt lat="46.21716" lon="6.83535">
        <ele>1553</ele>
        <time>2000-01-01T07:15:37.000Z</time>
      </trkpt>
      <trkpt lat="46.2174" lon="6.83553">
        <ele>1551</ele>
        <time>2000-01-01T07:15:47.000Z</time>
      </trkpt>
      <trkpt lat="46.2177" lon="6.83566">
        <ele>1548</ele>
        <time>2000-01-01T07:15:57.000Z</time>
      </trkpt>
      <trkpt lat="46.21797" lon="6.83576">
        <ele>1544</ele>
        <time>2000-01-01T07:16:07.000Z</time>
      </trkpt>
      <trkpt lat="46.21835" lon="6.83591">
        <ele>1543</ele>
        <time>2000-01-01T07:16:17.000Z</time>
      </trkpt>
      <trkpt lat="46.21874" lon="6.83623">
        <ele>1540</ele>
        <time>2000-01-01T07:16:27.000Z</time>
      </trkpt>
      <trkpt lat="46.219" lon="6.83637">
        <ele>1534</ele>
        <time>2000-01-01T07:16:37.000Z</time>
      </trkpt>
      <trkpt lat="46.2191" lon="6.83649">
        <ele>1524.2</ele>
        <time>2000-01-01T07:16:47.000Z</time>
      </trkpt>
      <trkpt lat="46.21927" lon="6.8368">
        <ele>1534</ele>
        <time>2000-01-01T07:16:57.000Z</time>
      </trkpt>
      <trkpt lat="46.21967" lon="6.83696">
        <ele>1520.2</ele>
        <time>2000-01-01T07:17:07.000Z</time>
      </trkpt>
      <trkpt lat="46.21988" lon="6.83713">
        <ele>1517.5</ele>
        <time>2000-01-01T07:17:17.000Z</time>
      </trkpt>
      <trkpt lat="46.22011" lon="6.83731">
        <ele>1515.7</ele>
        <time>2000-01-01T07:17:27.000Z</time>
      </trkpt>
      <trkpt lat="46.22044" lon="6.83746">
        <ele>1512.4</ele>
        <time>2000-01-01T07:17:37.000Z</time>
      </trkpt>
      <trkpt lat="46.22065" lon="6.83765">
        <ele>1511.6</ele>
        <time>2000-01-01T07:17:47.000Z</time>
      </trkpt>
      <trkpt lat="46.22089" lon="6.83785">
        <ele>1509.1</ele>
        <time>2000-01-01T07:17:57.000Z</time>
      </trkpt>
      <trkpt lat="46.2212" lon="6.83806">
        <ele>1504.9</ele>
        <time>2000-01-01T07:18:07.000Z</time>
      </trkpt>
      <trkpt lat="46.22152" lon="6.83844">
        <ele>1505.1</ele>
        <time>2000-01-01T07:18:17.000Z</time>
      </trkpt>
      <trkpt lat="46.2217" lon="6.83857">
        <ele>1503.4</ele>
        <time>2000-01-01T07:18:27.000Z</time>
      </trkpt>
      <trkpt lat="46.22192" lon="6.83869">
        <ele>1503.1</ele>
        <time>2000-01-01T07:18:37.000Z</time>
      </trkpt>
      <trkpt lat="46.22218" lon="6.83874">
        <ele>1500.5</ele>
        <time>2000-01-01T07:18:47.000Z</time>
      </trkpt>
      <trkpt lat="46.22251" lon="6.83881">
        <ele>1499</ele>
        <time>2000-01-01T07:18:57.000Z</time>
      </trkpt>
      <trkpt lat="46.22263" lon="6.83889">
        <ele>1497.7</ele>
        <time>2000-01-01T07:19:07.000Z</time>
      </trkpt>
      <trkpt lat="46.22291" lon="6.83918">
        <ele>1495.5</ele>
        <time>2000-01-01T07:19:17.000Z</time>
      </trkpt>
      <trkpt lat="46.2231" lon="6.83928">
        <ele>1493.9</ele>
        <time>2000-01-01T07:19:27.000Z</time>
      </trkpt>
      <trkpt lat="46.22339" lon="6.83931">
        <ele>1491.2</ele>
        <time>2000-01-01T07:19:37.000Z</time>
      </trkpt>
      <trkpt lat="46.22384" lon="6.83935">
        <ele>1488.1</ele>
        <time>2000-01-01T07:19:47.000Z</time>
      </trkpt>
      <trkpt lat="46.22407" lon="6.83943">
        <ele>1487.6</ele>
        <time>2000-01-01T07:19:57.000Z</time>
      </trkpt>
      <trkpt lat="46.2243" lon="6.8395">
        <ele>1485</ele>
        <time>2000-01-01T07:20:07.000Z</time>
      </trkpt>
      <trkpt lat="46.22447" lon="6.83964">
        <ele>1484.4</ele>
        <time>2000-01-01T07:20:17.000Z</time>
      </trkpt>
      <trkpt lat="46.22465" lon="6.83985">
        <ele>1482.2</ele>
        <time>2000-01-01T07:20:27.000Z</time>
      </trkpt>
      <trkpt lat="46.22486" lon="6.83996">
        <ele>1478.2</ele>
        <time>2000-01-01T07:20:37.000Z</time>
      </trkpt>
      <trkpt lat="46.22503" lon="6.84013">
        <ele>1477.2</ele>
        <time>2000-01-01T07:20:47.000Z</time>
      </trkpt>
      <trkpt lat="46.22529" lon="6.84033">
        <ele>1474.3</ele>
        <time>2000-01-01T07:20:57.000Z</time>
      </trkpt>
      <trkpt lat="46.2255" lon="6.8405">
        <ele>1471.1</ele>
        <time>2000-01-01T07:21:07.000Z</time>
      </trkpt>
      <trkpt lat="46.22573" lon="6.84068">
        <ele>1468.3</ele>
        <time>2000-01-01T07:21:17.000Z</time>
      </trkpt>
      <trkpt lat="46.22617" lon="6.8409">
        <ele>1463.2</ele>
        <time>2000-01-01T07:21:27.000Z</time>
      </trkpt>
      <trkpt lat="46.22647" lon="6.84102">
        <ele>1459.5</ele>
        <time>2000-01-01T07:21:37.000Z</time>
      </trkpt>
      <trkpt lat="46.22678" lon="6.84114">
        <ele>1456.4</ele>
        <time>2000-01-01T07:21:47.000Z</time>
      </trkpt>
      <trkpt lat="46.22711" lon="6.84127">
        <ele>1451.5</ele>
        <time>2000-01-01T07:21:57.000Z</time>
      </trkpt>
      <trkpt lat="46.2272" lon="6.84134">
        <ele>1451.1</ele>
        <time>2000-01-01T07:22:07.000Z</time>
      </trkpt>
      <trkpt lat="46.22743" lon="6.84159">
        <ele>1449</ele>
        <time>2000-01-01T07:22:17.000Z</time>
      </trkpt>
      <trkpt lat="46.22763" lon="6.84188">
        <ele>727</ele>
        <time>2000-01-01T07:22:27.000Z</time>
      </trkpt>
      <trkpt lat="46.22791" lon="6.84232">
        <ele>1454</ele>
        <time>2000-01-01T07:22:37.000Z</time>
      </trkpt>
      <trkpt lat="46.22806" lon="6.84265">
        <ele>727</ele>
        <time>2000-01-01T07:22:47.000Z</time>
      </trkpt>
      <trkpt lat="46.22828" lon="6.84313">
        <ele>1438.7</ele>
        <time>2000-01-01T07:22:57.000Z</time>
      </trkpt>
      <trkpt lat="46.22838" lon="6.8436">
        <ele>1436.7</ele>
        <time>2000-01-01T07:23:07.000Z</time>
      </trkpt>
      <trkpt lat="46.22856" lon="6.84393">
        <ele>1434.8</ele>
        <time>2000-01-01T07:23:17.000Z</time>
      </trkpt>
      <trkpt lat="46.22877" lon="6.84412">
        <ele>1432.4</ele>
        <time>2000-01-01T07:23:27.000Z</time>
      </trkpt>
      <trkpt lat="46.229" lon="6.84433">
        <ele>1430</ele>
        <time>2000-01-01T07:23:37.000Z</time>
      </trkpt>
      <trkpt lat="46.22921" lon="6.84451">
        <ele>1426.1</ele>
        <time>2000-01-01T07:23:47.000Z</time>
      </trkpt>
      <trkpt lat="46.22956" lon="6.84494">
        <ele>1422.8</ele>
        <time>2000-01-01T07:23:57.000Z</time>
      </trkpt>
      <trkpt lat="46.22978" lon="6.84517">
        <ele>1420.4</ele>
        <time>2000-01-01T07:24:07.000Z</time>
      </trkpt>
      <trkpt lat="46.23008" lon="6.84548">
        <ele>1416.6</ele>
        <time>2000-01-01T07:24:17.000Z</time>
      </trkpt>
      <trkpt lat="46.23041" lon="6.84581">
        <ele>1414.1</ele>
        <time>2000-01-01T07:24:27.000Z</time>
      </trkpt>
      <trkpt lat="46.23066" lon="6.846">
        <ele>1410.2</ele>
        <time>2000-01-01T07:24:37.000Z</time>
      </trkpt>
      <trkpt lat="46.23084" lon="6.84633">
        <ele>1408.8</ele>
        <time>2000-01-01T07:24:47.000Z</time>
      </trkpt>
      <trkpt lat="46.2312" lon="6.84656">
        <ele>1404.6</ele>
        <time>2000-01-01T07:24:57.000Z</time>
      </trkpt>
      <trkpt lat="46.23137" lon="6.8469">
        <ele>1403.2</ele>
        <time>2000-01-01T07:25:07.000Z</time>
      </trkpt>
      <trkpt lat="46.23152" lon="6.84718">
        <ele>1401.4</ele>
        <time>2000-01-01T07:25:17.000Z</time>
      </trkpt>
      <trkpt lat="46.23167" lon="6.84749">
        <ele>1398.8</ele>
        <time>2000-01-01T07:25:27.000Z</time>
      </trkpt>
      <trkpt lat="46.23182" lon="6.84783">
        <ele>1397.8</ele>
        <time>2000-01-01T07:25:37.000Z</time>
      </trkpt>
      <trkpt lat="46.23195" lon="6.84799">
        <ele>1395.9</ele>
        <time>2000-01-01T07:25:47.000Z</time>
      </trkpt>
      <trkpt lat="46.23227" lon="6.8483">
        <ele>1392.4</ele>
        <time>2000-01-01T07:25:57.000Z</time>
      </trkpt>
      <trkpt lat="46.23239" lon="6.84856">
        <ele>1391.3</ele>
        <time>2000-01-01T07:26:07.000Z</time>
      </trkpt>
      <trkpt lat="46.23252" lon="6.8487">
        <ele>1389.1</ele>
        <time>2000-01-01T07:26:17.000Z</time>
      </trkpt>
      <trkpt lat="46.23269" lon="6.84883">
        <ele>1386.8</ele>
        <time>2000-01-01T07:26:27.000Z</time>
      </trkpt>
      <trkpt lat="46.23277" lon="6.84897">
        <ele>1385.8</ele>
        <time>2000-01-01T07:26:37.000Z</time>
      </trkpt>
      <trkpt lat="46.23294" lon="6.84955">
        <ele>1382.8</ele>
        <time>2000-01-01T07:26:47.000Z</time>
      </trkpt>
      <trkpt lat="46.23306" lon="6.84985">
        <ele>1379.8</ele>
        <time>2000-01-01T07:26:57.000Z</time>
      </trkpt>
      <trkpt lat="46.23318" lon="6.85018">
        <ele>1378.6</ele>
        <time>2000-01-01T07:27:07.000Z</time>
      </trkpt>
      <trkpt lat="46.23353" lon="6.85058">
        <ele>1373.3</ele>
        <time>2000-01-01T07:27:17.000Z</time>
      </trkpt>
      <trkpt lat="46.23368" lon="6.85108">
        <ele>1369.9</ele>
        <time>2000-01-01T07:27:27.000Z</time>
      </trkpt>
      <trkpt lat="46.23382" lon="6.85134">
        <ele>1369.3</ele>
        <time>2000-01-01T07:27:37.000Z</time>
      </trkpt>
      <trkpt lat="46.234" lon="6.85153">
        <ele>1365.3</ele>
        <time>2000-01-01T07:27:47.000Z</time>
      </trkpt>
      <trkpt lat="46.23415" lon="6.8518">
        <ele>1363.5</ele>
        <time>2000-01-01T07:27:57.000Z</time>
      </trkpt>
      <trkpt lat="46.23431" lon="6.8521">
        <ele>1361.1</ele>
        <time>2000-01-01T07:28:07.000Z</time>
      </trkpt>
      <trkpt lat="46.23449" lon="6.85255">
        <ele>1358.9</ele>
        <time>2000-01-01T07:28:17.000Z</time>
      </trkpt>
      <trkpt lat="46.23475" lon="6.85297">
        <ele>1354.6</ele>
        <time>2000-01-01T07:28:27.000Z</time>
      </trkpt>
      <trkpt lat="46.23492" lon="6.85333">
        <ele>1353.3</ele>
        <time>2000-01-01T07:28:37.000Z</time>
      </trkpt>
      <trkpt lat="46.23505" lon="6.85364">
        <ele>1351.4</ele>
        <time>2000-01-01T07:28:47.000Z</time>
      </trkpt>
      <trkpt lat="46.2352" lon="6.85399">
        <ele>1349.6</ele>
        <time>2000-01-01T07:28:57.000Z</time>
      </trkpt>
      <trkpt lat="46.23535" lon="6.85429">
        <ele>1346.8</ele>
        <time>2000-01-01T07:29:07.000Z</time>
      </trkpt>
      <trkpt lat="46.23552" lon="6.8545">
        <ele>1345.5</ele>
        <time>2000-01-01T07:29:17.000Z</time>
      </trkpt>
      <trkpt lat="46.23559" lon="6.85488">
        <ele>1343.4</ele>
        <time>2000-01-01T07:29:27.000Z</time>
      </trkpt>
      <trkpt lat="46.2357" lon="6.85541">
        <ele>1340.9</ele>
        <time>2000-01-01T07:29:37.000Z</time>
      </trkpt>
      <trkpt lat="46.23579" lon="6.85584">
        <ele>1348</ele>
        <time>2000-01-01T07:29:47.000Z</time>
      </trkpt>
      <trkpt lat="46.2358" lon="6.85599">
        <ele>1335.9</ele>
        <time>2000-01-01T07:29:57.000Z</time>
      </trkpt>
      <trkpt lat="46.23579" lon="6.85638">
        <ele>1348</ele>
        <time>2000-01-01T07:30:07.000Z</time>
      </trkpt>
      <trkpt lat="46.23581" lon="6.8565">
        <ele>1332.7</ele>
        <time>2000-01-01T07:30:17.000Z</time>
      </trkpt>
      <trkpt lat="46.23608" lon="6.85715">
        <ele>1334</ele>
        <time>2000-01-01T07:30:27.000Z</time>
      </trkpt>
      <trkpt lat="46.23617" lon="6.85763">
        <ele>1331</ele>
        <time>2000-01-01T07:30:37.000Z</time>
      </trkpt>
      <trkpt lat="46.2362" lon="6.8577">
        <ele>1321.7</ele>
        <time>2000-01-01T07:30:47.000Z</time>
      </trkpt>
      <trkpt lat="46.23625" lon="6.85765">
        <ele>1320.7</ele>
        <time>2000-01-01T07:30:57.000Z</time>
      </trkpt>
      <trkpt lat="46.23633" lon="6.85703">
        <ele>1327</ele>
        <time>2000-01-01T07:31:07.000Z</time>
      </trkpt>
      <trkpt lat="46.2364" lon="6.85679">
        <ele>1316.3</ele>
        <time>2000-01-01T07:31:17.000Z</time>
      </trkpt>
      <trkpt lat="46.23641" lon="6.85654">
        <ele>1328</ele>
        <time>2000-01-01T07:31:27.000Z</time>
      </trkpt>
      <trkpt lat="46.23635" lon="6.85619">
        <ele>1329</ele>
        <time>2000-01-01T07:31:37.000Z</time>
      </trkpt>
      <trkpt lat="46.2363" lon="6.856">
        <ele>1317</ele>
        <time>2000-01-01T07:31:47.000Z</time>
      </trkpt>
      <trkpt lat="46.23628" lon="6.85579">
        <ele>1324</ele>
        <time>2000-01-01T07:31:57.000Z</time>
      </trkpt>
      <trkpt lat="46.23631" lon="6.85576">
        <ele>1316.5</ele>
        <time>2000-01-01T07:32:07.000Z</time>
      </trkpt>
      <trkpt lat="46.23636" lon="6.85574">
        <ele>1315.4</ele>
        <time>2000-01-01T07:32:17.000Z</time>
      </trkpt>
      <trkpt lat="46.23683" lon="6.85572">
        <ele>1320</ele>
        <time>2000-01-01T07:32:27.000Z</time>
      </trkpt>
      <trkpt lat="46.23696" lon="6.85567">
        <ele>1318</ele>
        <time>2000-01-01T07:32:37.000Z</time>
      </trkpt>
      <trkpt lat="46.23695" lon="6.85511">
        <ele>1321.2</ele>
        <time>2000-01-01T07:32:47.000Z</time>
      </trkpt>
      <trkpt lat="46.23695" lon="6.85449">
        <ele>1324.8</ele>
        <time>2000-01-01T07:32:57.000Z</time>
      </trkpt>
      <trkpt lat="46.2369" lon="6.85423">
        <ele>1326.7</ele>
        <time>2000-01-01T07:33:07.000Z</time>
      </trkpt>
      <trkpt lat="46.23681" lon="6.85409">
        <ele>1327.6</ele>
        <time>2000-01-01T07:33:17.000Z</time>
      </trkpt>
      <trkpt lat="46.23668" lon="6.85395">
        <ele>1328</ele>
        <time>2000-01-01T07:33:27.000Z</time>
      </trkpt>
      <trkpt lat="46.23641" lon="6.85371">
        <ele>1330.2</ele>
        <time>2000-01-01T07:33:37.000Z</time>
      </trkpt>
      <trkpt lat="46.23632" lon="6.8536">
        <ele>1329.9</ele>
        <time>2000-01-01T07:33:47.000Z</time>
      </trkpt>
      <trkpt lat="46.23629" lon="6.85351">
        <ele>1330.8</ele>
        <time>2000-01-01T07:33:57.000Z</time>
      </trkpt>
      <trkpt lat="46.23627" lon="6.8534">
        <ele>1332.4</ele>
        <time>2000-01-01T07:34:07.000Z</time>
      </trkpt>
      <trkpt lat="46.23629" lon="6.85326">
        <ele>1333.9</ele>
        <time>2000-01-01T07:34:17.000Z</time>
      </trkpt>
      <trkpt lat="46.23632" lon="6.85315">
        <ele>1334.4</ele>
        <time>2000-01-01T07:34:27.000Z</time>
      </trkpt>
      <trkpt lat="46.23637" lon="6.85306">
        <ele>1334.9</ele>
        <time>2000-01-01T07:34:37.000Z</time>
      </trkpt>
      <trkpt lat="46.23649" lon="6.85296">
        <ele>1335</ele>
        <time>2000-01-01T07:34:47.000Z</time>
      </trkpt>
      <trkpt lat="46.23684" lon="6.85274">
        <ele>1337</ele>
        <time>2000-01-01T07:34:57.000Z</time>
      </trkpt>
      <trkpt lat="46.23703" lon="6.85256">
        <ele>1339</ele>
        <time>2000-01-01T07:35:07.000Z</time>
      </trkpt>
      <trkpt lat="46.23718" lon="6.85227">
        <ele>1342</ele>
        <time>2000-01-01T07:35:17.000Z</time>
      </trkpt>
      <trkpt lat="46.23735" lon="6.85195">
        <ele>1343</ele>
        <time>2000-01-01T07:35:27.000Z</time>
      </trkpt>
      <trkpt lat="46.23757" lon="6.85173">
        <ele>1344</ele>
        <time>2000-01-01T07:35:37.000Z</time>
      </trkpt>
      <trkpt lat="46.23782" lon="6.8516">
        <ele>1346</ele>
        <time>2000-01-01T07:35:47.000Z</time>
      </trkpt>
      <trkpt lat="46.23817" lon="6.85144">
        <ele>1347</ele>
        <time>2000-01-01T07:35:57.000Z</time>
      </trkpt>
      <trkpt lat="46.23841" lon="6.85126">
        <ele>1349</ele>
        <time>2000-01-01T07:36:07.000Z</time>
      </trkpt>
      <trkpt lat="46.23876" lon="6.85101">
        <ele>1350</ele>
        <time>2000-01-01T07:36:17.000Z</time>
      </trkpt>
      <trkpt lat="46.23889" lon="6.85095">
        <ele>1352.2</ele>
        <time>2000-01-01T07:36:27.000Z</time>
      </trkpt>
      <trkpt lat="46.23915" lon="6.8509">
        <ele>1354</ele>
        <time>2000-01-01T07:36:37.000Z</time>
      </trkpt>
      <trkpt lat="46.23939" lon="6.85096">
        <ele>1355</ele>
        <time>2000-01-01T07:36:47.000Z</time>
      </trkpt>
      <trkpt lat="46.23982" lon="6.85113">
        <ele>1358</ele>
        <time>2000-01-01T07:36:57.000Z</time>
      </trkpt>
      <trkpt lat="46.24004" lon="6.85118">
        <ele>1360</ele>
        <time>2000-01-01T07:37:07.000Z</time>
      </trkpt>
      <trkpt lat="46.24015" lon="6.85117">
        <ele>1361.7</ele>
        <time>2000-01-01T07:37:17.000Z</time>
      </trkpt>
      <trkpt lat="46.24051" lon="6.85104">
        <ele>1363</ele>
        <time>2000-01-01T07:37:27.000Z</time>
      </trkpt>
      <trkpt lat="46.24075" lon="6.85097">
        <ele>1364</ele>
        <time>2000-01-01T07:37:37.000Z</time>
      </trkpt>
      <trkpt lat="46.241" lon="6.85089">
        <ele>1365</ele>
        <time>2000-01-01T07:37:47.000Z</time>
      </trkpt>
      <trkpt lat="46.24126" lon="6.85087">
        <ele>1367</ele>
        <time>2000-01-01T07:37:57.000Z</time>
      </trkpt>
      <trkpt lat="46.24161" lon="6.85086">
        <ele>1369</ele>
        <time>2000-01-01T07:38:07.000Z</time>
      </trkpt>
      <trkpt lat="46.24187" lon="6.85086">
        <ele>1370</ele>
        <time>2000-01-01T07:38:17.000Z</time>
      </trkpt>
      <trkpt lat="46.24219" lon="6.85086">
        <ele>1370</ele>
        <time>2000-01-01T07:38:27.000Z</time>
      </trkpt>
      <trkpt lat="46.24222" lon="6.85079">
        <ele>1371.9</ele>
        <time>2000-01-01T07:38:37.000Z</time>
      </trkpt>
      <trkpt lat="46.24249" lon="6.85073">
        <ele>1375</ele>
        <time>2000-01-01T07:38:47.000Z</time>
      </trkpt>
      <trkpt lat="46.24276" lon="6.85058">
        <ele>1379</ele>
        <time>2000-01-01T07:38:57.000Z</time>
      </trkpt>
      <trkpt lat="46.24319" lon="6.85035">
        <ele>1382</ele>
        <time>2000-01-01T07:39:07.000Z</time>
      </trkpt>
      <trkpt lat="46.24328" lon="6.85028">
        <ele>1379.9</ele>
        <time>2000-01-01T07:39:17.000Z</time>
      </trkpt>
      <trkpt lat="46.24352" lon="6.84985">
        <ele>1382</ele>
        <time>2000-01-01T07:39:27.000Z</time>
      </trkpt>
      <trkpt lat="46.24371" lon="6.84965">
        <ele>1383</ele>
        <time>2000-01-01T07:39:37.000Z</time>
      </trkpt>
      <trkpt lat="46.2439" lon="6.84944">
        <ele>1382</ele>
        <time>2000-01-01T07:39:47.000Z</time>
      </trkpt>
      <trkpt lat="46.24412" lon="6.84916">
        <ele>1382</ele>
        <time>2000-01-01T07:39:57.000Z</time>
      </trkpt>
      <trkpt lat="46.24421" lon="6.84889">
        <ele>1382</ele>
        <time>2000-01-01T07:40:07.000Z</time>
      </trkpt>
      <trkpt lat="46.24422" lon="6.84867">
        <ele>1379.8</ele>
        <time>2000-01-01T07:40:17.000Z</time>
      </trkpt>
      <trkpt lat="46.24418" lon="6.84841">
        <ele>1382</ele>
        <time>2000-01-01T07:40:27.000Z</time>
      </trkpt>
      <trkpt lat="46.24422" lon="6.8482">
        <ele>1380.5</ele>
        <time>2000-01-01T07:40:37.000Z</time>
      </trkpt>
      <trkpt lat="46.24432" lon="6.84797">
        <ele>1382</ele>
        <time>2000-01-01T07:40:47.000Z</time>
      </trkpt>
      <trkpt lat="46.24461" lon="6.84762">
        <ele>1381</ele>
        <time>2000-01-01T07:40:57.000Z</time>
      </trkpt>
      <trkpt lat="46.24485" lon="6.84745">
        <ele>1381</ele>
        <time>2000-01-01T07:41:07.000Z</time>
      </trkpt>
      <trkpt lat="46.24514" lon="6.84735">
        <ele>1381</ele>
        <time>2000-01-01T07:41:17.000Z</time>
      </trkpt>
      <trkpt lat="46.24538" lon="6.8473">
        <ele>1379</ele>
        <time>2000-01-01T07:41:27.000Z</time>
      </trkpt>
      <trkpt lat="46.24564" lon="6.84725">
        <ele>1379</ele>
        <time>2000-01-01T07:41:37.000Z</time>
      </trkpt>
      <trkpt lat="46.24586" lon="6.84714">
        <ele>1379</ele>
        <time>2000-01-01T07:41:47.000Z</time>
      </trkpt>
      <trkpt lat="46.24626" lon="6.84683">
        <ele>1378</ele>
        <time>2000-01-01T07:41:57.000Z</time>
      </trkpt>
      <trkpt lat="46.24643" lon="6.84676">
        <ele>1377.2</ele>
        <time>2000-01-01T07:42:07.000Z</time>
      </trkpt>
      <trkpt lat="46.2466" lon="6.84672">
        <ele>1378</ele>
        <time>2000-01-01T07:42:17.000Z</time>
      </trkpt>
      <trkpt lat="46.24694" lon="6.84655">
        <ele>1376</ele>
        <time>2000-01-01T07:42:27.000Z</time>
      </trkpt>
      <trkpt lat="46.24725" lon="6.84652">
        <ele>1376</ele>
        <time>2000-01-01T07:42:37.000Z</time>
      </trkpt>
      <trkpt lat="46.24757" lon="6.84649">
        <ele>1376</ele>
        <time>2000-01-01T07:42:47.000Z</time>
      </trkpt>
      <trkpt lat="46.24792" lon="6.84646">
        <ele>1376</ele>
        <time>2000-01-01T07:42:57.000Z</time>
      </trkpt>
      <trkpt lat="46.24828" lon="6.84629">
        <ele>1376</ele>
        <time>2000-01-01T07:43:07.000Z</time>
      </trkpt>
      <trkpt lat="46.2486" lon="6.8462">
        <ele>1371</ele>
        <time>2000-01-01T07:43:17.000Z</time>
      </trkpt>
      <trkpt lat="46.24892" lon="6.84611">
        <ele>1371</ele>
        <time>2000-01-01T07:43:27.000Z</time>
      </trkpt>
      <trkpt lat="46.24932" lon="6.846">
        <ele>1370</ele>
        <time>2000-01-01T07:43:37.000Z</time>
      </trkpt>
      <trkpt lat="46.24952" lon="6.84597">
        <ele>1370</ele>
        <time>2000-01-01T07:43:47.000Z</time>
      </trkpt>
      <trkpt lat="46.24962" lon="6.84604">
        <ele>1370.4</ele>
        <time>2000-01-01T07:43:57.000Z</time>
      </trkpt>
      <trkpt lat="46.2497" lon="6.84589">
        <ele>1369</ele>
        <time>2000-01-01T07:44:07.000Z</time>
      </trkpt>
      <trkpt lat="46.24994" lon="6.84568">
        <ele>1367</ele>
        <time>2000-01-01T07:44:17.000Z</time>
      </trkpt>
      <trkpt lat="46.25002" lon="6.84549">
        <ele>1368</ele>
        <time>2000-01-01T07:44:27.000Z</time>
      </trkpt>
      <trkpt lat="46.25032" lon="6.84531">
        <ele>1363</ele>
        <time>2000-01-01T07:44:37.000Z</time>
      </trkpt>
      <trkpt lat="46.25058" lon="6.8452">
        <ele>1359</ele>
        <time>2000-01-01T07:44:47.000Z</time>
      </trkpt>
      <trkpt lat="46.2508" lon="6.84506">
        <ele>1349</ele>
        <time>2000-01-01T07:44:57.000Z</time>
      </trkpt>
      <trkpt lat="46.25105" lon="6.84491">
        <ele>1344</ele>
        <time>2000-01-01T07:45:07.000Z</time>
      </trkpt>
      <trkpt lat="46.25133" lon="6.84465">
        <ele>1338</ele>
        <time>2000-01-01T07:45:17.000Z</time>
      </trkpt>
      <trkpt lat="46.25161" lon="6.84438">
        <ele>1328</ele>
        <time>2000-01-01T07:45:27.000Z</time>
      </trkpt>
      <trkpt lat="46.25182" lon="6.84418">
        <ele>1325</ele>
        <time>2000-01-01T07:45:37.000Z</time>
      </trkpt>
      <trkpt lat="46.25206" lon="6.84396">
        <ele>1323</ele>
        <time>2000-01-01T07:45:47.000Z</time>
      </trkpt>
      <trkpt lat="46.2525" lon="6.84378">
        <ele>1316</ele>
        <time>2000-01-01T07:45:57.000Z</time>
      </trkpt>
      <trkpt lat="46.25262" lon="6.84368">
        <ele>1308.9</ele>
        <time>2000-01-01T07:46:07.000Z</time>
      </trkpt>
      <trkpt lat="46.25273" lon="6.8435">
        <ele>1311</ele>
        <time>2000-01-01T07:46:17.000Z</time>
      </trkpt>
      <trkpt lat="46.25296" lon="6.84333">
        <ele>1305</ele>
        <time>2000-01-01T07:46:27.000Z</time>
      </trkpt>
      <trkpt lat="46.25325" lon="6.84312">
        <ele>1295</ele>
        <time>2000-01-01T07:46:37.000Z</time>
      </trkpt>
      <trkpt lat="46.25355" lon="6.84281">
        <ele>1294</ele>
        <time>2000-01-01T07:46:47.000Z</time>
      </trkpt>
      <trkpt lat="46.25381" lon="6.84255">
        <ele>1295</ele>
        <time>2000-01-01T07:46:57.000Z</time>
      </trkpt>
      <trkpt lat="46.25408" lon="6.84229">
        <ele>1291</ele>
        <time>2000-01-01T07:47:07.000Z</time>
      </trkpt>
      <trkpt lat="46.25439" lon="6.84199">
        <ele>1287</ele>
        <time>2000-01-01T07:47:17.000Z</time>
      </trkpt>
      <trkpt lat="46.25471" lon="6.84167">
        <ele>1275</ele>
        <time>2000-01-01T07:47:27.000Z</time>
      </trkpt>
      <trkpt lat="46.25502" lon="6.84149">
        <ele>1264</ele>
        <time>2000-01-01T07:47:37.000Z</time>
      </trkpt>
      <trkpt lat="46.25514" lon="6.84147">
        <ele>1261</ele>
        <time>2000-01-01T07:47:47.000Z</time>
      </trkpt>
      <trkpt lat="46.25508" lon="6.84166">
        <ele>1263</ele>
        <time>2000-01-01T07:47:57.000Z</time>
      </trkpt>
      <trkpt lat="46.25494" lon="6.84227">
        <ele>1263</ele>
        <time>2000-01-01T07:48:07.000Z</time>
      </trkpt>
      <trkpt lat="46.25487" lon="6.84242">
        <ele>1266.7</ele>
        <time>2000-01-01T07:48:17.000Z</time>
      </trkpt>
      <trkpt lat="46.25506" lon="6.84299">
        <ele>1263</ele>
        <time>2000-01-01T07:48:27.000Z</time>
      </trkpt>
      <trkpt lat="46.25517" lon="6.84324">
        <ele>1262</ele>
        <time>2000-01-01T07:48:37.000Z</time>
      </trkpt>
      <trkpt lat="46.25533" lon="6.8434">
        <ele>1257</ele>
        <time>2000-01-01T07:48:47.000Z</time>
      </trkpt>
      <trkpt lat="46.25551" lon="6.84344">
        <ele>1255.2</ele>
        <time>2000-01-01T07:48:57.000Z</time>
      </trkpt>
      <trkpt lat="46.25546" lon="6.84323">
        <ele>1254</ele>
        <time>2000-01-01T07:49:07.000Z</time>
      </trkpt>
      <trkpt lat="46.25532" lon="6.84297">
        <ele>1250</ele>
        <time>2000-01-01T07:49:17.000Z</time>
      </trkpt>
      <trkpt lat="46.25532" lon="6.84275">
        <ele>1248.8</ele>
        <time>2000-01-01T07:49:27.000Z</time>
      </trkpt>
      <trkpt lat="46.25542" lon="6.84251">
        <ele>1247</ele>
        <time>2000-01-01T07:49:37.000Z</time>
      </trkpt>
      <trkpt lat="46.25554" lon="6.84236">
        <ele>1246.3</ele>
        <time>2000-01-01T07:49:47.000Z</time>
      </trkpt>
      <trkpt lat="46.25572" lon="6.8422">
        <ele>1243</ele>
        <time>2000-01-01T07:49:57.000Z</time>
      </trkpt>
      <trkpt lat="46.25579" lon="6.84238">
        <ele>1242.6</ele>
        <time>2000-01-01T07:50:07.000Z</time>
      </trkpt>
      <trkpt lat="46.25584" lon="6.84244">
        <ele>1241</ele>
        <time>2000-01-01T07:50:17.000Z</time>
      </trkpt>
      <trkpt lat="46.25591" lon="6.84248">
        <ele>1242</ele>
        <time>2000-01-01T07:50:27.000Z</time>
      </trkpt>
      <trkpt lat="46.25603" lon="6.84249">
        <ele>1241</ele>
        <time>2000-01-01T07:50:37.000Z</time>
      </trkpt>
      <trkpt lat="46.2561" lon="6.84255">
        <ele>1242.5</ele>
        <time>2000-01-01T07:50:47.000Z</time>
      </trkpt>
      <trkpt lat="46.25626" lon="6.84255">
        <ele>1241</ele>
        <time>2000-01-01T07:50:57.000Z</time>
      </trkpt>
      <trkpt lat="46.2565" lon="6.84249">
        <ele>1241</ele>
        <time>2000-01-01T07:51:07.000Z</time>
      </trkpt>
      <trkpt lat="46.25677" lon="6.84242">
        <ele>1241</ele>
        <time>2000-01-01T07:51:17.000Z</time>
      </trkpt>
      <trkpt lat="46.25709" lon="6.84237">
        <ele>1241</ele>
        <time>2000-01-01T07:51:27.000Z</time>
      </trkpt>
      <trkpt lat="46.25736" lon="6.84232">
        <ele>1242</ele>
        <time>2000-01-01T07:51:37.000Z</time>
      </trkpt>
      <trkpt lat="46.25775" lon="6.84225">
        <ele>1242</ele>
        <time>2000-01-01T07:51:47.000Z</time>
      </trkpt>
      <trkpt lat="46.258" lon="6.84223">
        <ele>1242</ele>
        <time>2000-01-01T07:51:57.000Z</time>
      </trkpt>
      <trkpt lat="46.25807" lon="6.84221">
        <ele>1242.9</ele>
        <time>2000-01-01T07:52:07.000Z</time>
      </trkpt>
      <trkpt lat="46.2581" lon="6.84211">
        <ele>1242</ele>
        <time>2000-01-01T07:52:17.000Z</time>
      </trkpt>
      <trkpt lat="46.25816" lon="6.8423">
        <ele>1242</ele>
        <time>2000-01-01T07:52:27.000Z</time>
      </trkpt>
      <trkpt lat="46.25836" lon="6.84237">
        <ele>1245</ele>
        <time>2000-01-01T07:52:37.000Z</time>
      </trkpt>
      <trkpt lat="46.25851" lon="6.84252">
        <ele>1250.7</ele>
        <time>2000-01-01T07:52:47.000Z</time>
      </trkpt>
      <trkpt lat="46.25891" lon="6.84258">
        <ele>1249</ele>
        <time>2000-01-01T07:52:57.000Z</time>
      </trkpt>
      <trkpt lat="46.25913" lon="6.84251">
        <ele>1253</ele>
        <time>2000-01-01T07:53:07.000Z</time>
      </trkpt>
      <trkpt lat="46.25942" lon="6.84235">
        <ele>1255</ele>
        <time>2000-01-01T07:53:17.000Z</time>
      </trkpt>
      <trkpt lat="46.25966" lon="6.84221">
        <ele>1257</ele>
        <time>2000-01-01T07:53:27.000Z</time>
      </trkpt>
      <trkpt lat="46.25997" lon="6.84203">
        <ele>1255</ele>
        <time>2000-01-01T07:53:37.000Z</time>
      </trkpt>
      <trkpt lat="46.26021" lon="6.8419">
        <ele>1256</ele>
        <time>2000-01-01T07:53:47.000Z</time>
      </trkpt>
      <trkpt lat="46.26033" lon="6.84189">
        <ele>1255.9</ele>
        <time>2000-01-01T07:53:57.000Z</time>
      </trkpt>
      <trkpt lat="46.26061" lon="6.84203">
        <ele>1254</ele>
        <time>2000-01-01T07:54:07.000Z</time>
      </trkpt>
      <trkpt lat="46.2609" lon="6.842">
        <ele>1255</ele>
        <time>2000-01-01T07:54:17.000Z</time>
      </trkpt>
      <trkpt lat="46.26118" lon="6.8421">
        <ele>1255</ele>
        <time>2000-01-01T07:54:27.000Z</time>
      </trkpt>
      <trkpt lat="46.26148" lon="6.84215">
        <ele>1255</ele>
        <time>2000-01-01T07:54:37.000Z</time>
      </trkpt>
      <trkpt lat="46.26172" lon="6.8422">
        <ele>1248</ele>
        <time>2000-01-01T07:54:47.000Z</time>
      </trkpt>
      <trkpt lat="46.26201" lon="6.84225">
        <ele>1246</ele>
        <time>2000-01-01T07:54:57.000Z</time>
      </trkpt>
      <trkpt lat="46.26222" lon="6.84233">
        <ele>1246</ele>
        <time>2000-01-01T07:55:07.000Z</time>
      </trkpt>
      <trkpt lat="46.2624" lon="6.8423">
        <ele>1241.6</ele>
        <time>2000-01-01T07:55:17.000Z</time>
      </trkpt>
      <trkpt lat="46.26266" lon="6.84242">
        <ele>1241</ele>
        <time>2000-01-01T07:55:27.000Z</time>
      </trkpt>
      <trkpt lat="46.26291" lon="6.84249">
        <ele>1235</ele>
        <time>2000-01-01T07:55:37.000Z</time>
      </trkpt>
      <trkpt lat="46.26311" lon="6.84252">
        <ele>1235</ele>
        <time>2000-01-01T07:55:47.000Z</time>
      </trkpt>
      <trkpt lat="46.2632" lon="6.8425">
        <ele>1236</ele>
        <time>2000-01-01T07:55:57.000Z</time>
      </trkpt>
      <trkpt lat="46.26377" lon="6.84267">
        <ele>1234</ele>
        <time>2000-01-01T07:56:07.000Z</time>
      </trkpt>
      <trkpt lat="46.26402" lon="6.84278">
        <ele>1232</ele>
        <time>2000-01-01T07:56:17.000Z</time>
      </trkpt>
      <trkpt lat="46.26435" lon="6.84293">
        <ele>1232</ele>
        <time>2000-01-01T07:56:27.000Z</time>
      </trkpt>
      <trkpt lat="46.26459" lon="6.84309">
        <ele>1232</ele>
        <time>2000-01-01T07:56:37.000Z</time>
      </trkpt>
      <trkpt lat="46.26491" lon="6.84331">
        <ele>1242</ele>
        <time>2000-01-01T07:56:47.000Z</time>
      </trkpt>
      <trkpt lat="46.26509" lon="6.84347">
        <ele>1241</ele>
        <time>2000-01-01T07:56:57.000Z</time>
      </trkpt>
      <trkpt lat="46.26526" lon="6.84354">
        <ele>1248.5</ele>
        <time>2000-01-01T07:57:07.000Z</time>
      </trkpt>
      <trkpt lat="46.26616" lon="6.84353">
        <ele>1241</ele>
        <time>2000-01-01T07:57:17.000Z</time>
      </trkpt>
      <trkpt lat="46.26644" lon="6.84358">
        <ele>1240</ele>
        <time>2000-01-01T07:57:27.000Z</time>
      </trkpt>
      <trkpt lat="46.26678" lon="6.84352">
        <ele>1240</ele>
        <time>2000-01-01T07:57:37.000Z</time>
      </trkpt>
      <trkpt lat="46.26698" lon="6.84358">
        <ele>1239</ele>
        <time>2000-01-01T07:57:47.000Z</time>
      </trkpt>
      <trkpt lat="46.26705" lon="6.84354">
        <ele>1238.7</ele>
        <time>2000-01-01T07:57:57.000Z</time>
      </trkpt>
      <trkpt lat="46.26731" lon="6.84353">
        <ele>1240</ele>
        <time>2000-01-01T07:58:07.000Z</time>
      </trkpt>
      <trkpt lat="46.26767" lon="6.84359">
        <ele>1241</ele>
        <time>2000-01-01T07:58:17.000Z</time>
      </trkpt>
      <trkpt lat="46.26806" lon="6.84357">
        <ele>1239</ele>
        <time>2000-01-01T07:58:27.000Z</time>
      </trkpt>
      <trkpt lat="46.26832" lon="6.8435">
        <ele>1239</ele>
        <time>2000-01-01T07:58:37.000Z</time>
      </trkpt>
      <trkpt lat="46.26858" lon="6.84348">
        <ele>1239</ele>
        <time>2000-01-01T07:58:47.000Z</time>
      </trkpt>
      <trkpt lat="46.26891" lon="6.84346">
        <ele>1240</ele>
        <time>2000-01-01T07:58:57.000Z</time>
      </trkpt>
      <trkpt lat="46.26898" lon="6.84341">
        <ele>1244.2</ele>
        <time>2000-01-01T07:59:07.000Z</time>
      </trkpt>
      <trkpt lat="46.26936" lon="6.84321">
        <ele>1242</ele>
        <time>2000-01-01T07:59:17.000Z</time>
      </trkpt>
      <trkpt lat="46.26964" lon="6.84314">
        <ele>1242</ele>
        <time>2000-01-01T07:59:27.000Z</time>
      </trkpt>
      <trkpt lat="46.27008" lon="6.84303">
        <ele>1243</ele>
        <time>2000-01-01T07:59:37.000Z</time>
      </trkpt>
      <trkpt lat="46.27037" lon="6.84294">
        <ele>1243</ele>
        <time>2000-01-01T07:59:47.000Z</time>
      </trkpt>
      <trkpt lat="46.27062" lon="6.84286">
        <ele>1241</ele>
        <time>2000-01-01T07:59:57.000Z</time>
      </trkpt>
      <trkpt lat="46.27091" lon="6.84277">
        <ele>1239</ele>
        <time>2000-01-01T08:00:07.000Z</time>
      </trkpt>
      <trkpt lat="46.27106" lon="6.84269">
        <ele>1239.1</ele>
        <time>2000-01-01T08:00:17.000Z</time>
      </trkpt>
      <trkpt lat="46.27124" lon="6.84256">
        <ele>1234</ele>
        <time>2000-01-01T08:00:27.000Z</time>
      </trkpt>
      <trkpt lat="46.27149" lon="6.84247">
        <ele>1233</ele>
        <time>2000-01-01T08:00:37.000Z</time>
      </trkpt>
      <trkpt lat="46.27152" lon="6.84239">
        <ele>1232.7</ele>
        <time>2000-01-01T08:00:47.000Z</time>
      </trkpt>
      <trkpt lat="46.27149" lon="6.84231">
        <ele>1231.5</ele>
        <time>2000-01-01T08:00:57.000Z</time>
      </trkpt>
      <trkpt lat="46.27137" lon="6.84231">
        <ele>1232</ele>
        <time>2000-01-01T08:01:07.000Z</time>
      </trkpt>
      <trkpt lat="46.27121" lon="6.84235">
        <ele>1232.5</ele>
        <time>2000-01-01T08:01:17.000Z</time>
      </trkpt>
      <trkpt lat="46.27086" lon="6.8423">
        <ele>1228</ele>
        <time>2000-01-01T08:01:27.000Z</time>
      </trkpt>
      <trkpt lat="46.27046" lon="6.84237">
        <ele>1226</ele>
        <time>2000-01-01T08:01:37.000Z</time>
      </trkpt>
      <trkpt lat="46.27021" lon="6.84237">
        <ele>1224</ele>
        <time>2000-01-01T08:01:47.000Z</time>
      </trkpt>
      <trkpt lat="46.26993" lon="6.84238">
        <ele>1220</ele>
        <time>2000-01-01T08:01:57.000Z</time>
      </trkpt>
      <trkpt lat="46.26966" lon="6.84237">
        <ele>1217</ele>
        <time>2000-01-01T08:02:07.000Z</time>
      </trkpt>
      <trkpt lat="46.2693" lon="6.84236">
        <ele>1213</ele>
        <time>2000-01-01T08:02:17.000Z</time>
      </trkpt>
      <trkpt lat="46.26898" lon="6.84234">
        <ele>1210</ele>
        <time>2000-01-01T08:02:27.000Z</time>
      </trkpt>
      <trkpt lat="46.26865" lon="6.8423">
        <ele>1207</ele>
        <time>2000-01-01T08:02:37.000Z</time>
      </trkpt>
      <trkpt lat="46.26841" lon="6.84225">
        <ele>1205</ele>
        <time>2000-01-01T08:02:47.000Z</time>
      </trkpt>
      <trkpt lat="46.26816" lon="6.8422">
        <ele>1201</ele>
        <time>2000-01-01T08:02:57.000Z</time>
      </trkpt>
      <trkpt lat="46.26791" lon="6.84206">
        <ele>1199</ele>
        <time>2000-01-01T08:03:07.000Z</time>
      </trkpt>
      <trkpt lat="46.26759" lon="6.84188">
        <ele>1195</ele>
        <time>2000-01-01T08:03:17.000Z</time>
      </trkpt>
      <trkpt lat="46.26734" lon="6.84173">
        <ele>1194</ele>
        <time>2000-01-01T08:03:27.000Z</time>
      </trkpt>
      <trkpt lat="46.26702" lon="6.84152">
        <ele>1192</ele>
        <time>2000-01-01T08:03:37.000Z</time>
      </trkpt>
      <trkpt lat="46.26698" lon="6.8414">
        <ele>1191.2</ele>
        <time>2000-01-01T08:03:47.000Z</time>
      </trkpt>
      <trkpt lat="46.26746" lon="6.84132">
        <ele>1188</ele>
        <time>2000-01-01T08:03:57.000Z</time>
      </trkpt>
      <trkpt lat="46.2677" lon="6.84115">
        <ele>1185</ele>
        <time>2000-01-01T08:04:07.000Z</time>
      </trkpt>
      <trkpt lat="46.26762" lon="6.84097">
        <ele>1184.6</ele>
        <time>2000-01-01T08:04:17.000Z</time>
      </trkpt>
      <trkpt lat="46.26797" lon="6.84089">
        <ele>1182</ele>
        <time>2000-01-01T08:04:27.000Z</time>
      </trkpt>
      <trkpt lat="46.26797" lon="6.84069">
        <ele>1182</ele>
        <time>2000-01-01T08:04:37.000Z</time>
      </trkpt>
      <trkpt lat="46.26797" lon="6.84082">
        <ele>1182</ele>
        <time>2000-01-01T08:04:47.000Z</time>
      </trkpt>
    </trkseg>
  </trk>
</gpx>